<?xml version="1.0" encoding="UTF-8" standalone="no" ?>
<gpx xmlns="http://www.topografix.com/GPX/1/1" xmlns:xsi="http://www.w3.org/2001/XMLSchema-instance" xsi:schemaLocation="http://www.topografix.com/GPX/1/1 http://www.topografix.com/GPX/1/1/gpx.xsd" version="1.1" creator="VisuGPX - https://www.visugpx.com">
  <metadata>
    <name>Aiguebrunerouge</name>
    <desc><![CDATA[Rando rouge essaie rrrrrbv sggsgd gdgh egg dhddj]]></desc>
  </metadata>
  <trk>
    <name><![CDATA[Aiguebrun  trace Rouge]]></name>
    <trkseg>
      <trkpt lat="43.84538" lon="5.40384">
        <ele>560.11</ele>
        <time>2018-03-22T08:29:13Z</time>
      </trkpt>
      <trkpt lat="43.84538" lon="5.40385">
        <ele>560.59</ele>
        <time>2018-03-22T08:29:24Z</time>
      </trkpt>
      <trkpt lat="43.84537" lon="5.40386">
        <ele>560.59</ele>
        <time>2018-03-22T08:29:45Z</time>
      </trkpt>
      <trkpt lat="43.84537" lon="5.40388">
        <ele>560.59</ele>
        <time>2018-03-22T08:30:10Z</time>
      </trkpt>
      <trkpt lat="43.84531" lon="5.40406">
        <ele>560.59</ele>
        <time>2018-03-22T08:30:27Z</time>
      </trkpt>
      <trkpt lat="43.84526" lon="5.40415">
        <ele>560.59</ele>
        <time>2018-03-22T08:30:36Z</time>
      </trkpt>
      <trkpt lat="43.84514" lon="5.40428">
        <ele>561.07</ele>
        <time>2018-03-22T08:30:52Z</time>
      </trkpt>
      <trkpt lat="43.84498" lon="5.40438">
        <ele>561.07</ele>
        <time>2018-03-22T08:31:08Z</time>
      </trkpt>
      <trkpt lat="43.84495" lon="5.40439">
        <ele>561.07</ele>
        <time>2018-03-22T08:31:12Z</time>
      </trkpt>
      <trkpt lat="43.84488" lon="5.40441">
        <ele>561.07</ele>
        <time>2018-03-22T08:31:20Z</time>
      </trkpt>
      <trkpt lat="43.84484" lon="5.40451">
        <ele>561.07</ele>
        <time>2018-03-22T08:31:29Z</time>
      </trkpt>
      <trkpt lat="43.84484" lon="5.40454">
        <ele>558.726685</ele>
        <time>2018-03-22T08:31:38Z</time>
      </trkpt>
      <trkpt lat="43.84484" lon="5.40456">
        <ele>558.801697</ele>
        <time>2018-03-22T08:31:51Z</time>
      </trkpt>
      <trkpt lat="43.84483" lon="5.40465">
        <ele>559.263733</ele>
        <time>2018-03-22T08:32:03Z</time>
      </trkpt>
      <trkpt lat="43.84479" lon="5.40475">
        <ele>562.03</ele>
        <time>2018-03-22T08:32:15Z</time>
      </trkpt>
      <trkpt lat="43.84475" lon="5.40477">
        <ele>562.03</ele>
        <time>2018-03-22T08:32:19Z</time>
      </trkpt>
      <trkpt lat="43.84471" lon="5.40483">
        <ele>562.03</ele>
        <time>2018-03-22T08:32:25Z</time>
      </trkpt>
      <trkpt lat="43.84467" lon="5.40486">
        <ele>562.03</ele>
        <time>2018-03-22T08:32:31Z</time>
      </trkpt>
      <trkpt lat="43.84456" lon="5.40494">
        <ele>562.03</ele>
        <time>2018-03-22T08:32:44Z</time>
      </trkpt>
      <trkpt lat="43.84444" lon="5.40503">
        <ele>562.51</ele>
        <time>2018-03-22T08:32:57Z</time>
      </trkpt>
      <trkpt lat="43.84433" lon="5.40507">
        <ele>562.51</ele>
        <time>2018-03-22T08:33:08Z</time>
      </trkpt>
      <trkpt lat="43.84431" lon="5.40507">
        <ele>562.51</ele>
        <time>2018-03-22T08:33:10Z</time>
      </trkpt>
      <trkpt lat="43.84418" lon="5.4051">
        <ele>562.51</ele>
        <time>2018-03-22T08:33:23Z</time>
      </trkpt>
      <trkpt lat="43.8441" lon="5.40512">
        <ele>562.51</ele>
        <time>2018-03-22T08:33:32Z</time>
      </trkpt>
      <trkpt lat="43.84403" lon="5.40513">
        <ele>562.51</ele>
        <time>2018-03-22T08:33:39Z</time>
      </trkpt>
      <trkpt lat="43.84386" lon="5.40514">
        <ele>562.51</ele>
        <time>2018-03-22T08:33:52Z</time>
      </trkpt>
      <trkpt lat="43.84384" lon="5.40515">
        <ele>562.99</ele>
        <time>2018-03-22T08:33:54Z</time>
      </trkpt>
      <trkpt lat="43.8437" lon="5.40518">
        <ele>562.99</ele>
        <time>2018-03-22T08:34:08Z</time>
      </trkpt>
      <trkpt lat="43.84357" lon="5.40521">
        <ele>562.99</ele>
        <time>2018-03-22T08:34:20Z</time>
      </trkpt>
      <trkpt lat="43.84344" lon="5.40528">
        <ele>562.99</ele>
        <time>2018-03-22T08:34:33Z</time>
      </trkpt>
      <trkpt lat="43.84331" lon="5.40533">
        <ele>562.99</ele>
        <time>2018-03-22T08:34:44Z</time>
      </trkpt>
      <trkpt lat="43.84328" lon="5.40535">
        <ele>563.47</ele>
        <time>2018-03-22T08:34:47Z</time>
      </trkpt>
      <trkpt lat="43.84316" lon="5.40543">
        <ele>563.47</ele>
        <time>2018-03-22T08:35:00Z</time>
      </trkpt>
      <trkpt lat="43.84304" lon="5.4055">
        <ele>563.47</ele>
        <time>2018-03-22T08:35:12Z</time>
      </trkpt>
      <trkpt lat="43.84296" lon="5.40553">
        <ele>563.47</ele>
        <time>2018-03-22T08:35:21Z</time>
      </trkpt>
      <trkpt lat="43.84286" lon="5.40557">
        <ele>563.47</ele>
        <time>2018-03-22T08:35:30Z</time>
      </trkpt>
      <trkpt lat="43.8427" lon="5.40564">
        <ele>563.95</ele>
        <time>2018-03-22T08:35:45Z</time>
      </trkpt>
      <trkpt lat="43.84261" lon="5.40568">
        <ele>563.95</ele>
        <time>2018-03-22T08:35:56Z</time>
      </trkpt>
      <trkpt lat="43.84248" lon="5.40572">
        <ele>563.95</ele>
        <time>2018-03-22T08:36:09Z</time>
      </trkpt>
      <trkpt lat="43.84235" lon="5.40576">
        <ele>564.43</ele>
        <time>2018-03-22T08:36:22Z</time>
      </trkpt>
      <trkpt lat="43.84223" lon="5.40581">
        <ele>564.43</ele>
        <time>2018-03-22T08:36:34Z</time>
      </trkpt>
      <trkpt lat="43.84209" lon="5.40584">
        <ele>564.43</ele>
        <time>2018-03-22T08:36:47Z</time>
      </trkpt>
      <trkpt lat="43.84196" lon="5.40589">
        <ele>564.91</ele>
        <time>2018-03-22T08:36:59Z</time>
      </trkpt>
      <trkpt lat="43.84182" lon="5.40593">
        <ele>564.91</ele>
        <time>2018-03-22T08:37:12Z</time>
      </trkpt>
      <trkpt lat="43.84165" lon="5.40598">
        <ele>564.91</ele>
        <time>2018-03-22T08:37:28Z</time>
      </trkpt>
      <trkpt lat="43.84148" lon="5.40597">
        <ele>564.91</ele>
        <time>2018-03-22T08:37:43Z</time>
      </trkpt>
      <trkpt lat="43.84131" lon="5.40602">
        <ele>564.91</ele>
        <time>2018-03-22T08:37:58Z</time>
      </trkpt>
      <trkpt lat="43.84118" lon="5.40607">
        <ele>564.91</ele>
        <time>2018-03-22T08:38:10Z</time>
      </trkpt>
      <trkpt lat="43.84102" lon="5.40611">
        <ele>564.91</ele>
        <time>2018-03-22T08:38:24Z</time>
      </trkpt>
      <trkpt lat="43.84094" lon="5.40614">
        <ele>564.91</ele>
        <time>2018-03-22T08:38:33Z</time>
      </trkpt>
      <trkpt lat="43.84086" lon="5.40616">
        <ele>564.91</ele>
        <time>2018-03-22T08:38:41Z</time>
      </trkpt>
      <trkpt lat="43.84079" lon="5.40619">
        <ele>564.91</ele>
        <time>2018-03-22T08:38:48Z</time>
      </trkpt>
      <trkpt lat="43.84071" lon="5.40625">
        <ele>564.91</ele>
        <time>2018-03-22T08:38:56Z</time>
      </trkpt>
      <trkpt lat="43.84064" lon="5.40626">
        <ele>562.99</ele>
        <time>2018-03-22T08:39:04Z</time>
      </trkpt>
      <trkpt lat="43.84058" lon="5.40617">
        <ele>562.51</ele>
        <time>2018-03-22T08:39:13Z</time>
      </trkpt>
      <trkpt lat="43.84054" lon="5.40617">
        <ele>562.03</ele>
        <time>2018-03-22T08:39:20Z</time>
      </trkpt>
      <trkpt lat="43.8405" lon="5.40625">
        <ele>561.55</ele>
        <time>2018-03-22T08:39:28Z</time>
      </trkpt>
      <trkpt lat="43.84038" lon="5.40626">
        <ele>560.11</ele>
        <time>2018-03-22T08:39:41Z</time>
      </trkpt>
      <trkpt lat="43.84025" lon="5.40629">
        <ele>559.14</ele>
        <time>2018-03-22T08:39:54Z</time>
      </trkpt>
      <trkpt lat="43.84009" lon="5.40633">
        <ele>557.7</ele>
        <time>2018-03-22T08:40:10Z</time>
      </trkpt>
      <trkpt lat="43.83996" lon="5.40636">
        <ele>556.26</ele>
        <time>2018-03-22T08:40:24Z</time>
      </trkpt>
      <trkpt lat="43.83978" lon="5.40638">
        <ele>554.34</ele>
        <time>2018-03-22T08:40:40Z</time>
      </trkpt>
      <trkpt lat="43.83964" lon="5.40642">
        <ele>551.93</ele>
        <time>2018-03-22T08:40:57Z</time>
      </trkpt>
      <trkpt lat="43.83954" lon="5.40651">
        <ele>550.01</ele>
        <time>2018-03-22T08:41:10Z</time>
      </trkpt>
      <trkpt lat="43.83952" lon="5.40652">
        <ele>549.53</ele>
        <time>2018-03-22T08:41:12Z</time>
      </trkpt>
      <trkpt lat="43.83941" lon="5.40661">
        <ele>547.13</ele>
        <time>2018-03-22T08:41:26Z</time>
      </trkpt>
      <trkpt lat="43.83939" lon="5.40664">
        <ele>546.65</ele>
        <time>2018-03-22T08:41:31Z</time>
      </trkpt>
      <trkpt lat="43.83932" lon="5.40673">
        <ele>545.2</ele>
        <time>2018-03-22T08:41:41Z</time>
      </trkpt>
      <trkpt lat="43.83924" lon="5.40685">
        <ele>543.28</ele>
        <time>2018-03-22T08:41:54Z</time>
      </trkpt>
      <trkpt lat="43.83914" lon="5.40699">
        <ele>542.32</ele>
        <time>2018-03-22T08:42:08Z</time>
      </trkpt>
      <trkpt lat="43.8391" lon="5.40704">
        <ele>541.84</ele>
        <time>2018-03-22T08:42:14Z</time>
      </trkpt>
      <trkpt lat="43.83905" lon="5.40713">
        <ele>540.4</ele>
        <time>2018-03-22T08:42:23Z</time>
      </trkpt>
      <trkpt lat="43.83903" lon="5.40715">
        <ele>539.92</ele>
        <time>2018-03-22T08:42:25Z</time>
      </trkpt>
      <trkpt lat="43.83895" lon="5.40723">
        <ele>537.99</ele>
        <time>2018-03-22T08:42:39Z</time>
      </trkpt>
      <trkpt lat="43.83886" lon="5.40733">
        <ele>536.55</ele>
        <time>2018-03-22T08:42:53Z</time>
      </trkpt>
      <trkpt lat="43.83878" lon="5.40749">
        <ele>533.67</ele>
        <time>2018-03-22T08:43:08Z</time>
      </trkpt>
      <trkpt lat="43.83875" lon="5.40751">
        <ele>533.19</ele>
        <time>2018-03-22T08:43:13Z</time>
      </trkpt>
      <trkpt lat="43.83866" lon="5.40764">
        <ele>530.79</ele>
        <time>2018-03-22T08:43:28Z</time>
      </trkpt>
      <trkpt lat="43.83864" lon="5.40766">
        <ele>531.27</ele>
        <time>2018-03-22T08:43:31Z</time>
      </trkpt>
      <trkpt lat="43.83858" lon="5.40784">
        <ele>529.34</ele>
        <time>2018-03-22T08:43:47Z</time>
      </trkpt>
      <trkpt lat="43.83851" lon="5.40798">
        <ele>526.94</ele>
        <time>2018-03-22T08:44:00Z</time>
      </trkpt>
      <trkpt lat="43.83842" lon="5.40788">
        <ele>524.54</ele>
        <time>2018-03-22T08:44:15Z</time>
      </trkpt>
      <trkpt lat="43.83839" lon="5.40775">
        <ele>523.58</ele>
        <time>2018-03-22T08:44:30Z</time>
      </trkpt>
      <trkpt lat="43.83836" lon="5.40766">
        <ele>523.09</ele>
        <time>2018-03-22T08:44:38Z</time>
      </trkpt>
      <trkpt lat="43.83835" lon="5.40762">
        <ele>521.65</ele>
        <time>2018-03-22T08:44:41Z</time>
      </trkpt>
      <trkpt lat="43.83834" lon="5.40746">
        <ele>520.69</ele>
        <time>2018-03-22T08:44:54Z</time>
      </trkpt>
      <trkpt lat="43.83831" lon="5.40729">
        <ele>517.33</ele>
        <time>2018-03-22T08:45:11Z</time>
      </trkpt>
      <trkpt lat="43.83827" lon="5.40738">
        <ele>516.85</ele>
        <time>2018-03-22T08:45:20Z</time>
      </trkpt>
      <trkpt lat="43.83824" lon="5.40744">
        <ele>515.88</ele>
        <time>2018-03-22T08:45:26Z</time>
      </trkpt>
      <trkpt lat="43.83817" lon="5.40753">
        <ele>514.44</ele>
        <time>2018-03-22T08:45:37Z</time>
      </trkpt>
      <trkpt lat="43.8381" lon="5.40753">
        <ele>513.48</ele>
        <time>2018-03-22T08:45:41Z</time>
      </trkpt>
      <trkpt lat="43.83809" lon="5.40752">
        <ele>513</ele>
        <time>2018-03-22T08:45:42Z</time>
      </trkpt>
      <trkpt lat="43.83804" lon="5.40753">
        <ele>512.04</ele>
        <time>2018-03-22T08:45:48Z</time>
      </trkpt>
      <trkpt lat="43.83804" lon="5.40753">
        <ele>512.04</ele>
        <time>2018-03-22T08:45:49Z</time>
      </trkpt>
      <trkpt lat="43.838" lon="5.40756">
        <ele>511.08</ele>
        <time>2018-03-22T08:45:56Z</time>
      </trkpt>
      <trkpt lat="43.83799" lon="5.40757">
        <ele>511.08</ele>
        <time>2018-03-22T08:45:57Z</time>
      </trkpt>
      <trkpt lat="43.83798" lon="5.40759">
        <ele>511.08</ele>
        <time>2018-03-22T08:45:58Z</time>
      </trkpt>
      <trkpt lat="43.83797" lon="5.4076">
        <ele>510.6</ele>
        <time>2018-03-22T08:45:59Z</time>
      </trkpt>
      <trkpt lat="43.83796" lon="5.40761">
        <ele>510.6</ele>
        <time>2018-03-22T08:46:00Z</time>
      </trkpt>
      <trkpt lat="43.83795" lon="5.40761">
        <ele>510.6</ele>
        <time>2018-03-22T08:46:01Z</time>
      </trkpt>
      <trkpt lat="43.83789" lon="5.40757">
        <ele>509.64</ele>
        <time>2018-03-22T08:46:09Z</time>
      </trkpt>
      <trkpt lat="43.83789" lon="5.40755">
        <ele>509.64</ele>
        <time>2018-03-22T08:46:10Z</time>
      </trkpt>
      <trkpt lat="43.83789" lon="5.40754">
        <ele>509.64</ele>
        <time>2018-03-22T08:46:11Z</time>
      </trkpt>
      <trkpt lat="43.83789" lon="5.40753">
        <ele>508.67</ele>
        <time>2018-03-22T08:46:12Z</time>
      </trkpt>
      <trkpt lat="43.83785" lon="5.40738">
        <ele>507.23</ele>
        <time>2018-03-22T08:46:25Z</time>
      </trkpt>
      <trkpt lat="43.83785" lon="5.40735">
        <ele>506.75</ele>
        <time>2018-03-22T08:46:27Z</time>
      </trkpt>
      <trkpt lat="43.83785" lon="5.40733">
        <ele>506.75</ele>
        <time>2018-03-22T08:46:28Z</time>
      </trkpt>
      <trkpt lat="43.83782" lon="5.40718">
        <ele>505.31</ele>
        <time>2018-03-22T08:46:39Z</time>
      </trkpt>
      <trkpt lat="43.83779" lon="5.40708">
        <ele>504.35</ele>
        <time>2018-03-22T08:46:49Z</time>
      </trkpt>
      <trkpt lat="43.83777" lon="5.40701">
        <ele>503.87</ele>
        <time>2018-03-22T08:46:54Z</time>
      </trkpt>
      <trkpt lat="43.83777" lon="5.40699">
        <ele>503.39</ele>
        <time>2018-03-22T08:46:55Z</time>
      </trkpt>
      <trkpt lat="43.83775" lon="5.40696">
        <ele>503.39</ele>
        <time>2018-03-22T08:46:59Z</time>
      </trkpt>
      <trkpt lat="43.83775" lon="5.40694">
        <ele>502.91</ele>
        <time>2018-03-22T08:47:00Z</time>
      </trkpt>
      <trkpt lat="43.83771" lon="5.40689">
        <ele>501.95</ele>
        <time>2018-03-22T08:47:06Z</time>
      </trkpt>
      <trkpt lat="43.8377" lon="5.40688">
        <ele>501.95</ele>
        <time>2018-03-22T08:47:07Z</time>
      </trkpt>
      <trkpt lat="43.83769" lon="5.40686">
        <ele>501.95</ele>
        <time>2018-03-22T08:47:08Z</time>
      </trkpt>
      <trkpt lat="43.83768" lon="5.40685">
        <ele>501.95</ele>
        <time>2018-03-22T08:47:09Z</time>
      </trkpt>
      <trkpt lat="43.83758" lon="5.40676">
        <ele>500.98</ele>
        <time>2018-03-22T08:47:22Z</time>
      </trkpt>
      <trkpt lat="43.83751" lon="5.40664">
        <ele>500.02</ele>
        <time>2018-03-22T08:47:32Z</time>
      </trkpt>
      <trkpt lat="43.8375" lon="5.40663">
        <ele>500.02</ele>
        <time>2018-03-22T08:47:33Z</time>
      </trkpt>
      <trkpt lat="43.83747" lon="5.40653">
        <ele>499.54</ele>
        <time>2018-03-22T08:47:41Z</time>
      </trkpt>
      <trkpt lat="43.83746" lon="5.40652">
        <ele>499.54</ele>
        <time>2018-03-22T08:47:42Z</time>
      </trkpt>
      <trkpt lat="43.8374" lon="5.40635">
        <ele>499.06</ele>
        <time>2018-03-22T08:47:55Z</time>
      </trkpt>
      <trkpt lat="43.8374" lon="5.40632">
        <ele>499.06</ele>
        <time>2018-03-22T08:47:57Z</time>
      </trkpt>
      <trkpt lat="43.8374" lon="5.4063">
        <ele>499.06</ele>
        <time>2018-03-22T08:47:58Z</time>
      </trkpt>
      <trkpt lat="43.8374" lon="5.40628">
        <ele>499.06</ele>
        <time>2018-03-22T08:47:59Z</time>
      </trkpt>
      <trkpt lat="43.8374" lon="5.40626">
        <ele>499.06</ele>
        <time>2018-03-22T08:48:00Z</time>
      </trkpt>
      <trkpt lat="43.83739" lon="5.40624">
        <ele>498.58</ele>
        <time>2018-03-22T08:48:03Z</time>
      </trkpt>
      <trkpt lat="43.83738" lon="5.40623">
        <ele>498.58</ele>
        <time>2018-03-22T08:48:04Z</time>
      </trkpt>
      <trkpt lat="43.83737" lon="5.40622">
        <ele>498.58</ele>
        <time>2018-03-22T08:48:05Z</time>
      </trkpt>
      <trkpt lat="43.83737" lon="5.4062">
        <ele>498.58</ele>
        <time>2018-03-22T08:48:06Z</time>
      </trkpt>
      <trkpt lat="43.83736" lon="5.40619">
        <ele>498.58</ele>
        <time>2018-03-22T08:48:07Z</time>
      </trkpt>
      <trkpt lat="43.83736" lon="5.40609">
        <ele>498.1</ele>
        <time>2018-03-22T08:48:17Z</time>
      </trkpt>
      <trkpt lat="43.83736" lon="5.4059">
        <ele>498.1</ele>
        <time>2018-03-22T08:48:30Z</time>
      </trkpt>
      <trkpt lat="43.83735" lon="5.40587">
        <ele>498.1</ele>
        <time>2018-03-22T08:48:32Z</time>
      </trkpt>
      <trkpt lat="43.83735" lon="5.40585">
        <ele>498.1</ele>
        <time>2018-03-22T08:48:33Z</time>
      </trkpt>
      <trkpt lat="43.83734" lon="5.40583">
        <ele>498.1</ele>
        <time>2018-03-22T08:48:34Z</time>
      </trkpt>
      <trkpt lat="43.83734" lon="5.40581">
        <ele>498.1</ele>
        <time>2018-03-22T08:48:35Z</time>
      </trkpt>
      <trkpt lat="43.83734" lon="5.4058">
        <ele>498.1</ele>
        <time>2018-03-22T08:48:36Z</time>
      </trkpt>
      <trkpt lat="43.83735" lon="5.4057">
        <ele>497.62</ele>
        <time>2018-03-22T08:48:44Z</time>
      </trkpt>
      <trkpt lat="43.83735" lon="5.40568">
        <ele>497.62</ele>
        <time>2018-03-22T08:48:45Z</time>
      </trkpt>
      <trkpt lat="43.83735" lon="5.40566">
        <ele>497.62</ele>
        <time>2018-03-22T08:48:46Z</time>
      </trkpt>
      <trkpt lat="43.83735" lon="5.40554">
        <ele>497.62</ele>
        <time>2018-03-22T08:48:56Z</time>
      </trkpt>
      <trkpt lat="43.83733" lon="5.40548">
        <ele>499.06</ele>
        <time>2018-03-22T08:49:01Z</time>
      </trkpt>
      <trkpt lat="43.83733" lon="5.40547">
        <ele>499.06</ele>
        <time>2018-03-22T08:49:02Z</time>
      </trkpt>
      <trkpt lat="43.83728" lon="5.40537">
        <ele>499.06</ele>
        <time>2018-03-22T08:49:10Z</time>
      </trkpt>
      <trkpt lat="43.83716" lon="5.40526">
        <ele>499.06</ele>
        <time>2018-03-22T08:49:22Z</time>
      </trkpt>
      <trkpt lat="43.83704" lon="5.40516">
        <ele>499.06</ele>
        <time>2018-03-22T08:49:35Z</time>
      </trkpt>
      <trkpt lat="43.83702" lon="5.40515">
        <ele>499.06</ele>
        <time>2018-03-22T08:49:36Z</time>
      </trkpt>
      <trkpt lat="43.83701" lon="5.40515">
        <ele>499.06</ele>
        <time>2018-03-22T08:49:37Z</time>
      </trkpt>
      <trkpt lat="43.83691" lon="5.40506">
        <ele>500.02</ele>
        <time>2018-03-22T08:49:51Z</time>
      </trkpt>
      <trkpt lat="43.83684" lon="5.40498">
        <ele>500.5</ele>
        <time>2018-03-22T08:50:01Z</time>
      </trkpt>
      <trkpt lat="43.83682" lon="5.40495">
        <ele>500.5</ele>
        <time>2018-03-22T08:50:05Z</time>
      </trkpt>
      <trkpt lat="43.83677" lon="5.40492">
        <ele>500.5</ele>
        <time>2018-03-22T08:50:10Z</time>
      </trkpt>
      <trkpt lat="43.83675" lon="5.4049">
        <ele>500.5</ele>
        <time>2018-03-22T08:50:11Z</time>
      </trkpt>
      <trkpt lat="43.83674" lon="5.40488">
        <ele>500.5</ele>
        <time>2018-03-22T08:50:12Z</time>
      </trkpt>
      <trkpt lat="43.83673" lon="5.40487">
        <ele>500.5</ele>
        <time>2018-03-22T08:50:13Z</time>
      </trkpt>
      <trkpt lat="43.83669" lon="5.4048">
        <ele>500.5</ele>
        <time>2018-03-22T08:50:21Z</time>
      </trkpt>
      <trkpt lat="43.83667" lon="5.40479">
        <ele>500.5</ele>
        <time>2018-03-22T08:50:22Z</time>
      </trkpt>
      <trkpt lat="43.83666" lon="5.40477">
        <ele>466.86</ele>
        <time>2018-03-22T08:50:23Z</time>
      </trkpt>
      <trkpt lat="43.83665" lon="5.40476">
        <ele>499.54</ele>
        <time>2018-03-22T08:50:24Z</time>
      </trkpt>
      <trkpt lat="43.83662" lon="5.40473">
        <ele>500.02</ele>
        <time>2018-03-22T08:50:31Z</time>
      </trkpt>
      <trkpt lat="43.83661" lon="5.40472">
        <ele>500.02</ele>
        <time>2018-03-22T08:50:32Z</time>
      </trkpt>
      <trkpt lat="43.83661" lon="5.40471">
        <ele>500.02</ele>
        <time>2018-03-22T08:50:33Z</time>
      </trkpt>
      <trkpt lat="43.8366" lon="5.40469">
        <ele>500.02</ele>
        <time>2018-03-22T08:50:36Z</time>
      </trkpt>
      <trkpt lat="43.83659" lon="5.40468">
        <ele>500.02</ele>
        <time>2018-03-22T08:50:37Z</time>
      </trkpt>
      <trkpt lat="43.83658" lon="5.40466">
        <ele>500.02</ele>
        <time>2018-03-22T08:50:38Z</time>
      </trkpt>
      <trkpt lat="43.83657" lon="5.40465">
        <ele>500.02</ele>
        <time>2018-03-22T08:50:39Z</time>
      </trkpt>
      <trkpt lat="43.83655" lon="5.40462">
        <ele>500.02</ele>
        <time>2018-03-22T08:50:44Z</time>
      </trkpt>
      <trkpt lat="43.83654" lon="5.4046">
        <ele>500.98</ele>
        <time>2018-03-22T08:50:45Z</time>
      </trkpt>
      <trkpt lat="43.83652" lon="5.40458">
        <ele>500.98</ele>
        <time>2018-03-22T08:50:46Z</time>
      </trkpt>
      <trkpt lat="43.83651" lon="5.40455">
        <ele>500.98</ele>
        <time>2018-03-22T08:50:50Z</time>
      </trkpt>
      <trkpt lat="43.8365" lon="5.40454">
        <ele>500.98</ele>
        <time>2018-03-22T08:50:51Z</time>
      </trkpt>
      <trkpt lat="43.8365" lon="5.40452">
        <ele>500.98</ele>
        <time>2018-03-22T08:50:52Z</time>
      </trkpt>
      <trkpt lat="43.83649" lon="5.40451">
        <ele>500.98</ele>
        <time>2018-03-22T08:50:53Z</time>
      </trkpt>
      <trkpt lat="43.83649" lon="5.40442">
        <ele>501.95</ele>
        <time>2018-03-22T08:51:03Z</time>
      </trkpt>
      <trkpt lat="43.83649" lon="5.40431">
        <ele>504.35</ele>
        <time>2018-03-22T08:51:12Z</time>
      </trkpt>
      <trkpt lat="43.83648" lon="5.40428">
        <ele>505.79</ele>
        <time>2018-03-22T08:51:16Z</time>
      </trkpt>
      <trkpt lat="43.83646" lon="5.40418">
        <ele>506.27</ele>
        <time>2018-03-22T08:51:24Z</time>
      </trkpt>
      <trkpt lat="43.83645" lon="5.40413">
        <ele>506.75</ele>
        <time>2018-03-22T08:51:28Z</time>
      </trkpt>
      <trkpt lat="43.83645" lon="5.40409">
        <ele>506.75</ele>
        <time>2018-03-22T08:51:31Z</time>
      </trkpt>
      <trkpt lat="43.83644" lon="5.40407">
        <ele>506.75</ele>
        <time>2018-03-22T08:51:32Z</time>
      </trkpt>
      <trkpt lat="43.83639" lon="5.40397">
        <ele>508.19</ele>
        <time>2018-03-22T08:51:44Z</time>
      </trkpt>
      <trkpt lat="43.83638" lon="5.40395">
        <ele>505.79</ele>
        <time>2018-03-22T08:51:46Z</time>
      </trkpt>
      <trkpt lat="43.83628" lon="5.40386">
        <ele>505.79</ele>
        <time>2018-03-22T08:52:00Z</time>
      </trkpt>
      <trkpt lat="43.83626" lon="5.40385">
        <ele>505.79</ele>
        <time>2018-03-22T08:52:03Z</time>
      </trkpt>
      <trkpt lat="43.83625" lon="5.40384">
        <ele>505.31</ele>
        <time>2018-03-22T08:52:04Z</time>
      </trkpt>
      <trkpt lat="43.83623" lon="5.40383">
        <ele>504.83</ele>
        <time>2018-03-22T08:52:07Z</time>
      </trkpt>
      <trkpt lat="43.83615" lon="5.40379">
        <ele>503.39</ele>
        <time>2018-03-22T08:52:19Z</time>
      </trkpt>
      <trkpt lat="43.83617" lon="5.40381">
        <ele>503.87</ele>
        <time>2018-03-22T08:52:31Z</time>
      </trkpt>
      <trkpt lat="43.83616" lon="5.40381">
        <ele>503.87</ele>
        <time>2018-03-22T08:52:45Z</time>
      </trkpt>
      <trkpt lat="43.83614" lon="5.4038">
        <ele>503.87</ele>
        <time>2018-03-22T08:52:57Z</time>
      </trkpt>
      <trkpt lat="43.83611" lon="5.40374">
        <ele>503.39</ele>
        <time>2018-03-22T08:53:07Z</time>
      </trkpt>
      <trkpt lat="43.83602" lon="5.40364">
        <ele>502.43</ele>
        <time>2018-03-22T08:53:18Z</time>
      </trkpt>
      <trkpt lat="43.83592" lon="5.40356">
        <ele>502.43</ele>
        <time>2018-03-22T08:53:28Z</time>
      </trkpt>
      <trkpt lat="43.83587" lon="5.40352">
        <ele>502.43</ele>
        <time>2018-03-22T08:53:34Z</time>
      </trkpt>
      <trkpt lat="43.83586" lon="5.40351">
        <ele>502.43</ele>
        <time>2018-03-22T08:53:35Z</time>
      </trkpt>
      <trkpt lat="43.83585" lon="5.4035">
        <ele>502.43</ele>
        <time>2018-03-22T08:53:36Z</time>
      </trkpt>
      <trkpt lat="43.83574" lon="5.4034">
        <ele>502.43</ele>
        <time>2018-03-22T08:53:49Z</time>
      </trkpt>
      <trkpt lat="43.83569" lon="5.40333">
        <ele>503.87</ele>
        <time>2018-03-22T08:53:57Z</time>
      </trkpt>
      <trkpt lat="43.83568" lon="5.40332">
        <ele>503.87</ele>
        <time>2018-03-22T08:53:58Z</time>
      </trkpt>
      <trkpt lat="43.83567" lon="5.40332">
        <ele>503.87</ele>
        <time>2018-03-22T08:53:59Z</time>
      </trkpt>
      <trkpt lat="43.83563" lon="5.40328">
        <ele>504.35</ele>
        <time>2018-03-22T08:54:04Z</time>
      </trkpt>
      <trkpt lat="43.83562" lon="5.40327">
        <ele>504.35</ele>
        <time>2018-03-22T08:54:05Z</time>
      </trkpt>
      <trkpt lat="43.83554" lon="5.40315">
        <ele>505.79</ele>
        <time>2018-03-22T08:54:19Z</time>
      </trkpt>
      <trkpt lat="43.83547" lon="5.40303">
        <ele>507.71</ele>
        <time>2018-03-22T08:54:30Z</time>
      </trkpt>
      <trkpt lat="43.83538" lon="5.40298">
        <ele>507.71</ele>
        <time>2018-03-22T08:54:39Z</time>
      </trkpt>
      <trkpt lat="43.83526" lon="5.40289">
        <ele>508.67</ele>
        <time>2018-03-22T08:54:52Z</time>
      </trkpt>
      <trkpt lat="43.83511" lon="5.40278">
        <ele>509.16</ele>
        <time>2018-03-22T08:55:08Z</time>
      </trkpt>
      <trkpt lat="43.83504" lon="5.40263">
        <ele>510.12</ele>
        <time>2018-03-22T08:55:21Z</time>
      </trkpt>
      <trkpt lat="43.83501" lon="5.40256">
        <ele>510.12</ele>
        <time>2018-03-22T08:55:28Z</time>
      </trkpt>
      <trkpt lat="43.83499" lon="5.40255">
        <ele>510.12</ele>
        <time>2018-03-22T08:55:29Z</time>
      </trkpt>
      <trkpt lat="43.83495" lon="5.4025">
        <ele>510.12</ele>
        <time>2018-03-22T08:55:36Z</time>
      </trkpt>
      <trkpt lat="43.83494" lon="5.40248">
        <ele>510.12</ele>
        <time>2018-03-22T08:55:37Z</time>
      </trkpt>
      <trkpt lat="43.83493" lon="5.40247">
        <ele>510.12</ele>
        <time>2018-03-22T08:55:38Z</time>
      </trkpt>
      <trkpt lat="43.83482" lon="5.40236">
        <ele>510.12</ele>
        <time>2018-03-22T08:55:52Z</time>
      </trkpt>
      <trkpt lat="43.83473" lon="5.40221">
        <ele>510.12</ele>
        <time>2018-03-22T08:56:06Z</time>
      </trkpt>
      <trkpt lat="43.83472" lon="5.40219">
        <ele>509.16</ele>
        <time>2018-03-22T08:56:08Z</time>
      </trkpt>
      <trkpt lat="43.83466" lon="5.40196">
        <ele>509.16</ele>
        <time>2018-03-22T08:56:25Z</time>
      </trkpt>
      <trkpt lat="43.83462" lon="5.40174">
        <ele>508.19</ele>
        <time>2018-03-22T08:56:41Z</time>
      </trkpt>
      <trkpt lat="43.83462" lon="5.4017">
        <ele>508.19</ele>
        <time>2018-03-22T08:56:44Z</time>
      </trkpt>
      <trkpt lat="43.83462" lon="5.40169">
        <ele>508.19</ele>
        <time>2018-03-22T08:56:45Z</time>
      </trkpt>
      <trkpt lat="43.83461" lon="5.40167">
        <ele>508.19</ele>
        <time>2018-03-22T08:56:46Z</time>
      </trkpt>
      <trkpt lat="43.83457" lon="5.40151">
        <ele>508.19</ele>
        <time>2018-03-22T08:57:00Z</time>
      </trkpt>
      <trkpt lat="43.83455" lon="5.40149">
        <ele>508.19</ele>
        <time>2018-03-22T08:57:02Z</time>
      </trkpt>
      <trkpt lat="43.83454" lon="5.40148">
        <ele>507.71</ele>
        <time>2018-03-22T08:57:03Z</time>
      </trkpt>
      <trkpt lat="43.83453" lon="5.40147">
        <ele>507.71</ele>
        <time>2018-03-22T08:57:04Z</time>
      </trkpt>
      <trkpt lat="43.83451" lon="5.40146">
        <ele>507.71</ele>
        <time>2018-03-22T08:57:05Z</time>
      </trkpt>
      <trkpt lat="43.8345" lon="5.40144">
        <ele>507.71</ele>
        <time>2018-03-22T08:57:06Z</time>
      </trkpt>
      <trkpt lat="43.83443" lon="5.40131">
        <ele>507.23</ele>
        <time>2018-03-22T08:57:17Z</time>
      </trkpt>
      <trkpt lat="43.83438" lon="5.40126">
        <ele>507.23</ele>
        <time>2018-03-22T08:57:23Z</time>
      </trkpt>
      <trkpt lat="43.83438" lon="5.40125">
        <ele>507.23</ele>
        <time>2018-03-22T08:57:24Z</time>
      </trkpt>
      <trkpt lat="43.83433" lon="5.40117">
        <ele>507.23</ele>
        <time>2018-03-22T08:57:34Z</time>
      </trkpt>
      <trkpt lat="43.83432" lon="5.40117">
        <ele>507.23</ele>
        <time>2018-03-22T08:57:35Z</time>
      </trkpt>
      <trkpt lat="43.83422" lon="5.40105">
        <ele>507.23</ele>
        <time>2018-03-22T08:57:47Z</time>
      </trkpt>
      <trkpt lat="43.83418" lon="5.40101">
        <ele>507.23</ele>
        <time>2018-03-22T08:57:53Z</time>
      </trkpt>
      <trkpt lat="43.83417" lon="5.40099">
        <ele>507.23</ele>
        <time>2018-03-22T08:57:54Z</time>
      </trkpt>
      <trkpt lat="43.83416" lon="5.40098">
        <ele>506.75</ele>
        <time>2018-03-22T08:57:55Z</time>
      </trkpt>
      <trkpt lat="43.8341" lon="5.40076">
        <ele>506.75</ele>
        <time>2018-03-22T08:58:12Z</time>
      </trkpt>
      <trkpt lat="43.83411" lon="5.4007">
        <ele>506.75</ele>
        <time>2018-03-22T08:58:17Z</time>
      </trkpt>
      <trkpt lat="43.83412" lon="5.40068">
        <ele>506.75</ele>
        <time>2018-03-22T08:58:18Z</time>
      </trkpt>
      <trkpt lat="43.83411" lon="5.40067">
        <ele>506.75</ele>
        <time>2018-03-22T08:58:19Z</time>
      </trkpt>
      <trkpt lat="43.83411" lon="5.40065">
        <ele>506.75</ele>
        <time>2018-03-22T08:58:20Z</time>
      </trkpt>
      <trkpt lat="43.8341" lon="5.40063">
        <ele>506.75</ele>
        <time>2018-03-22T08:58:21Z</time>
      </trkpt>
      <trkpt lat="43.8341" lon="5.40061">
        <ele>506.27</ele>
        <time>2018-03-22T08:58:22Z</time>
      </trkpt>
      <trkpt lat="43.83411" lon="5.40054">
        <ele>506.27</ele>
        <time>2018-03-22T08:58:28Z</time>
      </trkpt>
      <trkpt lat="43.83411" lon="5.40053">
        <ele>506.27</ele>
        <time>2018-03-22T08:58:29Z</time>
      </trkpt>
      <trkpt lat="43.83411" lon="5.40051">
        <ele>506.27</ele>
        <time>2018-03-22T08:58:30Z</time>
      </trkpt>
      <trkpt lat="43.83409" lon="5.4004">
        <ele>505.79</ele>
        <time>2018-03-22T08:58:38Z</time>
      </trkpt>
      <trkpt lat="43.8341" lon="5.40037">
        <ele>505.79</ele>
        <time>2018-03-22T08:58:41Z</time>
      </trkpt>
      <trkpt lat="43.8341" lon="5.40034">
        <ele>505.31</ele>
        <time>2018-03-22T08:58:43Z</time>
      </trkpt>
      <trkpt lat="43.83409" lon="5.40032">
        <ele>505.31</ele>
        <time>2018-03-22T08:58:44Z</time>
      </trkpt>
      <trkpt lat="43.83409" lon="5.4003">
        <ele>505.31</ele>
        <time>2018-03-22T08:58:45Z</time>
      </trkpt>
      <trkpt lat="43.83408" lon="5.40012">
        <ele>504.35</ele>
        <time>2018-03-22T08:58:58Z</time>
      </trkpt>
      <trkpt lat="43.83405" lon="5.39989">
        <ele>504.35</ele>
        <time>2018-03-22T08:59:15Z</time>
      </trkpt>
      <trkpt lat="43.83405" lon="5.39984">
        <ele>504.35</ele>
        <time>2018-03-22T08:59:19Z</time>
      </trkpt>
      <trkpt lat="43.83404" lon="5.39982">
        <ele>504.35</ele>
        <time>2018-03-22T08:59:20Z</time>
      </trkpt>
      <trkpt lat="43.83404" lon="5.3998">
        <ele>503.87</ele>
        <time>2018-03-22T08:59:21Z</time>
      </trkpt>
      <trkpt lat="43.83398" lon="5.39957">
        <ele>503.87</ele>
        <time>2018-03-22T08:59:38Z</time>
      </trkpt>
      <trkpt lat="43.83393" lon="5.39945">
        <ele>503.87</ele>
        <time>2018-03-22T08:59:46Z</time>
      </trkpt>
      <trkpt lat="43.83378" lon="5.3993">
        <ele>503.39</ele>
        <time>2018-03-22T09:00:02Z</time>
      </trkpt>
      <trkpt lat="43.83375" lon="5.39928">
        <ele>502.91</ele>
        <time>2018-03-22T09:00:05Z</time>
      </trkpt>
      <trkpt lat="43.83374" lon="5.39927">
        <ele>502.91</ele>
        <time>2018-03-22T09:00:06Z</time>
      </trkpt>
      <trkpt lat="43.83365" lon="5.39918">
        <ele>501.46</ele>
        <time>2018-03-22T09:00:19Z</time>
      </trkpt>
      <trkpt lat="43.83363" lon="5.39911">
        <ele>501.46</ele>
        <time>2018-03-22T09:00:26Z</time>
      </trkpt>
      <trkpt lat="43.83365" lon="5.399">
        <ele>500.5</ele>
        <time>2018-03-22T09:00:35Z</time>
      </trkpt>
      <trkpt lat="43.83364" lon="5.3989">
        <ele>500.02</ele>
        <time>2018-03-22T09:00:42Z</time>
      </trkpt>
      <trkpt lat="43.83364" lon="5.39888">
        <ele>500.02</ele>
        <time>2018-03-22T09:00:43Z</time>
      </trkpt>
      <trkpt lat="43.83364" lon="5.39886">
        <ele>500.02</ele>
        <time>2018-03-22T09:00:44Z</time>
      </trkpt>
      <trkpt lat="43.83374" lon="5.39871">
        <ele>499.54</ele>
        <time>2018-03-22T09:00:58Z</time>
      </trkpt>
      <trkpt lat="43.83382" lon="5.39852">
        <ele>499.54</ele>
        <time>2018-03-22T09:01:14Z</time>
      </trkpt>
      <trkpt lat="43.83388" lon="5.39834">
        <ele>498.58</ele>
        <time>2018-03-22T09:01:27Z</time>
      </trkpt>
      <trkpt lat="43.83389" lon="5.3982">
        <ele>497.62</ele>
        <time>2018-03-22T09:01:37Z</time>
      </trkpt>
      <trkpt lat="43.83381" lon="5.39799">
        <ele>497.14</ele>
        <time>2018-03-22T09:01:51Z</time>
      </trkpt>
      <trkpt lat="43.83371" lon="5.39789">
        <ele>497.14</ele>
        <time>2018-03-22T09:02:05Z</time>
      </trkpt>
      <trkpt lat="43.83359" lon="5.3977">
        <ele>498.58</ele>
        <time>2018-03-22T09:02:23Z</time>
      </trkpt>
      <trkpt lat="43.8335" lon="5.3976">
        <ele>499.54</ele>
        <time>2018-03-22T09:02:37Z</time>
      </trkpt>
      <trkpt lat="43.83337" lon="5.39748">
        <ele>500.02</ele>
        <time>2018-03-22T09:02:50Z</time>
      </trkpt>
      <trkpt lat="43.83329" lon="5.39733">
        <ele>499.06</ele>
        <time>2018-03-22T09:03:02Z</time>
      </trkpt>
      <trkpt lat="43.83324" lon="5.3972">
        <ele>497.14</ele>
        <time>2018-03-22T09:03:14Z</time>
      </trkpt>
      <trkpt lat="43.83323" lon="5.39718">
        <ele>497.14</ele>
        <time>2018-03-22T09:03:16Z</time>
      </trkpt>
      <trkpt lat="43.83321" lon="5.3971">
        <ele>497.14</ele>
        <time>2018-03-22T09:03:22Z</time>
      </trkpt>
      <trkpt lat="43.83318" lon="5.39699">
        <ele>496.18</ele>
        <time>2018-03-22T09:03:31Z</time>
      </trkpt>
      <trkpt lat="43.83317" lon="5.39695">
        <ele>496.18</ele>
        <time>2018-03-22T09:03:35Z</time>
      </trkpt>
      <trkpt lat="43.83316" lon="5.39686">
        <ele>496.18</ele>
        <time>2018-03-22T09:03:40Z</time>
      </trkpt>
      <trkpt lat="43.83314" lon="5.39685">
        <ele>495.7</ele>
        <time>2018-03-22T09:03:51Z</time>
      </trkpt>
      <trkpt lat="43.83314" lon="5.39691">
        <ele>495.7</ele>
        <time>2018-03-22T09:04:08Z</time>
      </trkpt>
      <trkpt lat="43.83311" lon="5.39699">
        <ele>495.22</ele>
        <time>2018-03-22T09:04:17Z</time>
      </trkpt>
      <trkpt lat="43.83308" lon="5.397">
        <ele>493.29</ele>
        <time>2018-03-22T09:04:30Z</time>
      </trkpt>
      <trkpt lat="43.83308" lon="5.39694">
        <ele>492.81</ele>
        <time>2018-03-22T09:04:35Z</time>
      </trkpt>
      <trkpt lat="43.83305" lon="5.39691">
        <ele>490.244171</ele>
        <time>2018-03-22T09:04:39Z</time>
      </trkpt>
      <trkpt lat="43.83302" lon="5.39683">
        <ele>489.298096</ele>
        <time>2018-03-22T09:04:50Z</time>
      </trkpt>
      <trkpt lat="43.83299" lon="5.39677">
        <ele>488.128265</ele>
        <time>2018-03-22T09:05:03Z</time>
      </trkpt>
      <trkpt lat="43.83291" lon="5.39675">
        <ele>484.584747</ele>
        <time>2018-03-22T09:05:13Z</time>
      </trkpt>
      <trkpt lat="43.83291" lon="5.39678">
        <ele>485.6</ele>
        <time>2018-03-22T09:05:26Z</time>
      </trkpt>
      <trkpt lat="43.83289" lon="5.39678">
        <ele>484.64</ele>
        <time>2018-03-22T09:05:37Z</time>
      </trkpt>
      <trkpt lat="43.83286" lon="5.39674">
        <ele>482.078461</ele>
        <time>2018-03-22T09:05:41Z</time>
      </trkpt>
      <trkpt lat="43.83282" lon="5.39663">
        <ele>480.539886</ele>
        <time>2018-03-22T09:06:06Z</time>
      </trkpt>
      <trkpt lat="43.83281" lon="5.3965">
        <ele>480.572754</ele>
        <time>2018-03-22T09:06:13Z</time>
      </trkpt>
      <trkpt lat="43.83299" lon="5.39631">
        <ele>481.76</ele>
        <time>2018-03-22T09:06:27Z</time>
      </trkpt>
      <trkpt lat="43.83303" lon="5.39625">
        <ele>490.554321</ele>
        <time>2018-03-22T09:06:43Z</time>
      </trkpt>
      <trkpt lat="43.83306" lon="5.39619">
        <ele>482.24</ele>
        <time>2018-03-22T09:08:25Z</time>
      </trkpt>
      <trkpt lat="43.83304" lon="5.39627">
        <ele>482.72</ele>
        <time>2018-03-22T09:08:56Z</time>
      </trkpt>
      <trkpt lat="43.83295" lon="5.39632">
        <ele>487.11618</ele>
        <time>2018-03-22T09:09:42Z</time>
      </trkpt>
      <trkpt lat="43.83295" lon="5.39631">
        <ele>487.153717</ele>
        <time>2018-03-22T09:09:45Z</time>
      </trkpt>
      <trkpt lat="43.83292" lon="5.39639">
        <ele>485.12</ele>
        <time>2018-03-22T09:10:55Z</time>
      </trkpt>
      <trkpt lat="43.83293" lon="5.39638">
        <ele>485.12</ele>
        <time>2018-03-22T09:10:58Z</time>
      </trkpt>
      <trkpt lat="43.8329" lon="5.39635">
        <ele>485.12</ele>
        <time>2018-03-22T09:11:02Z</time>
      </trkpt>
      <trkpt lat="43.8329" lon="5.39636">
        <ele>483.68</ele>
        <time>2018-03-22T09:11:08Z</time>
      </trkpt>
      <trkpt lat="43.8329" lon="5.39636">
        <ele>483.68</ele>
        <time>2018-03-22T09:11:09Z</time>
      </trkpt>
      <trkpt lat="43.8329" lon="5.3964">
        <ele>485.12</ele>
        <time>2018-03-22T09:11:13Z</time>
      </trkpt>
      <trkpt lat="43.83287" lon="5.39642">
        <ele>483.550659</ele>
        <time>2018-03-22T09:11:38Z</time>
      </trkpt>
      <trkpt lat="43.83291" lon="5.39641">
        <ele>486.08</ele>
        <time>2018-03-22T09:11:58Z</time>
      </trkpt>
      <trkpt lat="43.83288" lon="5.39638">
        <ele>486.08</ele>
        <time>2018-03-22T09:12:32Z</time>
      </trkpt>
      <trkpt lat="43.83287" lon="5.3964">
        <ele>486.08</ele>
        <time>2018-03-22T09:13:00Z</time>
      </trkpt>
      <trkpt lat="43.83285" lon="5.39645">
        <ele>486.08</ele>
        <time>2018-03-22T09:13:07Z</time>
      </trkpt>
      <trkpt lat="43.83282" lon="5.39649">
        <ele>486.08</ele>
        <time>2018-03-22T09:13:10Z</time>
      </trkpt>
      <trkpt lat="43.83282" lon="5.39653">
        <ele>486.08</ele>
        <time>2018-03-22T09:13:12Z</time>
      </trkpt>
      <trkpt lat="43.83282" lon="5.39659">
        <ele>486.08</ele>
        <time>2018-03-22T09:13:15Z</time>
      </trkpt>
      <trkpt lat="43.83282" lon="5.39666">
        <ele>486.56</ele>
        <time>2018-03-22T09:13:20Z</time>
      </trkpt>
      <trkpt lat="43.83286" lon="5.39675">
        <ele>482.298157</ele>
        <time>2018-03-22T09:13:31Z</time>
      </trkpt>
      <trkpt lat="43.83295" lon="5.39673">
        <ele>489.93</ele>
        <time>2018-03-22T09:13:43Z</time>
      </trkpt>
      <trkpt lat="43.83298" lon="5.39674">
        <ele>492.33</ele>
        <time>2018-03-22T09:13:51Z</time>
      </trkpt>
      <trkpt lat="43.83303" lon="5.39683">
        <ele>493.77</ele>
        <time>2018-03-22T09:14:02Z</time>
      </trkpt>
      <trkpt lat="43.83306" lon="5.3969">
        <ele>495.22</ele>
        <time>2018-03-22T09:14:13Z</time>
      </trkpt>
      <trkpt lat="43.83306" lon="5.39692">
        <ele>495.22</ele>
        <time>2018-03-22T09:14:14Z</time>
      </trkpt>
      <trkpt lat="43.83311" lon="5.39699">
        <ele>497.62</ele>
        <time>2018-03-22T09:14:27Z</time>
      </trkpt>
      <trkpt lat="43.83312" lon="5.39698">
        <ele>497.62</ele>
        <time>2018-03-22T09:14:29Z</time>
      </trkpt>
      <trkpt lat="43.83315" lon="5.39695">
        <ele>499.06</ele>
        <time>2018-03-22T09:14:39Z</time>
      </trkpt>
      <trkpt lat="43.83315" lon="5.39692">
        <ele>499.06</ele>
        <time>2018-03-22T09:14:49Z</time>
      </trkpt>
      <trkpt lat="43.83316" lon="5.3969">
        <ele>499.06</ele>
        <time>2018-03-22T09:14:52Z</time>
      </trkpt>
      <trkpt lat="43.83315" lon="5.39681">
        <ele>499.06</ele>
        <time>2018-03-22T09:15:00Z</time>
      </trkpt>
      <trkpt lat="43.83314" lon="5.39678">
        <ele>499.06</ele>
        <time>2018-03-22T09:15:04Z</time>
      </trkpt>
      <trkpt lat="43.83313" lon="5.39673">
        <ele>499.06</ele>
        <time>2018-03-22T09:15:09Z</time>
      </trkpt>
      <trkpt lat="43.83309" lon="5.39661">
        <ele>499.06</ele>
        <time>2018-03-22T09:15:22Z</time>
      </trkpt>
      <trkpt lat="43.83307" lon="5.39654">
        <ele>497.62</ele>
        <time>2018-03-22T09:15:31Z</time>
      </trkpt>
      <trkpt lat="43.83308" lon="5.3964">
        <ele>496.66</ele>
        <time>2018-03-22T09:15:42Z</time>
      </trkpt>
      <trkpt lat="43.83311" lon="5.39633">
        <ele>496.66</ele>
        <time>2018-03-22T09:15:48Z</time>
      </trkpt>
      <trkpt lat="43.83312" lon="5.39617">
        <ele>496.66</ele>
        <time>2018-03-22T09:16:02Z</time>
      </trkpt>
      <trkpt lat="43.83311" lon="5.39614">
        <ele>496.66</ele>
        <time>2018-03-22T09:16:05Z</time>
      </trkpt>
      <trkpt lat="43.83308" lon="5.39614">
        <ele>496.66</ele>
        <time>2018-03-22T09:16:17Z</time>
      </trkpt>
      <trkpt lat="43.83307" lon="5.39612">
        <ele>496.66</ele>
        <time>2018-03-22T09:16:42Z</time>
      </trkpt>
      <trkpt lat="43.83309" lon="5.39611">
        <ele>496.66</ele>
        <time>2018-03-22T09:16:57Z</time>
      </trkpt>
      <trkpt lat="43.8331" lon="5.39609">
        <ele>496.66</ele>
        <time>2018-03-22T09:17:00Z</time>
      </trkpt>
      <trkpt lat="43.83305" lon="5.39591">
        <ele>496.18</ele>
        <time>2018-03-22T09:17:15Z</time>
      </trkpt>
      <trkpt lat="43.83305" lon="5.39589">
        <ele>495.7</ele>
        <time>2018-03-22T09:17:17Z</time>
      </trkpt>
      <trkpt lat="43.83298" lon="5.39569">
        <ele>496.18</ele>
        <time>2018-03-22T09:17:31Z</time>
      </trkpt>
      <trkpt lat="43.83296" lon="5.39564">
        <ele>496.18</ele>
        <time>2018-03-22T09:17:36Z</time>
      </trkpt>
      <trkpt lat="43.83279" lon="5.39553">
        <ele>495.7</ele>
        <time>2018-03-22T09:17:51Z</time>
      </trkpt>
      <trkpt lat="43.8327" lon="5.39543">
        <ele>495.22</ele>
        <time>2018-03-22T09:18:02Z</time>
      </trkpt>
      <trkpt lat="43.83263" lon="5.39537">
        <ele>495.22</ele>
        <time>2018-03-22T09:18:10Z</time>
      </trkpt>
      <trkpt lat="43.83254" lon="5.39528">
        <ele>496.66</ele>
        <time>2018-03-22T09:18:19Z</time>
      </trkpt>
      <trkpt lat="43.8325" lon="5.39527">
        <ele>497.14</ele>
        <time>2018-03-22T09:18:22Z</time>
      </trkpt>
      <trkpt lat="43.83241" lon="5.3952">
        <ele>497.62</ele>
        <time>2018-03-22T09:18:33Z</time>
      </trkpt>
      <trkpt lat="43.83231" lon="5.39512">
        <ele>498.1</ele>
        <time>2018-03-22T09:18:44Z</time>
      </trkpt>
      <trkpt lat="43.83231" lon="5.39512">
        <ele>498.1</ele>
        <time>2018-03-22T09:18:45Z</time>
      </trkpt>
      <trkpt lat="43.83227" lon="5.3951">
        <ele>499.06</ele>
        <time>2018-03-22T09:18:59Z</time>
      </trkpt>
      <trkpt lat="43.83227" lon="5.3951">
        <ele>499.06</ele>
        <time>2018-03-22T09:19:07Z</time>
      </trkpt>
      <trkpt lat="43.83222" lon="5.39506">
        <ele>499.06</ele>
        <time>2018-03-22T09:19:21Z</time>
      </trkpt>
      <trkpt lat="43.83221" lon="5.39505">
        <ele>499.06</ele>
        <time>2018-03-22T09:19:29Z</time>
      </trkpt>
      <trkpt lat="43.83217" lon="5.39502">
        <ele>499.54</ele>
        <time>2018-03-22T09:19:33Z</time>
      </trkpt>
      <trkpt lat="43.83205" lon="5.39492">
        <ele>499.54</ele>
        <time>2018-03-22T09:19:47Z</time>
      </trkpt>
      <trkpt lat="43.83196" lon="5.39486">
        <ele>500.98</ele>
        <time>2018-03-22T09:19:57Z</time>
      </trkpt>
      <trkpt lat="43.83192" lon="5.39485">
        <ele>500.98</ele>
        <time>2018-03-22T09:20:12Z</time>
      </trkpt>
      <trkpt lat="43.83178" lon="5.39474">
        <ele>501.95</ele>
        <time>2018-03-22T09:20:27Z</time>
      </trkpt>
      <trkpt lat="43.8316" lon="5.39462">
        <ele>502.91</ele>
        <time>2018-03-22T09:20:45Z</time>
      </trkpt>
      <trkpt lat="43.83155" lon="5.39458">
        <ele>502.91</ele>
        <time>2018-03-22T09:20:51Z</time>
      </trkpt>
      <trkpt lat="43.83143" lon="5.39445">
        <ele>503.39</ele>
        <time>2018-03-22T09:21:05Z</time>
      </trkpt>
      <trkpt lat="43.8313" lon="5.39431">
        <ele>504.35</ele>
        <time>2018-03-22T09:21:21Z</time>
      </trkpt>
      <trkpt lat="43.83121" lon="5.39419">
        <ele>504.35</ele>
        <time>2018-03-22T09:21:34Z</time>
      </trkpt>
      <trkpt lat="43.83109" lon="5.39406">
        <ele>504.35</ele>
        <time>2018-03-22T09:21:49Z</time>
      </trkpt>
      <trkpt lat="43.83092" lon="5.39392">
        <ele>502.91</ele>
        <time>2018-03-22T09:22:06Z</time>
      </trkpt>
      <trkpt lat="43.83078" lon="5.39383">
        <ele>501.95</ele>
        <time>2018-03-22T09:22:21Z</time>
      </trkpt>
      <trkpt lat="43.83073" lon="5.39376">
        <ele>501.95</ele>
        <time>2018-03-22T09:22:28Z</time>
      </trkpt>
      <trkpt lat="43.83066" lon="5.39357">
        <ele>501.46</ele>
        <time>2018-03-22T09:22:44Z</time>
      </trkpt>
      <trkpt lat="43.83066" lon="5.39353">
        <ele>501.46</ele>
        <time>2018-03-22T09:22:47Z</time>
      </trkpt>
      <trkpt lat="43.83063" lon="5.39339">
        <ele>500.98</ele>
        <time>2018-03-22T09:22:55Z</time>
      </trkpt>
      <trkpt lat="43.83055" lon="5.39326">
        <ele>500.98</ele>
        <time>2018-03-22T09:23:05Z</time>
      </trkpt>
      <trkpt lat="43.83049" lon="5.39321">
        <ele>500.98</ele>
        <time>2018-03-22T09:23:12Z</time>
      </trkpt>
      <trkpt lat="43.83042" lon="5.39312">
        <ele>502.43</ele>
        <time>2018-03-22T09:23:23Z</time>
      </trkpt>
      <trkpt lat="43.83039" lon="5.39309">
        <ele>502.91</ele>
        <time>2018-03-22T09:23:39Z</time>
      </trkpt>
      <trkpt lat="43.8304" lon="5.39309">
        <ele>502.43</ele>
        <time>2018-03-22T09:23:50Z</time>
      </trkpt>
      <trkpt lat="43.8304" lon="5.39308">
        <ele>502.43</ele>
        <time>2018-03-22T09:23:52Z</time>
      </trkpt>
      <trkpt lat="43.83038" lon="5.39302">
        <ele>503.39</ele>
        <time>2018-03-22T09:23:59Z</time>
      </trkpt>
      <trkpt lat="43.83038" lon="5.39298">
        <ele>503.39</ele>
        <time>2018-03-22T09:24:02Z</time>
      </trkpt>
      <trkpt lat="43.83036" lon="5.39291">
        <ele>503.87</ele>
        <time>2018-03-22T09:24:08Z</time>
      </trkpt>
      <trkpt lat="43.83036" lon="5.39271">
        <ele>503.87</ele>
        <time>2018-03-22T09:24:21Z</time>
      </trkpt>
      <trkpt lat="43.83036" lon="5.39269">
        <ele>503.87</ele>
        <time>2018-03-22T09:24:22Z</time>
      </trkpt>
      <trkpt lat="43.83028" lon="5.3925">
        <ele>503.87</ele>
        <time>2018-03-22T09:24:36Z</time>
      </trkpt>
      <trkpt lat="43.83022" lon="5.39241">
        <ele>504.35</ele>
        <time>2018-03-22T09:24:45Z</time>
      </trkpt>
      <trkpt lat="43.83011" lon="5.39237">
        <ele>504.35</ele>
        <time>2018-03-22T09:24:57Z</time>
      </trkpt>
      <trkpt lat="43.82997" lon="5.3923">
        <ele>504.35</ele>
        <time>2018-03-22T09:25:10Z</time>
      </trkpt>
      <trkpt lat="43.82987" lon="5.39221">
        <ele>504.35</ele>
        <time>2018-03-22T09:25:22Z</time>
      </trkpt>
      <trkpt lat="43.82981" lon="5.39205">
        <ele>504.35</ele>
        <time>2018-03-22T09:25:36Z</time>
      </trkpt>
      <trkpt lat="43.82978" lon="5.39189">
        <ele>504.35</ele>
        <time>2018-03-22T09:25:50Z</time>
      </trkpt>
      <trkpt lat="43.82983" lon="5.39171">
        <ele>503.39</ele>
        <time>2018-03-22T09:26:05Z</time>
      </trkpt>
      <trkpt lat="43.82981" lon="5.39168">
        <ele>503.39</ele>
        <time>2018-03-22T09:26:36Z</time>
      </trkpt>
      <trkpt lat="43.82981" lon="5.39164">
        <ele>503.39</ele>
        <time>2018-03-22T09:26:55Z</time>
      </trkpt>
      <trkpt lat="43.82979" lon="5.39151">
        <ele>502.91</ele>
        <time>2018-03-22T09:27:04Z</time>
      </trkpt>
      <trkpt lat="43.82973" lon="5.39136">
        <ele>503.87</ele>
        <time>2018-03-22T09:27:15Z</time>
      </trkpt>
      <trkpt lat="43.82966" lon="5.39126">
        <ele>502.43</ele>
        <time>2018-03-22T09:27:27Z</time>
      </trkpt>
      <trkpt lat="43.82965" lon="5.39125">
        <ele>502.43</ele>
        <time>2018-03-22T09:27:28Z</time>
      </trkpt>
      <trkpt lat="43.82959" lon="5.39112">
        <ele>501.46</ele>
        <time>2018-03-22T09:27:43Z</time>
      </trkpt>
      <trkpt lat="43.82958" lon="5.39109">
        <ele>500.5</ele>
        <time>2018-03-22T09:27:45Z</time>
      </trkpt>
      <trkpt lat="43.82944" lon="5.39095">
        <ele>499.54</ele>
        <time>2018-03-22T09:28:03Z</time>
      </trkpt>
      <trkpt lat="43.82935" lon="5.39081">
        <ele>499.06</ele>
        <time>2018-03-22T09:28:16Z</time>
      </trkpt>
      <trkpt lat="43.82933" lon="5.39078">
        <ele>498.1</ele>
        <time>2018-03-22T09:28:18Z</time>
      </trkpt>
      <trkpt lat="43.82928" lon="5.39062">
        <ele>498.1</ele>
        <time>2018-03-22T09:28:29Z</time>
      </trkpt>
      <trkpt lat="43.82921" lon="5.39048">
        <ele>497.14</ele>
        <time>2018-03-22T09:28:40Z</time>
      </trkpt>
      <trkpt lat="43.82912" lon="5.39033">
        <ele>496.18</ele>
        <time>2018-03-22T09:28:53Z</time>
      </trkpt>
      <trkpt lat="43.82907" lon="5.39025">
        <ele>496.18</ele>
        <time>2018-03-22T09:29:00Z</time>
      </trkpt>
      <trkpt lat="43.82896" lon="5.39011">
        <ele>496.18</ele>
        <time>2018-03-22T09:29:14Z</time>
      </trkpt>
      <trkpt lat="43.82882" lon="5.38994">
        <ele>495.22</ele>
        <time>2018-03-22T09:29:29Z</time>
      </trkpt>
      <trkpt lat="43.82881" lon="5.38993">
        <ele>495.22</ele>
        <time>2018-03-22T09:29:30Z</time>
      </trkpt>
      <trkpt lat="43.82861" lon="5.38981">
        <ele>494.74</ele>
        <time>2018-03-22T09:29:48Z</time>
      </trkpt>
      <trkpt lat="43.82846" lon="5.38973">
        <ele>496.18</ele>
        <time>2018-03-22T09:30:03Z</time>
      </trkpt>
      <trkpt lat="43.82845" lon="5.38973">
        <ele>496.18</ele>
        <time>2018-03-22T09:30:04Z</time>
      </trkpt>
      <trkpt lat="43.82834" lon="5.38963">
        <ele>496.66</ele>
        <time>2018-03-22T09:30:17Z</time>
      </trkpt>
      <trkpt lat="43.82819" lon="5.38957">
        <ele>497.62</ele>
        <time>2018-03-22T09:30:34Z</time>
      </trkpt>
      <trkpt lat="43.82811" lon="5.38956">
        <ele>498.1</ele>
        <time>2018-03-22T09:30:42Z</time>
      </trkpt>
      <trkpt lat="43.82805" lon="5.38953">
        <ele>498.1</ele>
        <time>2018-03-22T09:30:48Z</time>
      </trkpt>
      <trkpt lat="43.8279" lon="5.3895">
        <ele>499.54</ele>
        <time>2018-03-22T09:31:03Z</time>
      </trkpt>
      <trkpt lat="43.82786" lon="5.38948">
        <ele>500.02</ele>
        <time>2018-03-22T09:31:07Z</time>
      </trkpt>
      <trkpt lat="43.82773" lon="5.38943">
        <ele>501.95</ele>
        <time>2018-03-22T09:31:22Z</time>
      </trkpt>
      <trkpt lat="43.82765" lon="5.38939">
        <ele>502.91</ele>
        <time>2018-03-22T09:31:30Z</time>
      </trkpt>
      <trkpt lat="43.8276" lon="5.38937">
        <ele>503.39</ele>
        <time>2018-03-22T09:31:35Z</time>
      </trkpt>
      <trkpt lat="43.82751" lon="5.38933">
        <ele>504.83</ele>
        <time>2018-03-22T09:31:49Z</time>
      </trkpt>
      <trkpt lat="43.82744" lon="5.38932">
        <ele>505.31</ele>
        <time>2018-03-22T09:31:57Z</time>
      </trkpt>
      <trkpt lat="43.82734" lon="5.38933">
        <ele>506.27</ele>
        <time>2018-03-22T09:32:11Z</time>
      </trkpt>
      <trkpt lat="43.82723" lon="5.38934">
        <ele>507.23</ele>
        <time>2018-03-22T09:32:24Z</time>
      </trkpt>
      <trkpt lat="43.82715" lon="5.38933">
        <ele>508.67</ele>
        <time>2018-03-22T09:32:36Z</time>
      </trkpt>
      <trkpt lat="43.82704" lon="5.38935">
        <ele>509.16</ele>
        <time>2018-03-22T09:32:51Z</time>
      </trkpt>
      <trkpt lat="43.82688" lon="5.38935">
        <ele>510.12</ele>
        <time>2018-03-22T09:33:06Z</time>
      </trkpt>
      <trkpt lat="43.82673" lon="5.38934">
        <ele>510.6</ele>
        <time>2018-03-22T09:33:19Z</time>
      </trkpt>
      <trkpt lat="43.82652" lon="5.38931">
        <ele>511.08</ele>
        <time>2018-03-22T09:33:38Z</time>
      </trkpt>
      <trkpt lat="43.8264" lon="5.38924">
        <ele>512.04</ele>
        <time>2018-03-22T09:33:50Z</time>
      </trkpt>
      <trkpt lat="43.82636" lon="5.38924">
        <ele>512.04</ele>
        <time>2018-03-22T09:35:46Z</time>
      </trkpt>
      <trkpt lat="43.82637" lon="5.38925">
        <ele>512.04</ele>
        <time>2018-03-22T09:36:45Z</time>
      </trkpt>
      <trkpt lat="43.82638" lon="5.38924">
        <ele>512.04</ele>
        <time>2018-03-22T09:37:02Z</time>
      </trkpt>
      <trkpt lat="43.82637" lon="5.38923">
        <ele>512.04</ele>
        <time>2018-03-22T09:37:27Z</time>
      </trkpt>
      <trkpt lat="43.82636" lon="5.38924">
        <ele>512.52</ele>
        <time>2018-03-22T09:38:47Z</time>
      </trkpt>
      <trkpt lat="43.82635" lon="5.38924">
        <ele>512.52</ele>
        <time>2018-03-22T09:39:27Z</time>
      </trkpt>
      <trkpt lat="43.82636" lon="5.38924">
        <ele>512.52</ele>
        <time>2018-03-22T09:40:05Z</time>
      </trkpt>
      <trkpt lat="43.82633" lon="5.38924">
        <ele>511.08</ele>
        <time>2018-03-22T09:42:00Z</time>
      </trkpt>
      <trkpt lat="43.82638" lon="5.38924">
        <ele>512.52</ele>
        <time>2018-03-22T09:42:16Z</time>
      </trkpt>
      <trkpt lat="43.82635" lon="5.38924">
        <ele>512.52</ele>
        <time>2018-03-22T09:42:39Z</time>
      </trkpt>
      <trkpt lat="43.82634" lon="5.38924">
        <ele>512.52</ele>
        <time>2018-03-22T09:42:55Z</time>
      </trkpt>
      <trkpt lat="43.82633" lon="5.38923">
        <ele>512.04</ele>
        <time>2018-03-22T09:43:31Z</time>
      </trkpt>
      <trkpt lat="43.82632" lon="5.38925">
        <ele>511.08</ele>
        <time>2018-03-22T09:43:37Z</time>
      </trkpt>
      <trkpt lat="43.82627" lon="5.38929">
        <ele>510.12</ele>
        <time>2018-03-22T09:43:48Z</time>
      </trkpt>
      <trkpt lat="43.8262" lon="5.38932">
        <ele>509.16</ele>
        <time>2018-03-22T09:44:03Z</time>
      </trkpt>
      <trkpt lat="43.82612" lon="5.38936">
        <ele>506.75</ele>
        <time>2018-03-22T09:44:16Z</time>
      </trkpt>
      <trkpt lat="43.82612" lon="5.38938">
        <ele>507.23</ele>
        <time>2018-03-22T09:44:32Z</time>
      </trkpt>
      <trkpt lat="43.8261" lon="5.38944">
        <ele>506.27</ele>
        <time>2018-03-22T09:44:52Z</time>
      </trkpt>
      <trkpt lat="43.82612" lon="5.3896">
        <ele>505.31</ele>
        <time>2018-03-22T09:45:04Z</time>
      </trkpt>
      <trkpt lat="43.82608" lon="5.3896">
        <ele>503.39</ele>
        <time>2018-03-22T09:45:17Z</time>
      </trkpt>
      <trkpt lat="43.826" lon="5.38959">
        <ele>502.43</ele>
        <time>2018-03-22T09:45:25Z</time>
      </trkpt>
      <trkpt lat="43.82592" lon="5.3895">
        <ele>499.54</ele>
        <time>2018-03-22T09:45:38Z</time>
      </trkpt>
      <trkpt lat="43.82591" lon="5.38949">
        <ele>499.54</ele>
        <time>2018-03-22T09:45:39Z</time>
      </trkpt>
      <trkpt lat="43.82587" lon="5.38941">
        <ele>498.58</ele>
        <time>2018-03-22T09:45:47Z</time>
      </trkpt>
      <trkpt lat="43.82582" lon="5.38926">
        <ele>497.62</ele>
        <time>2018-03-22T09:45:59Z</time>
      </trkpt>
      <trkpt lat="43.82579" lon="5.38921">
        <ele>496.66</ele>
        <time>2018-03-22T09:46:10Z</time>
      </trkpt>
      <trkpt lat="43.82578" lon="5.3892">
        <ele>496.66</ele>
        <time>2018-03-22T09:46:11Z</time>
      </trkpt>
      <trkpt lat="43.82573" lon="5.38912">
        <ele>494.74</ele>
        <time>2018-03-22T09:46:22Z</time>
      </trkpt>
      <trkpt lat="43.82571" lon="5.38902">
        <ele>493.77</ele>
        <time>2018-03-22T09:46:28Z</time>
      </trkpt>
      <trkpt lat="43.82568" lon="5.38897">
        <ele>493.77</ele>
        <time>2018-03-22T09:46:36Z</time>
      </trkpt>
      <trkpt lat="43.82565" lon="5.38889">
        <ele>492.33</ele>
        <time>2018-03-22T09:46:45Z</time>
      </trkpt>
      <trkpt lat="43.82559" lon="5.38875">
        <ele>490.89</ele>
        <time>2018-03-22T09:46:57Z</time>
      </trkpt>
      <trkpt lat="43.8255" lon="5.38865">
        <ele>488.97</ele>
        <time>2018-03-22T09:47:10Z</time>
      </trkpt>
      <trkpt lat="43.82546" lon="5.3886">
        <ele>488.01</ele>
        <time>2018-03-22T09:47:17Z</time>
      </trkpt>
      <trkpt lat="43.82543" lon="5.38856">
        <ele>487.05</ele>
        <time>2018-03-22T09:47:21Z</time>
      </trkpt>
      <trkpt lat="43.82538" lon="5.38854">
        <ele>486.08</ele>
        <time>2018-03-22T09:47:27Z</time>
      </trkpt>
      <trkpt lat="43.82536" lon="5.38859">
        <ele>485.12</ele>
        <time>2018-03-22T09:47:37Z</time>
      </trkpt>
      <trkpt lat="43.82543" lon="5.38865">
        <ele>482.24</ele>
        <time>2018-03-22T09:47:51Z</time>
      </trkpt>
      <trkpt lat="43.82545" lon="5.3888">
        <ele>479.84</ele>
        <time>2018-03-22T09:48:04Z</time>
      </trkpt>
      <trkpt lat="43.82545" lon="5.3889">
        <ele>478.39</ele>
        <time>2018-03-22T09:48:13Z</time>
      </trkpt>
      <trkpt lat="43.82547" lon="5.38904">
        <ele>476.95</ele>
        <time>2018-03-22T09:48:24Z</time>
      </trkpt>
      <trkpt lat="43.82547" lon="5.38906">
        <ele>476.47</ele>
        <time>2018-03-22T09:48:25Z</time>
      </trkpt>
      <trkpt lat="43.82548" lon="5.38916">
        <ele>474.55</ele>
        <time>2018-03-22T09:48:38Z</time>
      </trkpt>
      <trkpt lat="43.82546" lon="5.38919">
        <ele>474.55</ele>
        <time>2018-03-22T09:48:57Z</time>
      </trkpt>
      <trkpt lat="43.82547" lon="5.38918">
        <ele>474.55</ele>
        <time>2018-03-22T09:49:10Z</time>
      </trkpt>
      <trkpt lat="43.82547" lon="5.38919">
        <ele>475.99</ele>
        <time>2018-03-22T09:49:17Z</time>
      </trkpt>
      <trkpt lat="43.82547" lon="5.38918">
        <ele>475.99</ele>
        <time>2018-03-22T09:49:40Z</time>
      </trkpt>
      <trkpt lat="43.82549" lon="5.38916">
        <ele>475.99</ele>
        <time>2018-03-22T09:49:51Z</time>
      </trkpt>
      <trkpt lat="43.82549" lon="5.38913">
        <ele>475.03</ele>
        <time>2018-03-22T09:49:55Z</time>
      </trkpt>
      <trkpt lat="43.82545" lon="5.38905">
        <ele>474.55</ele>
        <time>2018-03-22T09:50:05Z</time>
      </trkpt>
      <trkpt lat="43.82547" lon="5.38902">
        <ele>475.51</ele>
        <time>2018-03-22T09:50:18Z</time>
      </trkpt>
      <trkpt lat="43.82548" lon="5.38902">
        <ele>475.03</ele>
        <time>2018-03-22T09:50:51Z</time>
      </trkpt>
      <trkpt lat="43.82548" lon="5.38903">
        <ele>475.03</ele>
        <time>2018-03-22T09:51:16Z</time>
      </trkpt>
      <trkpt lat="43.82547" lon="5.38905">
        <ele>475.03</ele>
        <time>2018-03-22T09:51:42Z</time>
      </trkpt>
      <trkpt lat="43.82548" lon="5.38904">
        <ele>475.03</ele>
        <time>2018-03-22T09:52:10Z</time>
      </trkpt>
      <trkpt lat="43.82547" lon="5.38904">
        <ele>475.03</ele>
        <time>2018-03-22T09:52:39Z</time>
      </trkpt>
      <trkpt lat="43.82548" lon="5.38905">
        <ele>475.51</ele>
        <time>2018-03-22T09:53:03Z</time>
      </trkpt>
      <trkpt lat="43.82546" lon="5.38903">
        <ele>475.51</ele>
        <time>2018-03-22T09:53:24Z</time>
      </trkpt>
      <trkpt lat="43.82548" lon="5.38902">
        <ele>475.99</ele>
        <time>2018-03-22T09:53:45Z</time>
      </trkpt>
      <trkpt lat="43.82547" lon="5.38907">
        <ele>475.99</ele>
        <time>2018-03-22T09:54:06Z</time>
      </trkpt>
      <trkpt lat="43.82548" lon="5.38908">
        <ele>475.99</ele>
        <time>2018-03-22T09:54:31Z</time>
      </trkpt>
      <trkpt lat="43.82548" lon="5.38911">
        <ele>474.55</ele>
        <time>2018-03-22T09:54:54Z</time>
      </trkpt>
      <trkpt lat="43.82544" lon="5.38907">
        <ele>474.55</ele>
        <time>2018-03-22T09:55:11Z</time>
      </trkpt>
      <trkpt lat="43.82543" lon="5.38903">
        <ele>475.99</ele>
        <time>2018-03-22T09:55:23Z</time>
      </trkpt>
      <trkpt lat="43.82537" lon="5.38894">
        <ele>473.11</ele>
        <time>2018-03-22T09:55:38Z</time>
      </trkpt>
      <trkpt lat="43.8253" lon="5.38896">
        <ele>471.18</ele>
        <time>2018-03-22T09:55:53Z</time>
      </trkpt>
      <trkpt lat="43.82531" lon="5.38897">
        <ele>471.18</ele>
        <time>2018-03-22T09:55:54Z</time>
      </trkpt>
      <trkpt lat="43.82536" lon="5.38906">
        <ele>469.74</ele>
        <time>2018-03-22T09:56:08Z</time>
      </trkpt>
      <trkpt lat="43.82536" lon="5.38908">
        <ele>468.78</ele>
        <time>2018-03-22T09:56:12Z</time>
      </trkpt>
      <trkpt lat="43.82535" lon="5.38914">
        <ele>468.78</ele>
        <time>2018-03-22T09:56:17Z</time>
      </trkpt>
      <trkpt lat="43.82529" lon="5.38905">
        <ele>466.86</ele>
        <time>2018-03-22T09:56:31Z</time>
      </trkpt>
      <trkpt lat="43.82524" lon="5.389">
        <ele>465.9</ele>
        <time>2018-03-22T09:56:42Z</time>
      </trkpt>
      <trkpt lat="43.82519" lon="5.38899">
        <ele>464.93</ele>
        <time>2018-03-22T09:56:50Z</time>
      </trkpt>
      <trkpt lat="43.82512" lon="5.38891">
        <ele>463.49</ele>
        <time>2018-03-22T09:57:02Z</time>
      </trkpt>
      <trkpt lat="43.82509" lon="5.38885">
        <ele>461.57</ele>
        <time>2018-03-22T09:57:12Z</time>
      </trkpt>
      <trkpt lat="43.82502" lon="5.38878">
        <ele>459.65</ele>
        <time>2018-03-22T09:57:25Z</time>
      </trkpt>
      <trkpt lat="43.82493" lon="5.38874">
        <ele>457.72</ele>
        <time>2018-03-22T09:57:38Z</time>
      </trkpt>
      <trkpt lat="43.82485" lon="5.38866">
        <ele>455.32</ele>
        <time>2018-03-22T09:57:52Z</time>
      </trkpt>
      <trkpt lat="43.82481" lon="5.38872">
        <ele>453.4</ele>
        <time>2018-03-22T09:58:07Z</time>
      </trkpt>
      <trkpt lat="43.82485" lon="5.38883">
        <ele>451</ele>
        <time>2018-03-22T09:58:20Z</time>
      </trkpt>
      <trkpt lat="43.82487" lon="5.38896">
        <ele>449.55</ele>
        <time>2018-03-22T09:58:34Z</time>
      </trkpt>
      <trkpt lat="43.82493" lon="5.38898">
        <ele>449.07</ele>
        <time>2018-03-22T09:58:48Z</time>
      </trkpt>
      <trkpt lat="43.82495" lon="5.38914">
        <ele>446.19</ele>
        <time>2018-03-22T09:59:03Z</time>
      </trkpt>
      <trkpt lat="43.82498" lon="5.38926">
        <ele>445.23</ele>
        <time>2018-03-22T09:59:13Z</time>
      </trkpt>
      <trkpt lat="43.82504" lon="5.3894">
        <ele>443.79</ele>
        <time>2018-03-22T09:59:26Z</time>
      </trkpt>
      <trkpt lat="43.82504" lon="5.38941">
        <ele>443.79</ele>
        <time>2018-03-22T09:59:27Z</time>
      </trkpt>
      <trkpt lat="43.82499" lon="5.3894">
        <ele>442.82</ele>
        <time>2018-03-22T09:59:41Z</time>
      </trkpt>
      <trkpt lat="43.82496" lon="5.38936">
        <ele>442.34</ele>
        <time>2018-03-22T09:59:54Z</time>
      </trkpt>
      <trkpt lat="43.82492" lon="5.38931">
        <ele>442.34</ele>
        <time>2018-03-22T09:59:58Z</time>
      </trkpt>
      <trkpt lat="43.82484" lon="5.38917">
        <ele>441.86</ele>
        <time>2018-03-22T10:00:10Z</time>
      </trkpt>
      <trkpt lat="43.82476" lon="5.38903">
        <ele>441.86</ele>
        <time>2018-03-22T10:00:25Z</time>
      </trkpt>
      <trkpt lat="43.82467" lon="5.38891">
        <ele>439.94</ele>
        <time>2018-03-22T10:00:38Z</time>
      </trkpt>
      <trkpt lat="43.82462" lon="5.38879">
        <ele>439.46</ele>
        <time>2018-03-22T10:00:47Z</time>
      </trkpt>
      <trkpt lat="43.82461" lon="5.38874">
        <ele>438.98</ele>
        <time>2018-03-22T10:00:53Z</time>
      </trkpt>
      <trkpt lat="43.8246" lon="5.38872">
        <ele>438.98</ele>
        <time>2018-03-22T10:00:54Z</time>
      </trkpt>
      <trkpt lat="43.82459" lon="5.38868">
        <ele>438.02</ele>
        <time>2018-03-22T10:00:58Z</time>
      </trkpt>
      <trkpt lat="43.82456" lon="5.38865">
        <ele>437.54</ele>
        <time>2018-03-22T10:01:01Z</time>
      </trkpt>
      <trkpt lat="43.82455" lon="5.38864">
        <ele>437.54</ele>
        <time>2018-03-22T10:01:02Z</time>
      </trkpt>
      <trkpt lat="43.8245" lon="5.38862">
        <ele>437.54</ele>
        <time>2018-03-22T10:01:07Z</time>
      </trkpt>
      <trkpt lat="43.82449" lon="5.38861">
        <ele>437.54</ele>
        <time>2018-03-22T10:01:08Z</time>
      </trkpt>
      <trkpt lat="43.82439" lon="5.38853">
        <ele>437.06</ele>
        <time>2018-03-22T10:01:19Z</time>
      </trkpt>
      <trkpt lat="43.82433" lon="5.38838">
        <ele>437.06</ele>
        <time>2018-03-22T10:01:33Z</time>
      </trkpt>
      <trkpt lat="43.82428" lon="5.38829">
        <ele>438.02</ele>
        <time>2018-03-22T10:01:41Z</time>
      </trkpt>
      <trkpt lat="43.8242" lon="5.38822">
        <ele>438.5</ele>
        <time>2018-03-22T10:01:52Z</time>
      </trkpt>
      <trkpt lat="43.82419" lon="5.38821">
        <ele>438.5</ele>
        <time>2018-03-22T10:01:53Z</time>
      </trkpt>
      <trkpt lat="43.82412" lon="5.38811">
        <ele>438.5</ele>
        <time>2018-03-22T10:02:04Z</time>
      </trkpt>
      <trkpt lat="43.8241" lon="5.38809">
        <ele>438.5</ele>
        <time>2018-03-22T10:02:05Z</time>
      </trkpt>
      <trkpt lat="43.82409" lon="5.38809">
        <ele>438.5</ele>
        <time>2018-03-22T10:02:06Z</time>
      </trkpt>
      <trkpt lat="43.82408" lon="5.38808">
        <ele>438.5</ele>
        <time>2018-03-22T10:02:07Z</time>
      </trkpt>
      <trkpt lat="43.82405" lon="5.38805">
        <ele>438.5</ele>
        <time>2018-03-22T10:02:11Z</time>
      </trkpt>
      <trkpt lat="43.82404" lon="5.38804">
        <ele>438.5</ele>
        <time>2018-03-22T10:02:12Z</time>
      </trkpt>
      <trkpt lat="43.82402" lon="5.38803">
        <ele>438.5</ele>
        <time>2018-03-22T10:02:13Z</time>
      </trkpt>
      <trkpt lat="43.82401" lon="5.38802">
        <ele>438.5</ele>
        <time>2018-03-22T10:02:14Z</time>
      </trkpt>
      <trkpt lat="43.82397" lon="5.388">
        <ele>437.06</ele>
        <time>2018-03-22T10:02:19Z</time>
      </trkpt>
      <trkpt lat="43.8239" lon="5.38792">
        <ele>435.61</ele>
        <time>2018-03-22T10:02:31Z</time>
      </trkpt>
      <trkpt lat="43.82383" lon="5.38785">
        <ele>433.21</ele>
        <time>2018-03-22T10:02:45Z</time>
      </trkpt>
      <trkpt lat="43.82375" lon="5.38773">
        <ele>430.81</ele>
        <time>2018-03-22T10:02:58Z</time>
      </trkpt>
      <trkpt lat="43.82368" lon="5.38764">
        <ele>427.44</ele>
        <time>2018-03-22T10:03:13Z</time>
      </trkpt>
      <trkpt lat="43.82359" lon="5.38756">
        <ele>425.04</ele>
        <time>2018-03-22T10:03:26Z</time>
      </trkpt>
      <trkpt lat="43.82351" lon="5.38751">
        <ele>423.12</ele>
        <time>2018-03-22T10:03:37Z</time>
      </trkpt>
      <trkpt lat="43.82349" lon="5.3875">
        <ele>422.64</ele>
        <time>2018-03-22T10:03:40Z</time>
      </trkpt>
      <trkpt lat="43.82348" lon="5.3875">
        <ele>422.16</ele>
        <time>2018-03-22T10:03:41Z</time>
      </trkpt>
      <trkpt lat="43.82336" lon="5.38744">
        <ele>420.71</ele>
        <time>2018-03-22T10:03:54Z</time>
      </trkpt>
      <trkpt lat="43.82327" lon="5.38739">
        <ele>419.75</ele>
        <time>2018-03-22T10:04:07Z</time>
      </trkpt>
      <trkpt lat="43.82321" lon="5.3873">
        <ele>417.35</ele>
        <time>2018-03-22T10:04:18Z</time>
      </trkpt>
      <trkpt lat="43.8232" lon="5.38728">
        <ele>417.35</ele>
        <time>2018-03-22T10:04:19Z</time>
      </trkpt>
      <trkpt lat="43.82315" lon="5.38722">
        <ele>416.39</ele>
        <time>2018-03-22T10:04:30Z</time>
      </trkpt>
      <trkpt lat="43.82316" lon="5.38718">
        <ele>415.91</ele>
        <time>2018-03-22T10:04:46Z</time>
      </trkpt>
      <trkpt lat="43.82315" lon="5.38722">
        <ele>415.43</ele>
        <time>2018-03-22T10:04:56Z</time>
      </trkpt>
      <trkpt lat="43.82316" lon="5.38724">
        <ele>415.43</ele>
        <time>2018-03-22T10:04:57Z</time>
      </trkpt>
      <trkpt lat="43.82316" lon="5.38726">
        <ele>415.43</ele>
        <time>2018-03-22T10:04:58Z</time>
      </trkpt>
      <trkpt lat="43.82316" lon="5.38727">
        <ele>415.43</ele>
        <time>2018-03-22T10:04:59Z</time>
      </trkpt>
      <trkpt lat="43.8232" lon="5.38745">
        <ele>414.95</ele>
        <time>2018-03-22T10:05:13Z</time>
      </trkpt>
      <trkpt lat="43.82323" lon="5.38748">
        <ele>413.98</ele>
        <time>2018-03-22T10:05:16Z</time>
      </trkpt>
      <trkpt lat="43.82328" lon="5.38758">
        <ele>413.02</ele>
        <time>2018-03-22T10:05:25Z</time>
      </trkpt>
      <trkpt lat="43.82334" lon="5.38775">
        <ele>413.02</ele>
        <time>2018-03-22T10:05:38Z</time>
      </trkpt>
      <trkpt lat="43.82325" lon="5.38786">
        <ele>413.02</ele>
        <time>2018-03-22T10:05:51Z</time>
      </trkpt>
      <trkpt lat="43.82321" lon="5.38787">
        <ele>413.98</ele>
        <time>2018-03-22T10:05:56Z</time>
      </trkpt>
      <trkpt lat="43.82319" lon="5.38788">
        <ele>413.98</ele>
        <time>2018-03-22T10:05:57Z</time>
      </trkpt>
      <trkpt lat="43.82316" lon="5.38786">
        <ele>414.47</ele>
        <time>2018-03-22T10:06:09Z</time>
      </trkpt>
      <trkpt lat="43.82312" lon="5.38786">
        <ele>414.95</ele>
        <time>2018-03-22T10:06:20Z</time>
      </trkpt>
      <trkpt lat="43.82305" lon="5.38789">
        <ele>416.87</ele>
        <time>2018-03-22T10:06:30Z</time>
      </trkpt>
      <trkpt lat="43.82294" lon="5.3879">
        <ele>418.79</ele>
        <time>2018-03-22T10:06:45Z</time>
      </trkpt>
      <trkpt lat="43.82291" lon="5.38794">
        <ele>419.75</ele>
        <time>2018-03-22T10:06:51Z</time>
      </trkpt>
      <trkpt lat="43.82283" lon="5.38799">
        <ele>421.19</ele>
        <time>2018-03-22T10:07:03Z</time>
      </trkpt>
      <trkpt lat="43.82278" lon="5.38805">
        <ele>422.16</ele>
        <time>2018-03-22T10:07:18Z</time>
      </trkpt>
      <trkpt lat="43.82276" lon="5.38805">
        <ele>422.16</ele>
        <time>2018-03-22T10:07:33Z</time>
      </trkpt>
      <trkpt lat="43.82269" lon="5.38812">
        <ele>423.12</ele>
        <time>2018-03-22T10:07:47Z</time>
      </trkpt>
      <trkpt lat="43.82264" lon="5.38824">
        <ele>424.08</ele>
        <time>2018-03-22T10:08:00Z</time>
      </trkpt>
      <trkpt lat="43.82257" lon="5.38833">
        <ele>425.52</ele>
        <time>2018-03-22T10:08:17Z</time>
      </trkpt>
      <trkpt lat="43.82256" lon="5.38833">
        <ele>425.52</ele>
        <time>2018-03-22T10:08:36Z</time>
      </trkpt>
      <trkpt lat="43.82256" lon="5.38832">
        <ele>425.52</ele>
        <time>2018-03-22T10:09:02Z</time>
      </trkpt>
      <trkpt lat="43.82249" lon="5.38823">
        <ele>425.04</ele>
        <time>2018-03-22T10:09:13Z</time>
      </trkpt>
      <trkpt lat="43.82248" lon="5.38821">
        <ele>425.04</ele>
        <time>2018-03-22T10:09:14Z</time>
      </trkpt>
      <trkpt lat="43.82244" lon="5.38806">
        <ele>425.04</ele>
        <time>2018-03-22T10:09:26Z</time>
      </trkpt>
      <trkpt lat="43.82239" lon="5.38788">
        <ele>424.56</ele>
        <time>2018-03-22T10:09:40Z</time>
      </trkpt>
      <trkpt lat="43.82235" lon="5.38772">
        <ele>424.56</ele>
        <time>2018-03-22T10:09:52Z</time>
      </trkpt>
      <trkpt lat="43.82231" lon="5.38759">
        <ele>424.56</ele>
        <time>2018-03-22T10:10:01Z</time>
      </trkpt>
      <trkpt lat="43.82231" lon="5.38758">
        <ele>424.56</ele>
        <time>2018-03-22T10:10:02Z</time>
      </trkpt>
      <trkpt lat="43.82225" lon="5.38743">
        <ele>424.56</ele>
        <time>2018-03-22T10:10:14Z</time>
      </trkpt>
      <trkpt lat="43.82222" lon="5.3873">
        <ele>426</ele>
        <time>2018-03-22T10:10:24Z</time>
      </trkpt>
      <trkpt lat="43.82214" lon="5.38711">
        <ele>426.96</ele>
        <time>2018-03-22T10:10:40Z</time>
      </trkpt>
      <trkpt lat="43.82211" lon="5.3871">
        <ele>427.44</ele>
        <time>2018-03-22T10:10:43Z</time>
      </trkpt>
      <trkpt lat="43.82211" lon="5.38711">
        <ele>427.44</ele>
        <time>2018-03-22T10:10:44Z</time>
      </trkpt>
      <trkpt lat="43.82213" lon="5.38724">
        <ele>428.89</ele>
        <time>2018-03-22T10:10:58Z</time>
      </trkpt>
      <trkpt lat="43.82215" lon="5.38738">
        <ele>430.33</ele>
        <time>2018-03-22T10:11:20Z</time>
      </trkpt>
      <trkpt lat="43.82214" lon="5.38749">
        <ele>430.81</ele>
        <time>2018-03-22T10:11:39Z</time>
      </trkpt>
      <trkpt lat="43.82216" lon="5.38766">
        <ele>431.77</ele>
        <time>2018-03-22T10:11:51Z</time>
      </trkpt>
      <trkpt lat="43.82216" lon="5.38767">
        <ele>431.77</ele>
        <time>2018-03-22T10:11:52Z</time>
      </trkpt>
      <trkpt lat="43.82217" lon="5.38778">
        <ele>433.21</ele>
        <time>2018-03-22T10:12:02Z</time>
      </trkpt>
      <trkpt lat="43.82215" lon="5.388">
        <ele>434.65</ele>
        <time>2018-03-22T10:12:18Z</time>
      </trkpt>
      <trkpt lat="43.82216" lon="5.3882">
        <ele>436.1</ele>
        <time>2018-03-22T10:12:33Z</time>
      </trkpt>
      <trkpt lat="43.82215" lon="5.38837">
        <ele>437.54</ele>
        <time>2018-03-22T10:12:48Z</time>
      </trkpt>
      <trkpt lat="43.82219" lon="5.38854">
        <ele>438.98</ele>
        <time>2018-03-22T10:13:03Z</time>
      </trkpt>
      <trkpt lat="43.82223" lon="5.38871">
        <ele>441.38</ele>
        <time>2018-03-22T10:13:22Z</time>
      </trkpt>
      <trkpt lat="43.82226" lon="5.38874">
        <ele>441.38</ele>
        <time>2018-03-22T10:13:44Z</time>
      </trkpt>
      <trkpt lat="43.82229" lon="5.38889">
        <ele>442.82</ele>
        <time>2018-03-22T10:13:56Z</time>
      </trkpt>
      <trkpt lat="43.8223" lon="5.38907">
        <ele>444.27</ele>
        <time>2018-03-22T10:14:13Z</time>
      </trkpt>
      <trkpt lat="43.82229" lon="5.38928">
        <ele>445.71</ele>
        <time>2018-03-22T10:14:30Z</time>
      </trkpt>
      <trkpt lat="43.82228" lon="5.38944">
        <ele>447.15</ele>
        <time>2018-03-22T10:14:45Z</time>
      </trkpt>
      <trkpt lat="43.82235" lon="5.38956">
        <ele>449.55</ele>
        <time>2018-03-22T10:15:00Z</time>
      </trkpt>
      <trkpt lat="43.82241" lon="5.38956">
        <ele>450.52</ele>
        <time>2018-03-22T10:15:06Z</time>
      </trkpt>
      <trkpt lat="43.82248" lon="5.38953">
        <ele>451.96</ele>
        <time>2018-03-22T10:15:19Z</time>
      </trkpt>
      <trkpt lat="43.82251" lon="5.38952">
        <ele>451.48</ele>
        <time>2018-03-22T10:15:40Z</time>
      </trkpt>
      <trkpt lat="43.82252" lon="5.38953">
        <ele>451.48</ele>
        <time>2018-03-22T10:15:42Z</time>
      </trkpt>
      <trkpt lat="43.82257" lon="5.38951">
        <ele>452.44</ele>
        <time>2018-03-22T10:15:47Z</time>
      </trkpt>
      <trkpt lat="43.82259" lon="5.38949">
        <ele>452.92</ele>
        <time>2018-03-22T10:15:50Z</time>
      </trkpt>
      <trkpt lat="43.82261" lon="5.38948">
        <ele>452.92</ele>
        <time>2018-03-22T10:15:51Z</time>
      </trkpt>
      <trkpt lat="43.82265" lon="5.38949">
        <ele>453.88</ele>
        <time>2018-03-22T10:15:56Z</time>
      </trkpt>
      <trkpt lat="43.82274" lon="5.38951">
        <ele>455.32</ele>
        <time>2018-03-22T10:16:08Z</time>
      </trkpt>
      <trkpt lat="43.82286" lon="5.38955">
        <ele>457.72</ele>
        <time>2018-03-22T10:16:24Z</time>
      </trkpt>
      <trkpt lat="43.82289" lon="5.38955">
        <ele>458.21</ele>
        <time>2018-03-22T10:16:38Z</time>
      </trkpt>
      <trkpt lat="43.82294" lon="5.38957">
        <ele>459.65</ele>
        <time>2018-03-22T10:16:52Z</time>
      </trkpt>
      <trkpt lat="43.82298" lon="5.38961">
        <ele>460.13</ele>
        <time>2018-03-22T10:16:57Z</time>
      </trkpt>
      <trkpt lat="43.823" lon="5.38976">
        <ele>461.09</ele>
        <time>2018-03-22T10:17:11Z</time>
      </trkpt>
      <trkpt lat="43.82299" lon="5.38976">
        <ele>461.09</ele>
        <time>2018-03-22T10:17:27Z</time>
      </trkpt>
      <trkpt lat="43.82297" lon="5.38977">
        <ele>461.09</ele>
        <time>2018-03-22T10:17:53Z</time>
      </trkpt>
      <trkpt lat="43.82297" lon="5.38976">
        <ele>461.09</ele>
        <time>2018-03-22T10:18:28Z</time>
      </trkpt>
      <trkpt lat="43.82297" lon="5.38974">
        <ele>461.57</ele>
        <time>2018-03-22T10:18:48Z</time>
      </trkpt>
      <trkpt lat="43.82298" lon="5.38977">
        <ele>461.57</ele>
        <time>2018-03-22T10:19:16Z</time>
      </trkpt>
      <trkpt lat="43.82297" lon="5.38978">
        <ele>461.57</ele>
        <time>2018-03-22T10:19:37Z</time>
      </trkpt>
      <trkpt lat="43.82296" lon="5.38974">
        <ele>461.57</ele>
        <time>2018-03-22T10:19:58Z</time>
      </trkpt>
      <trkpt lat="43.82298" lon="5.38974">
        <ele>462.05</ele>
        <time>2018-03-22T10:20:23Z</time>
      </trkpt>
      <trkpt lat="43.82297" lon="5.38975">
        <ele>462.05</ele>
        <time>2018-03-22T10:20:48Z</time>
      </trkpt>
      <trkpt lat="43.82295" lon="5.38977">
        <ele>462.05</ele>
        <time>2018-03-22T10:21:06Z</time>
      </trkpt>
      <trkpt lat="43.82295" lon="5.38976">
        <ele>462.53</ele>
        <time>2018-03-22T10:21:28Z</time>
      </trkpt>
      <trkpt lat="43.82296" lon="5.38976">
        <ele>462.53</ele>
        <time>2018-03-22T10:21:51Z</time>
      </trkpt>
      <trkpt lat="43.82294" lon="5.38978">
        <ele>462.53</ele>
        <time>2018-03-22T10:22:19Z</time>
      </trkpt>
      <trkpt lat="43.82291" lon="5.38984">
        <ele>463.01</ele>
        <time>2018-03-22T10:22:25Z</time>
      </trkpt>
      <trkpt lat="43.82279" lon="5.38994">
        <ele>463.01</ele>
        <time>2018-03-22T10:22:41Z</time>
      </trkpt>
      <trkpt lat="43.82277" lon="5.38996">
        <ele>463.97</ele>
        <time>2018-03-22T10:22:43Z</time>
      </trkpt>
      <trkpt lat="43.82262" lon="5.39003">
        <ele>464.45</ele>
        <time>2018-03-22T10:23:00Z</time>
      </trkpt>
      <trkpt lat="43.8226" lon="5.39004">
        <ele>464.45</ele>
        <time>2018-03-22T10:23:02Z</time>
      </trkpt>
      <trkpt lat="43.82252" lon="5.39002">
        <ele>466.86</ele>
        <time>2018-03-22T10:23:13Z</time>
      </trkpt>
      <trkpt lat="43.82251" lon="5.39002">
        <ele>466.86</ele>
        <time>2018-03-22T10:23:14Z</time>
      </trkpt>
      <trkpt lat="43.82242" lon="5.39006">
        <ele>469.26</ele>
        <time>2018-03-22T10:23:26Z</time>
      </trkpt>
      <trkpt lat="43.82233" lon="5.3901">
        <ele>471.18</ele>
        <time>2018-03-22T10:23:40Z</time>
      </trkpt>
      <trkpt lat="43.82227" lon="5.39012">
        <ele>476.47</ele>
        <time>2018-03-22T10:23:49Z</time>
      </trkpt>
      <trkpt lat="43.82226" lon="5.39012">
        <ele>473.11</ele>
        <time>2018-03-22T10:23:50Z</time>
      </trkpt>
      <trkpt lat="43.82217" lon="5.39011">
        <ele>474.55</ele>
        <time>2018-03-22T10:24:00Z</time>
      </trkpt>
      <trkpt lat="43.82208" lon="5.39008">
        <ele>476.47</ele>
        <time>2018-03-22T10:24:15Z</time>
      </trkpt>
      <trkpt lat="43.82208" lon="5.39005">
        <ele>476.47</ele>
        <time>2018-03-22T10:24:28Z</time>
      </trkpt>
      <trkpt lat="43.82207" lon="5.39004">
        <ele>476.47</ele>
        <time>2018-03-22T10:24:45Z</time>
      </trkpt>
      <trkpt lat="43.82206" lon="5.39003">
        <ele>476.47</ele>
        <time>2018-03-22T10:25:26Z</time>
      </trkpt>
      <trkpt lat="43.82208" lon="5.39008">
        <ele>476.47</ele>
        <time>2018-03-22T10:26:14Z</time>
      </trkpt>
      <trkpt lat="43.82207" lon="5.39013">
        <ele>478.39</ele>
        <time>2018-03-22T10:26:59Z</time>
      </trkpt>
      <trkpt lat="43.82212" lon="5.39033">
        <ele>481.28</ele>
        <time>2018-03-22T10:27:16Z</time>
      </trkpt>
      <trkpt lat="43.82213" lon="5.39036">
        <ele>481.28</ele>
        <time>2018-03-22T10:27:18Z</time>
      </trkpt>
      <trkpt lat="43.82214" lon="5.39042">
        <ele>482.24</ele>
        <time>2018-03-22T10:27:22Z</time>
      </trkpt>
      <trkpt lat="43.82215" lon="5.39045">
        <ele>483.68</ele>
        <time>2018-03-22T10:27:26Z</time>
      </trkpt>
      <trkpt lat="43.82218" lon="5.39056">
        <ele>486.56</ele>
        <time>2018-03-22T10:27:38Z</time>
      </trkpt>
      <trkpt lat="43.82219" lon="5.3906">
        <ele>488.01</ele>
        <time>2018-03-22T10:27:42Z</time>
      </trkpt>
      <trkpt lat="43.82222" lon="5.39066">
        <ele>490.41</ele>
        <time>2018-03-22T10:27:54Z</time>
      </trkpt>
      <trkpt lat="43.82218" lon="5.39073">
        <ele>493.29</ele>
        <time>2018-03-22T10:28:07Z</time>
      </trkpt>
      <trkpt lat="43.82217" lon="5.39074">
        <ele>493.77</ele>
        <time>2018-03-22T10:28:09Z</time>
      </trkpt>
      <trkpt lat="43.82215" lon="5.39076">
        <ele>494.26</ele>
        <time>2018-03-22T10:28:12Z</time>
      </trkpt>
      <trkpt lat="43.82203" lon="5.3908">
        <ele>497.62</ele>
        <time>2018-03-22T10:28:29Z</time>
      </trkpt>
      <trkpt lat="43.82193" lon="5.39075">
        <ele>500.98</ele>
        <time>2018-03-22T10:28:43Z</time>
      </trkpt>
      <trkpt lat="43.82193" lon="5.39074">
        <ele>500.98</ele>
        <time>2018-03-22T10:28:44Z</time>
      </trkpt>
      <trkpt lat="43.82184" lon="5.39066">
        <ele>502.91</ele>
        <time>2018-03-22T10:28:53Z</time>
      </trkpt>
      <trkpt lat="43.82176" lon="5.39071">
        <ele>506.27</ele>
        <time>2018-03-22T10:29:06Z</time>
      </trkpt>
      <trkpt lat="43.82175" lon="5.39083">
        <ele>509.16</ele>
        <time>2018-03-22T10:29:20Z</time>
      </trkpt>
      <trkpt lat="43.82176" lon="5.39095">
        <ele>512.52</ele>
        <time>2018-03-22T10:29:35Z</time>
      </trkpt>
      <trkpt lat="43.82176" lon="5.39102">
        <ele>513.48</ele>
        <time>2018-03-22T10:29:40Z</time>
      </trkpt>
      <trkpt lat="43.82181" lon="5.3912">
        <ele>517.33</ele>
        <time>2018-03-22T10:29:57Z</time>
      </trkpt>
      <trkpt lat="43.82187" lon="5.39127">
        <ele>519.73</ele>
        <time>2018-03-22T10:30:13Z</time>
      </trkpt>
      <trkpt lat="43.82189" lon="5.39127">
        <ele>523.09</ele>
        <time>2018-03-22T10:30:28Z</time>
      </trkpt>
      <trkpt lat="43.82189" lon="5.39127">
        <ele>523.58</ele>
        <time>2018-03-22T10:30:42Z</time>
      </trkpt>
      <trkpt lat="43.8219" lon="5.39139">
        <ele>524.06</ele>
        <time>2018-03-22T10:31:11Z</time>
      </trkpt>
      <trkpt lat="43.82192" lon="5.39143">
        <ele>524.06</ele>
        <time>2018-03-22T10:31:46Z</time>
      </trkpt>
      <trkpt lat="43.82191" lon="5.39144">
        <ele>525.02</ele>
        <time>2018-03-22T10:32:08Z</time>
      </trkpt>
      <trkpt lat="43.82185" lon="5.39145">
        <ele>526.46</ele>
        <time>2018-03-22T10:32:19Z</time>
      </trkpt>
      <trkpt lat="43.82178" lon="5.39143">
        <ele>528.86</ele>
        <time>2018-03-22T10:32:32Z</time>
      </trkpt>
      <trkpt lat="43.82169" lon="5.39141">
        <ele>531.27</ele>
        <time>2018-03-22T10:32:47Z</time>
      </trkpt>
      <trkpt lat="43.8216" lon="5.39145">
        <ele>532.71</ele>
        <time>2018-03-22T10:33:01Z</time>
      </trkpt>
      <trkpt lat="43.82148" lon="5.39146">
        <ele>536.07</ele>
        <time>2018-03-22T10:33:18Z</time>
      </trkpt>
      <trkpt lat="43.82139" lon="5.3915">
        <ele>537.03</ele>
        <time>2018-03-22T10:33:30Z</time>
      </trkpt>
      <trkpt lat="43.82129" lon="5.39152">
        <ele>538.96</ele>
        <time>2018-03-22T10:33:44Z</time>
      </trkpt>
      <trkpt lat="43.82127" lon="5.39154">
        <ele>539.44</ele>
        <time>2018-03-22T10:33:47Z</time>
      </trkpt>
      <trkpt lat="43.82122" lon="5.39157">
        <ele>541.36</ele>
        <time>2018-03-22T10:33:56Z</time>
      </trkpt>
      <trkpt lat="43.82113" lon="5.39165">
        <ele>543.76</ele>
        <time>2018-03-22T10:34:10Z</time>
      </trkpt>
      <trkpt lat="43.82106" lon="5.39172">
        <ele>546.17</ele>
        <time>2018-03-22T10:34:23Z</time>
      </trkpt>
      <trkpt lat="43.82098" lon="5.39183">
        <ele>549.05</ele>
        <time>2018-03-22T10:34:36Z</time>
      </trkpt>
      <trkpt lat="43.82092" lon="5.39194">
        <ele>551.45</ele>
        <time>2018-03-22T10:34:49Z</time>
      </trkpt>
      <trkpt lat="43.82092" lon="5.39196">
        <ele>551.45</ele>
        <time>2018-03-22T10:34:51Z</time>
      </trkpt>
      <trkpt lat="43.821" lon="5.39199">
        <ele>552.9</ele>
        <time>2018-03-22T10:35:04Z</time>
      </trkpt>
      <trkpt lat="43.82101" lon="5.392">
        <ele>553.38</ele>
        <time>2018-03-22T10:35:06Z</time>
      </trkpt>
      <trkpt lat="43.82104" lon="5.39199">
        <ele>553.38</ele>
        <time>2018-03-22T10:35:09Z</time>
      </trkpt>
      <trkpt lat="43.82107" lon="5.39201">
        <ele>553.86</ele>
        <time>2018-03-22T10:35:13Z</time>
      </trkpt>
      <trkpt lat="43.82118" lon="5.39205">
        <ele>555.78</ele>
        <time>2018-03-22T10:35:27Z</time>
      </trkpt>
      <trkpt lat="43.82125" lon="5.3921">
        <ele>557.22</ele>
        <time>2018-03-22T10:35:43Z</time>
      </trkpt>
      <trkpt lat="43.82128" lon="5.3921">
        <ele>557.22</ele>
        <time>2018-03-22T10:36:01Z</time>
      </trkpt>
      <trkpt lat="43.82127" lon="5.39207">
        <ele>557.7</ele>
        <time>2018-03-22T10:36:37Z</time>
      </trkpt>
      <trkpt lat="43.82127" lon="5.39209">
        <ele>557.7</ele>
        <time>2018-03-22T10:36:49Z</time>
      </trkpt>
      <trkpt lat="43.82127" lon="5.39207">
        <ele>557.7</ele>
        <time>2018-03-22T10:37:13Z</time>
      </trkpt>
      <trkpt lat="43.82128" lon="5.39207">
        <ele>557.7</ele>
        <time>2018-03-22T10:37:32Z</time>
      </trkpt>
      <trkpt lat="43.82129" lon="5.39207">
        <ele>558.18</ele>
        <time>2018-03-22T10:37:56Z</time>
      </trkpt>
      <trkpt lat="43.82129" lon="5.39208">
        <ele>558.66</ele>
        <time>2018-03-22T10:38:24Z</time>
      </trkpt>
      <trkpt lat="43.82133" lon="5.39213">
        <ele>559.62</ele>
        <time>2018-03-22T10:38:48Z</time>
      </trkpt>
      <trkpt lat="43.82137" lon="5.39224">
        <ele>562.03</ele>
        <time>2018-03-22T10:39:04Z</time>
      </trkpt>
      <trkpt lat="43.82141" lon="5.39231">
        <ele>563.95</ele>
        <time>2018-03-22T10:39:18Z</time>
      </trkpt>
      <trkpt lat="43.8214" lon="5.39242">
        <ele>566.35</ele>
        <time>2018-03-22T10:39:33Z</time>
      </trkpt>
      <trkpt lat="43.82137" lon="5.39249">
        <ele>568.76</ele>
        <time>2018-03-22T10:39:47Z</time>
      </trkpt>
      <trkpt lat="43.82129" lon="5.39253">
        <ele>571.64</ele>
        <time>2018-03-22T10:40:02Z</time>
      </trkpt>
      <trkpt lat="43.82118" lon="5.39262">
        <ele>575.01</ele>
        <time>2018-03-22T10:40:15Z</time>
      </trkpt>
      <trkpt lat="43.8211" lon="5.39265">
        <ele>576.45</ele>
        <time>2018-03-22T10:40:26Z</time>
      </trkpt>
      <trkpt lat="43.82104" lon="5.39264">
        <ele>577.89</ele>
        <time>2018-03-22T10:40:39Z</time>
      </trkpt>
      <trkpt lat="43.82099" lon="5.39277">
        <ele>579.33</ele>
        <time>2018-03-22T10:40:53Z</time>
      </trkpt>
      <trkpt lat="43.821" lon="5.39278">
        <ele>580.29</ele>
        <time>2018-03-22T10:41:15Z</time>
      </trkpt>
      <trkpt lat="43.82102" lon="5.39284">
        <ele>581.25</ele>
        <time>2018-03-22T10:41:29Z</time>
      </trkpt>
      <trkpt lat="43.82103" lon="5.39295">
        <ele>583.66</ele>
        <time>2018-03-22T10:41:44Z</time>
      </trkpt>
      <trkpt lat="43.82095" lon="5.39301">
        <ele>585.1</ele>
        <time>2018-03-22T10:41:57Z</time>
      </trkpt>
      <trkpt lat="43.82085" lon="5.39301">
        <ele>587.5</ele>
        <time>2018-03-22T10:42:14Z</time>
      </trkpt>
      <trkpt lat="43.82073" lon="5.39301">
        <ele>589.43</ele>
        <time>2018-03-22T10:42:30Z</time>
      </trkpt>
      <trkpt lat="43.82063" lon="5.39302">
        <ele>590.87</ele>
        <time>2018-03-22T10:42:43Z</time>
      </trkpt>
      <trkpt lat="43.82053" lon="5.39304">
        <ele>591.83</ele>
        <time>2018-03-22T10:42:56Z</time>
      </trkpt>
      <trkpt lat="43.82046" lon="5.39306">
        <ele>592.31</ele>
        <time>2018-03-22T10:43:07Z</time>
      </trkpt>
      <trkpt lat="43.8204" lon="5.39307">
        <ele>593.27</ele>
        <time>2018-03-22T10:43:17Z</time>
      </trkpt>
      <trkpt lat="43.82028" lon="5.39306">
        <ele>595.67</ele>
        <time>2018-03-22T10:43:32Z</time>
      </trkpt>
      <trkpt lat="43.82014" lon="5.39303">
        <ele>598.08</ele>
        <time>2018-03-22T10:43:50Z</time>
      </trkpt>
      <trkpt lat="43.82006" lon="5.39302">
        <ele>600</ele>
        <time>2018-03-22T10:43:59Z</time>
      </trkpt>
      <trkpt lat="43.8199" lon="5.39294">
        <ele>602.88</ele>
        <time>2018-03-22T10:44:15Z</time>
      </trkpt>
      <trkpt lat="43.81981" lon="5.39283">
        <ele>604.81</ele>
        <time>2018-03-22T10:44:29Z</time>
      </trkpt>
      <trkpt lat="43.81971" lon="5.39304">
        <ele>605.77</ele>
        <time>2018-03-22T10:54:32Z</time>
      </trkpt>
      <trkpt lat="43.81968" lon="5.39321">
        <ele>608.17</ele>
        <time>2018-03-22T10:54:48Z</time>
      </trkpt>
      <trkpt lat="43.81971" lon="5.39338">
        <ele>610.09</ele>
        <time>2018-03-22T10:55:03Z</time>
      </trkpt>
      <trkpt lat="43.81974" lon="5.39354">
        <ele>611.54</ele>
        <time>2018-03-22T10:55:17Z</time>
      </trkpt>
      <trkpt lat="43.81985" lon="5.39367">
        <ele>614.9</ele>
        <time>2018-03-22T10:55:34Z</time>
      </trkpt>
      <trkpt lat="43.81993" lon="5.39376">
        <ele>617.3</ele>
        <time>2018-03-22T10:55:48Z</time>
      </trkpt>
      <trkpt lat="43.81996" lon="5.3938">
        <ele>618.26</ele>
        <time>2018-03-22T10:56:01Z</time>
      </trkpt>
      <trkpt lat="43.81998" lon="5.39393">
        <ele>620.19</ele>
        <time>2018-03-22T10:56:18Z</time>
      </trkpt>
      <trkpt lat="43.81997" lon="5.39397">
        <ele>621.63</ele>
        <time>2018-03-22T10:56:35Z</time>
      </trkpt>
      <trkpt lat="43.81987" lon="5.39403">
        <ele>623.55</ele>
        <time>2018-03-22T10:56:51Z</time>
      </trkpt>
      <trkpt lat="43.81974" lon="5.39407">
        <ele>626.44</ele>
        <time>2018-03-22T10:57:10Z</time>
      </trkpt>
      <trkpt lat="43.8197" lon="5.39412">
        <ele>627.88</ele>
        <time>2018-03-22T10:57:23Z</time>
      </trkpt>
      <trkpt lat="43.81964" lon="5.39416">
        <ele>629.32</ele>
        <time>2018-03-22T10:57:36Z</time>
      </trkpt>
      <trkpt lat="43.8196" lon="5.39419">
        <ele>630.76</ele>
        <time>2018-03-22T10:57:43Z</time>
      </trkpt>
      <trkpt lat="43.81953" lon="5.39419">
        <ele>632.2</ele>
        <time>2018-03-22T10:57:54Z</time>
      </trkpt>
      <trkpt lat="43.81945" lon="5.39422">
        <ele>634.61</ele>
        <time>2018-03-22T10:58:08Z</time>
      </trkpt>
      <trkpt lat="43.8194" lon="5.39427">
        <ele>637.01</ele>
        <time>2018-03-22T10:58:21Z</time>
      </trkpt>
      <trkpt lat="43.81932" lon="5.39431">
        <ele>639.89</ele>
        <time>2018-03-22T10:58:35Z</time>
      </trkpt>
      <trkpt lat="43.81919" lon="5.39435">
        <ele>642.3</ele>
        <time>2018-03-22T10:58:55Z</time>
      </trkpt>
      <trkpt lat="43.81916" lon="5.39435">
        <ele>643.74</ele>
        <time>2018-03-22T10:59:00Z</time>
      </trkpt>
      <trkpt lat="43.81907" lon="5.39436">
        <ele>645.66</ele>
        <time>2018-03-22T10:59:15Z</time>
      </trkpt>
      <trkpt lat="43.81898" lon="5.39436">
        <ele>647.1</ele>
        <time>2018-03-22T10:59:29Z</time>
      </trkpt>
      <trkpt lat="43.8189" lon="5.39438">
        <ele>649.03</ele>
        <time>2018-03-22T10:59:43Z</time>
      </trkpt>
      <trkpt lat="43.81889" lon="5.39438">
        <ele>649.51</ele>
        <time>2018-03-22T10:59:44Z</time>
      </trkpt>
      <trkpt lat="43.81878" lon="5.39437">
        <ele>651.43</ele>
        <time>2018-03-22T10:59:58Z</time>
      </trkpt>
      <trkpt lat="43.81868" lon="5.39433">
        <ele>654.31</ele>
        <time>2018-03-22T11:00:15Z</time>
      </trkpt>
      <trkpt lat="43.81859" lon="5.39423">
        <ele>656.72</ele>
        <time>2018-03-22T11:00:30Z</time>
      </trkpt>
      <trkpt lat="43.81853" lon="5.39417">
        <ele>658.64</ele>
        <time>2018-03-22T11:00:43Z</time>
      </trkpt>
      <trkpt lat="43.81849" lon="5.3942">
        <ele>660.08</ele>
        <time>2018-03-22T11:00:57Z</time>
      </trkpt>
      <trkpt lat="43.81851" lon="5.3942">
        <ele>660.08</ele>
        <time>2018-03-22T11:01:06Z</time>
      </trkpt>
      <trkpt lat="43.81853" lon="5.39416">
        <ele>658.64</ele>
        <time>2018-03-22T11:01:12Z</time>
      </trkpt>
      <trkpt lat="43.81858" lon="5.39418">
        <ele>657.68</ele>
        <time>2018-03-22T11:01:24Z</time>
      </trkpt>
      <trkpt lat="43.81859" lon="5.39424">
        <ele>657.2</ele>
        <time>2018-03-22T11:01:38Z</time>
      </trkpt>
      <trkpt lat="43.8186" lon="5.39424">
        <ele>656.72</ele>
        <time>2018-03-22T11:01:54Z</time>
      </trkpt>
      <trkpt lat="43.81861" lon="5.39421">
        <ele>656.24</ele>
        <time>2018-03-22T11:02:17Z</time>
      </trkpt>
      <trkpt lat="43.81852" lon="5.39414">
        <ele>658.16</ele>
        <time>2018-03-22T11:02:32Z</time>
      </trkpt>
      <trkpt lat="43.81849" lon="5.39422">
        <ele>659.6</ele>
        <time>2018-03-22T11:02:44Z</time>
      </trkpt>
      <trkpt lat="43.81848" lon="5.39425">
        <ele>660.08</ele>
        <time>2018-03-22T11:02:47Z</time>
      </trkpt>
      <trkpt lat="43.81847" lon="5.39437">
        <ele>662.01</ele>
        <time>2018-03-22T11:02:59Z</time>
      </trkpt>
      <trkpt lat="43.81849" lon="5.39452">
        <ele>664.41</ele>
        <time>2018-03-22T11:03:15Z</time>
      </trkpt>
      <trkpt lat="43.8185" lon="5.39467">
        <ele>666.81</ele>
        <time>2018-03-22T11:03:32Z</time>
      </trkpt>
      <trkpt lat="43.81849" lon="5.39472">
        <ele>668.25</ele>
        <time>2018-03-22T11:03:45Z</time>
      </trkpt>
      <trkpt lat="43.81848" lon="5.39471">
        <ele>668.25</ele>
        <time>2018-03-22T11:03:46Z</time>
      </trkpt>
      <trkpt lat="43.81847" lon="5.39471">
        <ele>668.25</ele>
        <time>2018-03-22T11:03:47Z</time>
      </trkpt>
      <trkpt lat="43.8184" lon="5.3947">
        <ele>668.73</ele>
        <time>2018-03-22T11:03:58Z</time>
      </trkpt>
      <trkpt lat="43.8184" lon="5.39468">
        <ele>669.7</ele>
        <time>2018-03-22T11:04:14Z</time>
      </trkpt>
      <trkpt lat="43.81836" lon="5.39465">
        <ele>669.7</ele>
        <time>2018-03-22T11:04:20Z</time>
      </trkpt>
      <trkpt lat="43.81835" lon="5.39464">
        <ele>670.18</ele>
        <time>2018-03-22T11:04:21Z</time>
      </trkpt>
      <trkpt lat="43.81834" lon="5.39463">
        <ele>670.18</ele>
        <time>2018-03-22T11:04:22Z</time>
      </trkpt>
      <trkpt lat="43.81829" lon="5.39457">
        <ele>670.66</ele>
        <time>2018-03-22T11:04:32Z</time>
      </trkpt>
      <trkpt lat="43.81827" lon="5.39455">
        <ele>671.14</ele>
        <time>2018-03-22T11:04:34Z</time>
      </trkpt>
      <trkpt lat="43.81823" lon="5.39446">
        <ele>672.1</ele>
        <time>2018-03-22T11:04:46Z</time>
      </trkpt>
      <trkpt lat="43.81822" lon="5.39441">
        <ele>672.58</ele>
        <time>2018-03-22T11:04:51Z</time>
      </trkpt>
      <trkpt lat="43.81823" lon="5.3944">
        <ele>673.06</ele>
        <time>2018-03-22T11:05:02Z</time>
      </trkpt>
      <trkpt lat="43.81823" lon="5.39444">
        <ele>673.06</ele>
        <time>2018-03-22T11:05:13Z</time>
      </trkpt>
      <trkpt lat="43.81822" lon="5.39445">
        <ele>673.54</ele>
        <time>2018-03-22T11:05:22Z</time>
      </trkpt>
      <trkpt lat="43.81822" lon="5.39446">
        <ele>673.54</ele>
        <time>2018-03-22T11:05:34Z</time>
      </trkpt>
      <trkpt lat="43.81821" lon="5.39446">
        <ele>673.54</ele>
        <time>2018-03-22T11:05:53Z</time>
      </trkpt>
      <trkpt lat="43.81822" lon="5.39447">
        <ele>673.54</ele>
        <time>2018-03-22T11:06:05Z</time>
      </trkpt>
      <trkpt lat="43.81817" lon="5.3945">
        <ele>675.46</ele>
        <time>2018-03-22T11:06:19Z</time>
      </trkpt>
      <trkpt lat="43.81813" lon="5.39455">
        <ele>677.39</ele>
        <time>2018-03-22T11:06:32Z</time>
      </trkpt>
      <trkpt lat="43.81808" lon="5.39462">
        <ele>679.31</ele>
        <time>2018-03-22T11:06:45Z</time>
      </trkpt>
      <trkpt lat="43.81803" lon="5.39471">
        <ele>681.23</ele>
        <time>2018-03-22T11:07:03Z</time>
      </trkpt>
      <trkpt lat="43.81796" lon="5.39475">
        <ele>684.12</ele>
        <time>2018-03-22T11:07:20Z</time>
      </trkpt>
      <trkpt lat="43.81792" lon="5.39478">
        <ele>684.6</ele>
        <time>2018-03-22T11:07:39Z</time>
      </trkpt>
      <trkpt lat="43.81793" lon="5.39488">
        <ele>686.04</ele>
        <time>2018-03-22T11:08:00Z</time>
      </trkpt>
      <trkpt lat="43.81798" lon="5.39498">
        <ele>686.52</ele>
        <time>2018-03-22T11:08:14Z</time>
      </trkpt>
      <trkpt lat="43.81796" lon="5.39512">
        <ele>688.92</ele>
        <time>2018-03-22T11:08:29Z</time>
      </trkpt>
      <trkpt lat="43.81802" lon="5.39517">
        <ele>688.44</ele>
        <time>2018-03-22T11:08:45Z</time>
      </trkpt>
      <trkpt lat="43.81802" lon="5.39517">
        <ele>687.96</ele>
        <time>2018-03-22T11:08:59Z</time>
      </trkpt>
      <trkpt lat="43.81802" lon="5.39518">
        <ele>687.96</ele>
        <time>2018-03-22T11:09:16Z</time>
      </trkpt>
      <trkpt lat="43.81802" lon="5.39518">
        <ele>687.48</ele>
        <time>2018-03-22T11:09:30Z</time>
      </trkpt>
      <trkpt lat="43.81801" lon="5.39519">
        <ele>688.92</ele>
        <time>2018-03-22T11:09:37Z</time>
      </trkpt>
      <trkpt lat="43.81797" lon="5.39518">
        <ele>688.92</ele>
        <time>2018-03-22T11:09:53Z</time>
      </trkpt>
      <trkpt lat="43.81795" lon="5.39518">
        <ele>688.44</ele>
        <time>2018-03-22T11:10:14Z</time>
      </trkpt>
      <trkpt lat="43.81792" lon="5.39522">
        <ele>687.96</ele>
        <time>2018-03-22T11:10:29Z</time>
      </trkpt>
      <trkpt lat="43.81792" lon="5.39534">
        <ele>685.08</ele>
        <time>2018-03-22T11:10:47Z</time>
      </trkpt>
      <trkpt lat="43.81801" lon="5.39532">
        <ele>682.67</ele>
        <time>2018-03-22T11:11:05Z</time>
      </trkpt>
      <trkpt lat="43.81809" lon="5.39528">
        <ele>680.27</ele>
        <time>2018-03-22T11:11:18Z</time>
      </trkpt>
      <trkpt lat="43.81814" lon="5.39526">
        <ele>678.35</ele>
        <time>2018-03-22T11:11:33Z</time>
      </trkpt>
      <trkpt lat="43.81819" lon="5.39529">
        <ele>677.39</ele>
        <time>2018-03-22T11:11:50Z</time>
      </trkpt>
      <trkpt lat="43.81826" lon="5.39534">
        <ele>674.98</ele>
        <time>2018-03-22T11:12:03Z</time>
      </trkpt>
      <trkpt lat="43.81834" lon="5.39539">
        <ele>671.62</ele>
        <time>2018-03-22T11:12:19Z</time>
      </trkpt>
      <trkpt lat="43.81842" lon="5.39542">
        <ele>668.73</ele>
        <time>2018-03-22T11:12:35Z</time>
      </trkpt>
      <trkpt lat="43.81849" lon="5.39543">
        <ele>666.33</ele>
        <time>2018-03-22T11:12:50Z</time>
      </trkpt>
      <trkpt lat="43.81856" lon="5.39543">
        <ele>664.41</ele>
        <time>2018-03-22T11:13:07Z</time>
      </trkpt>
      <trkpt lat="43.81858" lon="5.39551">
        <ele>664.41</ele>
        <time>2018-03-22T11:13:35Z</time>
      </trkpt>
      <trkpt lat="43.81863" lon="5.39548">
        <ele>664.89</ele>
        <time>2018-03-22T11:13:53Z</time>
      </trkpt>
      <trkpt lat="43.81865" lon="5.3955">
        <ele>664.89</ele>
        <time>2018-03-22T11:14:14Z</time>
      </trkpt>
      <trkpt lat="43.81864" lon="5.39547">
        <ele>664.89</ele>
        <time>2018-03-22T11:14:30Z</time>
      </trkpt>
      <trkpt lat="43.81864" lon="5.39542">
        <ele>664.89</ele>
        <time>2018-03-22T11:14:52Z</time>
      </trkpt>
      <trkpt lat="43.81861" lon="5.39551">
        <ele>664.89</ele>
        <time>2018-03-22T11:15:09Z</time>
      </trkpt>
      <trkpt lat="43.8186" lon="5.39554">
        <ele>663.45</ele>
        <time>2018-03-22T11:15:22Z</time>
      </trkpt>
      <trkpt lat="43.81853" lon="5.39558">
        <ele>661.52</ele>
        <time>2018-03-22T11:15:36Z</time>
      </trkpt>
      <trkpt lat="43.81842" lon="5.39565">
        <ele>658.16</ele>
        <time>2018-03-22T11:15:52Z</time>
      </trkpt>
      <trkpt lat="43.81839" lon="5.39568">
        <ele>656.72</ele>
        <time>2018-03-22T11:15:59Z</time>
      </trkpt>
      <trkpt lat="43.81836" lon="5.39576">
        <ele>655.76</ele>
        <time>2018-03-22T11:16:08Z</time>
      </trkpt>
      <trkpt lat="43.81835" lon="5.39583">
        <ele>655.28</ele>
        <time>2018-03-22T11:16:21Z</time>
      </trkpt>
      <trkpt lat="43.81836" lon="5.39591">
        <ele>655.28</ele>
        <time>2018-03-22T11:16:34Z</time>
      </trkpt>
      <trkpt lat="43.81838" lon="5.39597">
        <ele>655.28</ele>
        <time>2018-03-22T11:16:49Z</time>
      </trkpt>
      <trkpt lat="43.81837" lon="5.39592">
        <ele>655.28</ele>
        <time>2018-03-22T11:17:00Z</time>
      </trkpt>
      <trkpt lat="43.81837" lon="5.39592">
        <ele>655.28</ele>
        <time>2018-03-22T11:17:02Z</time>
      </trkpt>
      <trkpt lat="43.81835" lon="5.39603">
        <ele>655.28</ele>
        <time>2018-03-22T11:17:12Z</time>
      </trkpt>
      <trkpt lat="43.81835" lon="5.39604">
        <ele>654.8</ele>
        <time>2018-03-22T11:17:13Z</time>
      </trkpt>
      <trkpt lat="43.81833" lon="5.39609">
        <ele>654.8</ele>
        <time>2018-03-22T11:17:18Z</time>
      </trkpt>
      <trkpt lat="43.81832" lon="5.39618">
        <ele>653.35</ele>
        <time>2018-03-22T11:17:31Z</time>
      </trkpt>
      <trkpt lat="43.81833" lon="5.39621">
        <ele>652.87</ele>
        <time>2018-03-22T11:17:42Z</time>
      </trkpt>
      <trkpt lat="43.81834" lon="5.3963">
        <ele>652.39</ele>
        <time>2018-03-22T11:17:51Z</time>
      </trkpt>
      <trkpt lat="43.81841" lon="5.39649">
        <ele>649.99</ele>
        <time>2018-03-22T11:18:07Z</time>
      </trkpt>
      <trkpt lat="43.8185" lon="5.39657">
        <ele>647.1</ele>
        <time>2018-03-22T11:18:19Z</time>
      </trkpt>
      <trkpt lat="43.81857" lon="5.39656">
        <ele>645.18</ele>
        <time>2018-03-22T11:18:29Z</time>
      </trkpt>
      <trkpt lat="43.81865" lon="5.39637">
        <ele>642.78</ele>
        <time>2018-03-22T11:18:46Z</time>
      </trkpt>
      <trkpt lat="43.81877" lon="5.39636">
        <ele>640.86</ele>
        <time>2018-03-22T11:19:00Z</time>
      </trkpt>
      <trkpt lat="43.81882" lon="5.39636">
        <ele>639.89</ele>
        <time>2018-03-22T11:19:06Z</time>
      </trkpt>
      <trkpt lat="43.81894" lon="5.39642">
        <ele>638.45</ele>
        <time>2018-03-22T11:19:19Z</time>
      </trkpt>
      <trkpt lat="43.81904" lon="5.39626">
        <ele>636.05</ele>
        <time>2018-03-22T11:19:33Z</time>
      </trkpt>
      <trkpt lat="43.81909" lon="5.3962">
        <ele>634.61</ele>
        <time>2018-03-22T11:19:42Z</time>
      </trkpt>
      <trkpt lat="43.81912" lon="5.39619">
        <ele>634.13</ele>
        <time>2018-03-22T11:19:46Z</time>
      </trkpt>
      <trkpt lat="43.81925" lon="5.3962">
        <ele>631.72</ele>
        <time>2018-03-22T11:20:00Z</time>
      </trkpt>
      <trkpt lat="43.81941" lon="5.39629">
        <ele>631.24</ele>
        <time>2018-03-22T11:20:16Z</time>
      </trkpt>
      <trkpt lat="43.81948" lon="5.39642">
        <ele>629.32</ele>
        <time>2018-03-22T11:20:45Z</time>
      </trkpt>
      <trkpt lat="43.81956" lon="5.39648">
        <ele>625.96</ele>
        <time>2018-03-22T11:20:55Z</time>
      </trkpt>
      <trkpt lat="43.8196" lon="5.39665">
        <ele>624.03</ele>
        <time>2018-03-22T11:21:10Z</time>
      </trkpt>
      <trkpt lat="43.81961" lon="5.39667">
        <ele>623.55</ele>
        <time>2018-03-22T11:21:11Z</time>
      </trkpt>
      <trkpt lat="43.81969" lon="5.39687">
        <ele>621.63</ele>
        <time>2018-03-22T11:21:26Z</time>
      </trkpt>
      <trkpt lat="43.81978" lon="5.39685">
        <ele>619.71</ele>
        <time>2018-03-22T11:21:43Z</time>
      </trkpt>
      <trkpt lat="43.81988" lon="5.39676">
        <ele>617.3</ele>
        <time>2018-03-22T11:21:57Z</time>
      </trkpt>
      <trkpt lat="43.82001" lon="5.39682">
        <ele>613.94</ele>
        <time>2018-03-22T11:22:11Z</time>
      </trkpt>
      <trkpt lat="43.8201" lon="5.39693">
        <ele>611.06</ele>
        <time>2018-03-22T11:22:27Z</time>
      </trkpt>
      <trkpt lat="43.82011" lon="5.39697">
        <ele>610.57</ele>
        <time>2018-03-22T11:22:30Z</time>
      </trkpt>
      <trkpt lat="43.82011" lon="5.39711">
        <ele>610.09</ele>
        <time>2018-03-22T11:22:40Z</time>
      </trkpt>
      <trkpt lat="43.81998" lon="5.39734">
        <ele>608.65</ele>
        <time>2018-03-22T11:23:01Z</time>
      </trkpt>
      <trkpt lat="43.81988" lon="5.39753">
        <ele>607.69</ele>
        <time>2018-03-22T11:23:18Z</time>
      </trkpt>
      <trkpt lat="43.81984" lon="5.39766">
        <ele>606.73</ele>
        <time>2018-03-22T11:23:33Z</time>
      </trkpt>
      <trkpt lat="43.81986" lon="5.39772">
        <ele>606.73</ele>
        <time>2018-03-22T11:23:51Z</time>
      </trkpt>
      <trkpt lat="43.8199" lon="5.3977">
        <ele>605.77</ele>
        <time>2018-03-22T11:24:18Z</time>
      </trkpt>
      <trkpt lat="43.82004" lon="5.3976">
        <ele>602.4</ele>
        <time>2018-03-22T11:24:33Z</time>
      </trkpt>
      <trkpt lat="43.82008" lon="5.39755">
        <ele>601.92</ele>
        <time>2018-03-22T11:24:37Z</time>
      </trkpt>
      <trkpt lat="43.82021" lon="5.39745">
        <ele>598.08</ele>
        <time>2018-03-22T11:24:50Z</time>
      </trkpt>
      <trkpt lat="43.82028" lon="5.3974">
        <ele>597.12</ele>
        <time>2018-03-22T11:24:55Z</time>
      </trkpt>
      <trkpt lat="43.82043" lon="5.39731">
        <ele>593.75</ele>
        <time>2018-03-22T11:25:08Z</time>
      </trkpt>
      <trkpt lat="43.82056" lon="5.39724">
        <ele>590.39</ele>
        <time>2018-03-22T11:25:25Z</time>
      </trkpt>
      <trkpt lat="43.82072" lon="5.39714">
        <ele>588.46</ele>
        <time>2018-03-22T11:25:40Z</time>
      </trkpt>
      <trkpt lat="43.82087" lon="5.39702">
        <ele>586.54</ele>
        <time>2018-03-22T11:25:58Z</time>
      </trkpt>
      <trkpt lat="43.821" lon="5.397">
        <ele>583.66</ele>
        <time>2018-03-22T11:26:14Z</time>
      </trkpt>
      <trkpt lat="43.82103" lon="5.39699">
        <ele>583.18</ele>
        <time>2018-03-22T11:26:19Z</time>
      </trkpt>
      <trkpt lat="43.82105" lon="5.3971">
        <ele>580.77</ele>
        <time>2018-03-22T11:26:32Z</time>
      </trkpt>
      <trkpt lat="43.82101" lon="5.39723">
        <ele>579.33</ele>
        <time>2018-03-22T11:26:42Z</time>
      </trkpt>
      <trkpt lat="43.82103" lon="5.39731">
        <ele>578.85</ele>
        <time>2018-03-22T11:27:00Z</time>
      </trkpt>
      <trkpt lat="43.821" lon="5.39739">
        <ele>578.37</ele>
        <time>2018-03-22T11:27:17Z</time>
      </trkpt>
      <trkpt lat="43.82092" lon="5.39753">
        <ele>576.45</ele>
        <time>2018-03-22T11:27:29Z</time>
      </trkpt>
      <trkpt lat="43.82086" lon="5.39766">
        <ele>575.49</ele>
        <time>2018-03-22T11:27:42Z</time>
      </trkpt>
      <trkpt lat="43.82074" lon="5.39784">
        <ele>574.04</ele>
        <time>2018-03-22T11:27:58Z</time>
      </trkpt>
      <trkpt lat="43.82067" lon="5.39807">
        <ele>572.12</ele>
        <time>2018-03-22T11:28:14Z</time>
      </trkpt>
      <trkpt lat="43.82062" lon="5.39825">
        <ele>570.2</ele>
        <time>2018-03-22T11:28:31Z</time>
      </trkpt>
      <trkpt lat="43.82058" lon="5.39845">
        <ele>570.2</ele>
        <time>2018-03-22T11:28:49Z</time>
      </trkpt>
      <trkpt lat="43.8206" lon="5.39852">
        <ele>569.72</ele>
        <time>2018-03-22T11:29:03Z</time>
      </trkpt>
      <trkpt lat="43.82067" lon="5.39837">
        <ele>569.72</ele>
        <time>2018-03-22T11:29:17Z</time>
      </trkpt>
      <trkpt lat="43.82071" lon="5.3983">
        <ele>569.72</ele>
        <time>2018-03-22T11:29:24Z</time>
      </trkpt>
      <trkpt lat="43.82081" lon="5.39823">
        <ele>568.28</ele>
        <time>2018-03-22T11:29:38Z</time>
      </trkpt>
      <trkpt lat="43.82082" lon="5.39821">
        <ele>568.28</ele>
        <time>2018-03-22T11:29:45Z</time>
      </trkpt>
      <trkpt lat="43.82085" lon="5.39815">
        <ele>568.28</ele>
        <time>2018-03-22T11:29:51Z</time>
      </trkpt>
      <trkpt lat="43.82097" lon="5.39804">
        <ele>568.28</ele>
        <time>2018-03-22T11:30:06Z</time>
      </trkpt>
      <trkpt lat="43.82116" lon="5.39806">
        <ele>568.28</ele>
        <time>2018-03-22T11:30:24Z</time>
      </trkpt>
      <trkpt lat="43.82117" lon="5.39807">
        <ele>568.28</ele>
        <time>2018-03-22T11:30:26Z</time>
      </trkpt>
      <trkpt lat="43.8212" lon="5.39809">
        <ele>568.28</ele>
        <time>2018-03-22T11:30:30Z</time>
      </trkpt>
      <trkpt lat="43.82121" lon="5.39813">
        <ele>568.28</ele>
        <time>2018-03-22T11:30:34Z</time>
      </trkpt>
      <trkpt lat="43.82122" lon="5.39819">
        <ele>564.43</ele>
        <time>2018-03-22T12:08:06Z</time>
      </trkpt>
      <trkpt lat="43.82119" lon="5.39835">
        <ele>565.39</ele>
        <time>2018-03-22T12:08:19Z</time>
      </trkpt>
      <trkpt lat="43.82117" lon="5.39848">
        <ele>566.83</ele>
        <time>2018-03-22T12:08:34Z</time>
      </trkpt>
      <trkpt lat="43.82115" lon="5.39857">
        <ele>568.76</ele>
        <time>2018-03-22T12:08:47Z</time>
      </trkpt>
      <trkpt lat="43.82118" lon="5.39868">
        <ele>571.64</ele>
        <time>2018-03-22T12:09:01Z</time>
      </trkpt>
      <trkpt lat="43.8212" lon="5.39879">
        <ele>573.08</ele>
        <time>2018-03-22T12:09:14Z</time>
      </trkpt>
      <trkpt lat="43.82119" lon="5.39885">
        <ele>573.56</ele>
        <time>2018-03-22T12:09:28Z</time>
      </trkpt>
      <trkpt lat="43.8212" lon="5.39884">
        <ele>573.56</ele>
        <time>2018-03-22T12:09:45Z</time>
      </trkpt>
      <trkpt lat="43.8212" lon="5.3989">
        <ele>574.53</ele>
        <time>2018-03-22T12:09:55Z</time>
      </trkpt>
      <trkpt lat="43.82119" lon="5.39892">
        <ele>574.53</ele>
        <time>2018-03-22T12:09:58Z</time>
      </trkpt>
      <trkpt lat="43.82118" lon="5.39896">
        <ele>574.53</ele>
        <time>2018-03-22T12:10:02Z</time>
      </trkpt>
      <trkpt lat="43.82117" lon="5.39912">
        <ele>575.97</ele>
        <time>2018-03-22T12:10:16Z</time>
      </trkpt>
      <trkpt lat="43.82112" lon="5.39913">
        <ele>576.45</ele>
        <time>2018-03-22T12:10:27Z</time>
      </trkpt>
      <trkpt lat="43.82105" lon="5.39918">
        <ele>579.33</ele>
        <time>2018-03-22T12:10:39Z</time>
      </trkpt>
      <trkpt lat="43.82104" lon="5.39925">
        <ele>579.33</ele>
        <time>2018-03-22T12:10:52Z</time>
      </trkpt>
      <trkpt lat="43.82107" lon="5.39931">
        <ele>579.81</ele>
        <time>2018-03-22T12:11:02Z</time>
      </trkpt>
      <trkpt lat="43.82112" lon="5.39938">
        <ele>580.29</ele>
        <time>2018-03-22T12:11:10Z</time>
      </trkpt>
      <trkpt lat="43.82116" lon="5.39943">
        <ele>580.29</ele>
        <time>2018-03-22T12:11:16Z</time>
      </trkpt>
      <trkpt lat="43.8212" lon="5.39951">
        <ele>582.22</ele>
        <time>2018-03-22T12:11:26Z</time>
      </trkpt>
      <trkpt lat="43.82118" lon="5.39957">
        <ele>583.18</ele>
        <time>2018-03-22T12:11:33Z</time>
      </trkpt>
      <trkpt lat="43.82116" lon="5.3996">
        <ele>583.18</ele>
        <time>2018-03-22T12:11:36Z</time>
      </trkpt>
      <trkpt lat="43.8211" lon="5.39976">
        <ele>583.66</ele>
        <time>2018-03-22T12:11:53Z</time>
      </trkpt>
      <trkpt lat="43.82109" lon="5.39983">
        <ele>585.58</ele>
        <time>2018-03-22T12:11:59Z</time>
      </trkpt>
      <trkpt lat="43.82108" lon="5.39992">
        <ele>586.54</ele>
        <time>2018-03-22T12:12:10Z</time>
      </trkpt>
      <trkpt lat="43.82108" lon="5.40006">
        <ele>588.95</ele>
        <time>2018-03-22T12:12:26Z</time>
      </trkpt>
      <trkpt lat="43.82107" lon="5.40019">
        <ele>590.87</ele>
        <time>2018-03-22T12:12:40Z</time>
      </trkpt>
      <trkpt lat="43.82107" lon="5.40025">
        <ele>590.87</ele>
        <time>2018-03-22T12:12:45Z</time>
      </trkpt>
      <trkpt lat="43.82105" lon="5.40033">
        <ele>592.31</ele>
        <time>2018-03-22T12:12:53Z</time>
      </trkpt>
      <trkpt lat="43.82107" lon="5.40041">
        <ele>592.79</ele>
        <time>2018-03-22T12:13:07Z</time>
      </trkpt>
      <trkpt lat="43.82104" lon="5.40045">
        <ele>592.79</ele>
        <time>2018-03-22T12:13:15Z</time>
      </trkpt>
      <trkpt lat="43.82104" lon="5.40052">
        <ele>593.27</ele>
        <time>2018-03-22T12:13:27Z</time>
      </trkpt>
      <trkpt lat="43.82109" lon="5.40052">
        <ele>594.71</ele>
        <time>2018-03-22T12:13:43Z</time>
      </trkpt>
      <trkpt lat="43.82118" lon="5.40055">
        <ele>596.64</ele>
        <time>2018-03-22T12:14:00Z</time>
      </trkpt>
      <trkpt lat="43.82128" lon="5.40057">
        <ele>599.52</ele>
        <time>2018-03-22T12:14:15Z</time>
      </trkpt>
      <trkpt lat="43.82139" lon="5.40067">
        <ele>600.48</ele>
        <time>2018-03-22T12:14:32Z</time>
      </trkpt>
      <trkpt lat="43.8214" lon="5.40069">
        <ele>601.44</ele>
        <time>2018-03-22T12:14:47Z</time>
      </trkpt>
      <trkpt lat="43.82136" lon="5.40077">
        <ele>601.44</ele>
        <time>2018-03-22T12:14:59Z</time>
      </trkpt>
      <trkpt lat="43.82135" lon="5.40083">
        <ele>603.36</ele>
        <time>2018-03-22T12:15:14Z</time>
      </trkpt>
      <trkpt lat="43.82133" lon="5.40093">
        <ele>604.33</ele>
        <time>2018-03-22T12:15:29Z</time>
      </trkpt>
      <trkpt lat="43.82132" lon="5.40095">
        <ele>604.33</ele>
        <time>2018-03-22T12:15:33Z</time>
      </trkpt>
      <trkpt lat="43.82132" lon="5.40106">
        <ele>606.25</ele>
        <time>2018-03-22T12:15:46Z</time>
      </trkpt>
      <trkpt lat="43.82128" lon="5.4012">
        <ele>608.65</ele>
        <time>2018-03-22T12:16:00Z</time>
      </trkpt>
      <trkpt lat="43.82123" lon="5.40134">
        <ele>610.57</ele>
        <time>2018-03-22T12:16:14Z</time>
      </trkpt>
      <trkpt lat="43.82119" lon="5.40147">
        <ele>612.98</ele>
        <time>2018-03-22T12:16:28Z</time>
      </trkpt>
      <trkpt lat="43.82117" lon="5.4015">
        <ele>613.46</ele>
        <time>2018-03-22T12:16:31Z</time>
      </trkpt>
      <trkpt lat="43.82112" lon="5.40168">
        <ele>613.94</ele>
        <time>2018-03-22T12:16:43Z</time>
      </trkpt>
      <trkpt lat="43.82111" lon="5.40181">
        <ele>614.42</ele>
        <time>2018-03-22T12:16:51Z</time>
      </trkpt>
      <trkpt lat="43.8211" lon="5.40196">
        <ele>614.9</ele>
        <time>2018-03-22T12:17:03Z</time>
      </trkpt>
      <trkpt lat="43.82109" lon="5.40203">
        <ele>615.86</ele>
        <time>2018-03-22T12:17:09Z</time>
      </trkpt>
      <trkpt lat="43.82107" lon="5.40208">
        <ele>615.86</ele>
        <time>2018-03-22T12:17:13Z</time>
      </trkpt>
      <trkpt lat="43.82107" lon="5.40212">
        <ele>616.82</ele>
        <time>2018-03-22T12:17:17Z</time>
      </trkpt>
      <trkpt lat="43.82107" lon="5.40218">
        <ele>616.82</ele>
        <time>2018-03-22T12:17:21Z</time>
      </trkpt>
      <trkpt lat="43.82106" lon="5.40227">
        <ele>617.3</ele>
        <time>2018-03-22T12:17:28Z</time>
      </trkpt>
      <trkpt lat="43.82108" lon="5.40233">
        <ele>617.78</ele>
        <time>2018-03-22T12:17:41Z</time>
      </trkpt>
      <trkpt lat="43.82111" lon="5.40241">
        <ele>618.26</ele>
        <time>2018-03-22T12:18:03Z</time>
      </trkpt>
      <trkpt lat="43.82111" lon="5.40242">
        <ele>618.26</ele>
        <time>2018-03-22T12:18:12Z</time>
      </trkpt>
      <trkpt lat="43.82115" lon="5.40248">
        <ele>618.26</ele>
        <time>2018-03-22T12:18:20Z</time>
      </trkpt>
      <trkpt lat="43.82124" lon="5.40258">
        <ele>618.26</ele>
        <time>2018-03-22T12:18:30Z</time>
      </trkpt>
      <trkpt lat="43.82131" lon="5.40264">
        <ele>616.82</ele>
        <time>2018-03-22T12:18:38Z</time>
      </trkpt>
      <trkpt lat="43.82138" lon="5.40269">
        <ele>615.38</ele>
        <time>2018-03-22T12:18:49Z</time>
      </trkpt>
      <trkpt lat="43.82148" lon="5.40278">
        <ele>614.9</ele>
        <time>2018-03-22T12:19:02Z</time>
      </trkpt>
      <trkpt lat="43.82159" lon="5.40288">
        <ele>614.42</ele>
        <time>2018-03-22T12:19:13Z</time>
      </trkpt>
      <trkpt lat="43.82167" lon="5.40296">
        <ele>613.46</ele>
        <time>2018-03-22T12:19:24Z</time>
      </trkpt>
      <trkpt lat="43.82176" lon="5.40306">
        <ele>612.5</ele>
        <time>2018-03-22T12:19:37Z</time>
      </trkpt>
      <trkpt lat="43.82184" lon="5.40317">
        <ele>610.57</ele>
        <time>2018-03-22T12:19:50Z</time>
      </trkpt>
      <trkpt lat="43.82187" lon="5.40318">
        <ele>610.09</ele>
        <time>2018-03-22T12:19:52Z</time>
      </trkpt>
      <trkpt lat="43.822" lon="5.40325">
        <ele>608.65</ele>
        <time>2018-03-22T12:20:04Z</time>
      </trkpt>
      <trkpt lat="43.8221" lon="5.40329">
        <ele>607.21</ele>
        <time>2018-03-22T12:20:14Z</time>
      </trkpt>
      <trkpt lat="43.82211" lon="5.40329">
        <ele>606.73</ele>
        <time>2018-03-22T12:20:15Z</time>
      </trkpt>
      <trkpt lat="43.82212" lon="5.4033">
        <ele>606.73</ele>
        <time>2018-03-22T12:20:16Z</time>
      </trkpt>
      <trkpt lat="43.82213" lon="5.40331">
        <ele>606.73</ele>
        <time>2018-03-22T12:20:17Z</time>
      </trkpt>
      <trkpt lat="43.82215" lon="5.40332">
        <ele>606.73</ele>
        <time>2018-03-22T12:20:18Z</time>
      </trkpt>
      <trkpt lat="43.82225" lon="5.4034">
        <ele>605.29</ele>
        <time>2018-03-22T12:20:30Z</time>
      </trkpt>
      <trkpt lat="43.82235" lon="5.40343">
        <ele>604.33</ele>
        <time>2018-03-22T12:20:40Z</time>
      </trkpt>
      <trkpt lat="43.82246" lon="5.40338">
        <ele>603.36</ele>
        <time>2018-03-22T12:20:51Z</time>
      </trkpt>
      <trkpt lat="43.82247" lon="5.40338">
        <ele>603.36</ele>
        <time>2018-03-22T12:20:52Z</time>
      </trkpt>
      <trkpt lat="43.82254" lon="5.40332">
        <ele>601.44</ele>
        <time>2018-03-22T12:21:04Z</time>
      </trkpt>
      <trkpt lat="43.82263" lon="5.40329">
        <ele>601.44</ele>
        <time>2018-03-22T12:21:13Z</time>
      </trkpt>
      <trkpt lat="43.8227" lon="5.40327">
        <ele>600</ele>
        <time>2018-03-22T12:21:20Z</time>
      </trkpt>
      <trkpt lat="43.82271" lon="5.40327">
        <ele>600</ele>
        <time>2018-03-22T12:21:21Z</time>
      </trkpt>
      <trkpt lat="43.82283" lon="5.40325">
        <ele>598.56</ele>
        <time>2018-03-22T12:21:33Z</time>
      </trkpt>
      <trkpt lat="43.82292" lon="5.40325">
        <ele>597.6</ele>
        <time>2018-03-22T12:21:44Z</time>
      </trkpt>
      <trkpt lat="43.82301" lon="5.40326">
        <ele>596.15</ele>
        <time>2018-03-22T12:21:55Z</time>
      </trkpt>
      <trkpt lat="43.82311" lon="5.40325">
        <ele>594.23</ele>
        <time>2018-03-22T12:22:04Z</time>
      </trkpt>
      <trkpt lat="43.82321" lon="5.40322">
        <ele>592.79</ele>
        <time>2018-03-22T12:22:15Z</time>
      </trkpt>
      <trkpt lat="43.82331" lon="5.40319">
        <ele>591.35</ele>
        <time>2018-03-22T12:22:25Z</time>
      </trkpt>
      <trkpt lat="43.82339" lon="5.4032">
        <ele>589.91</ele>
        <time>2018-03-22T12:22:37Z</time>
      </trkpt>
      <trkpt lat="43.82341" lon="5.40319">
        <ele>588.46</ele>
        <time>2018-03-22T12:22:42Z</time>
      </trkpt>
      <trkpt lat="43.82343" lon="5.40319">
        <ele>588.46</ele>
        <time>2018-03-22T12:22:43Z</time>
      </trkpt>
      <trkpt lat="43.82344" lon="5.40318">
        <ele>588.46</ele>
        <time>2018-03-22T12:22:44Z</time>
      </trkpt>
      <trkpt lat="43.82348" lon="5.40318">
        <ele>587.02</ele>
        <time>2018-03-22T12:22:51Z</time>
      </trkpt>
      <trkpt lat="43.82361" lon="5.40319">
        <ele>584.62</ele>
        <time>2018-03-22T12:23:04Z</time>
      </trkpt>
      <trkpt lat="43.82371" lon="5.40318">
        <ele>583.18</ele>
        <time>2018-03-22T12:23:13Z</time>
      </trkpt>
      <trkpt lat="43.82372" lon="5.40318">
        <ele>583.18</ele>
        <time>2018-03-22T12:23:14Z</time>
      </trkpt>
      <trkpt lat="43.82374" lon="5.40317">
        <ele>583.18</ele>
        <time>2018-03-22T12:23:15Z</time>
      </trkpt>
      <trkpt lat="43.82376" lon="5.40317">
        <ele>583.18</ele>
        <time>2018-03-22T12:23:16Z</time>
      </trkpt>
      <trkpt lat="43.82385" lon="5.40314">
        <ele>582.22</ele>
        <time>2018-03-22T12:23:25Z</time>
      </trkpt>
      <trkpt lat="43.82388" lon="5.40314">
        <ele>582.22</ele>
        <time>2018-03-22T12:23:30Z</time>
      </trkpt>
      <trkpt lat="43.82388" lon="5.40313">
        <ele>581.73</ele>
        <time>2018-03-22T12:23:31Z</time>
      </trkpt>
      <trkpt lat="43.8239" lon="5.40312">
        <ele>581.25</ele>
        <time>2018-03-22T12:23:32Z</time>
      </trkpt>
      <trkpt lat="43.82392" lon="5.40311">
        <ele>581.25</ele>
        <time>2018-03-22T12:23:33Z</time>
      </trkpt>
      <trkpt lat="43.82394" lon="5.40311">
        <ele>581.25</ele>
        <time>2018-03-22T12:23:34Z</time>
      </trkpt>
      <trkpt lat="43.82402" lon="5.40306">
        <ele>581.25</ele>
        <time>2018-03-22T12:23:44Z</time>
      </trkpt>
      <trkpt lat="43.82408" lon="5.40301">
        <ele>580.77</ele>
        <time>2018-03-22T12:23:50Z</time>
      </trkpt>
      <trkpt lat="43.82409" lon="5.403">
        <ele>580.77</ele>
        <time>2018-03-22T12:23:51Z</time>
      </trkpt>
      <trkpt lat="43.8241" lon="5.40298">
        <ele>580.77</ele>
        <time>2018-03-22T12:23:52Z</time>
      </trkpt>
      <trkpt lat="43.82411" lon="5.40297">
        <ele>580.77</ele>
        <time>2018-03-22T12:23:53Z</time>
      </trkpt>
      <trkpt lat="43.82413" lon="5.40296">
        <ele>580.77</ele>
        <time>2018-03-22T12:23:54Z</time>
      </trkpt>
      <trkpt lat="43.82421" lon="5.40281">
        <ele>579.81</ele>
        <time>2018-03-22T12:24:04Z</time>
      </trkpt>
      <trkpt lat="43.82422" lon="5.4028">
        <ele>579.81</ele>
        <time>2018-03-22T12:24:05Z</time>
      </trkpt>
      <trkpt lat="43.82423" lon="5.40279">
        <ele>579.81</ele>
        <time>2018-03-22T12:24:06Z</time>
      </trkpt>
      <trkpt lat="43.82425" lon="5.40275">
        <ele>579.33</ele>
        <time>2018-03-22T12:24:09Z</time>
      </trkpt>
      <trkpt lat="43.82433" lon="5.40262">
        <ele>577.89</ele>
        <time>2018-03-22T12:24:21Z</time>
      </trkpt>
      <trkpt lat="43.82445" lon="5.40248">
        <ele>576.45</ele>
        <time>2018-03-22T12:24:36Z</time>
      </trkpt>
      <trkpt lat="43.82458" lon="5.40239">
        <ele>575.49</ele>
        <time>2018-03-22T12:24:49Z</time>
      </trkpt>
      <trkpt lat="43.82468" lon="5.40223">
        <ele>573.56</ele>
        <time>2018-03-22T12:25:04Z</time>
      </trkpt>
      <trkpt lat="43.8247" lon="5.40219">
        <ele>573.08</ele>
        <time>2018-03-22T12:25:08Z</time>
      </trkpt>
      <trkpt lat="43.82481" lon="5.40204">
        <ele>571.64</ele>
        <time>2018-03-22T12:25:22Z</time>
      </trkpt>
      <trkpt lat="43.82491" lon="5.40194">
        <ele>570.2</ele>
        <time>2018-03-22T12:25:35Z</time>
      </trkpt>
      <trkpt lat="43.82495" lon="5.40192">
        <ele>569.24</ele>
        <time>2018-03-22T12:25:41Z</time>
      </trkpt>
      <trkpt lat="43.82496" lon="5.40192">
        <ele>569.24</ele>
        <time>2018-03-22T12:25:42Z</time>
      </trkpt>
      <trkpt lat="43.82498" lon="5.40192">
        <ele>569.24</ele>
        <time>2018-03-22T12:25:43Z</time>
      </trkpt>
      <trkpt lat="43.82499" lon="5.40192">
        <ele>568.76</ele>
        <time>2018-03-22T12:25:44Z</time>
      </trkpt>
      <trkpt lat="43.82501" lon="5.40192">
        <ele>568.76</ele>
        <time>2018-03-22T12:25:45Z</time>
      </trkpt>
      <trkpt lat="43.82505" lon="5.40188">
        <ele>568.28</ele>
        <time>2018-03-22T12:25:51Z</time>
      </trkpt>
      <trkpt lat="43.82506" lon="5.40187">
        <ele>568.28</ele>
        <time>2018-03-22T12:25:52Z</time>
      </trkpt>
      <trkpt lat="43.82507" lon="5.40186">
        <ele>568.28</ele>
        <time>2018-03-22T12:25:53Z</time>
      </trkpt>
      <trkpt lat="43.82509" lon="5.40185">
        <ele>567.8</ele>
        <time>2018-03-22T12:25:54Z</time>
      </trkpt>
      <trkpt lat="43.8251" lon="5.40185">
        <ele>567.8</ele>
        <time>2018-03-22T12:25:55Z</time>
      </trkpt>
      <trkpt lat="43.82514" lon="5.40183">
        <ele>567.8</ele>
        <time>2018-03-22T12:26:01Z</time>
      </trkpt>
      <trkpt lat="43.82516" lon="5.40182">
        <ele>567.32</ele>
        <time>2018-03-22T12:26:02Z</time>
      </trkpt>
      <trkpt lat="43.82522" lon="5.40179">
        <ele>567.32</ele>
        <time>2018-03-22T12:26:16Z</time>
      </trkpt>
      <trkpt lat="43.82524" lon="5.40176">
        <ele>566.83</ele>
        <time>2018-03-22T12:26:34Z</time>
      </trkpt>
      <trkpt lat="43.82527" lon="5.40177">
        <ele>566.83</ele>
        <time>2018-03-22T12:26:44Z</time>
      </trkpt>
      <trkpt lat="43.82539" lon="5.40178">
        <ele>566.83</ele>
        <time>2018-03-22T12:26:54Z</time>
      </trkpt>
      <trkpt lat="43.8254" lon="5.40177">
        <ele>566.83</ele>
        <time>2018-03-22T12:26:55Z</time>
      </trkpt>
      <trkpt lat="43.82541" lon="5.40176">
        <ele>566.83</ele>
        <time>2018-03-22T12:26:56Z</time>
      </trkpt>
      <trkpt lat="43.82553" lon="5.40161">
        <ele>568.76</ele>
        <time>2018-03-22T12:27:12Z</time>
      </trkpt>
      <trkpt lat="43.82558" lon="5.40146">
        <ele>569.72</ele>
        <time>2018-03-22T12:27:25Z</time>
      </trkpt>
      <trkpt lat="43.82562" lon="5.40131">
        <ele>571.64</ele>
        <time>2018-03-22T12:27:38Z</time>
      </trkpt>
      <trkpt lat="43.8256" lon="5.40107">
        <ele>573.56</ele>
        <time>2018-03-22T12:27:55Z</time>
      </trkpt>
      <trkpt lat="43.82559" lon="5.40087">
        <ele>575.49</ele>
        <time>2018-03-22T12:28:09Z</time>
      </trkpt>
      <trkpt lat="43.82559" lon="5.40086">
        <ele>575.97</ele>
        <time>2018-03-22T12:28:10Z</time>
      </trkpt>
      <trkpt lat="43.82561" lon="5.40071">
        <ele>577.89</ele>
        <time>2018-03-22T12:28:23Z</time>
      </trkpt>
      <trkpt lat="43.82561" lon="5.40062">
        <ele>578.37</ele>
        <time>2018-03-22T12:28:29Z</time>
      </trkpt>
      <trkpt lat="43.82564" lon="5.40058">
        <ele>579.33</ele>
        <time>2018-03-22T12:28:33Z</time>
      </trkpt>
      <trkpt lat="43.82565" lon="5.40058">
        <ele>579.33</ele>
        <time>2018-03-22T12:28:34Z</time>
      </trkpt>
      <trkpt lat="43.82569" lon="5.40057">
        <ele>579.33</ele>
        <time>2018-03-22T12:28:38Z</time>
      </trkpt>
      <trkpt lat="43.82581" lon="5.40068">
        <ele>579.81</ele>
        <time>2018-03-22T12:28:52Z</time>
      </trkpt>
      <trkpt lat="43.82588" lon="5.40069">
        <ele>580.29</ele>
        <time>2018-03-22T12:29:02Z</time>
      </trkpt>
      <trkpt lat="43.82593" lon="5.40071">
        <ele>580.77</ele>
        <time>2018-03-22T12:29:08Z</time>
      </trkpt>
      <trkpt lat="43.82601" lon="5.40081">
        <ele>581.73</ele>
        <time>2018-03-22T12:29:20Z</time>
      </trkpt>
      <trkpt lat="43.82609" lon="5.4009">
        <ele>582.22</ele>
        <time>2018-03-22T12:29:32Z</time>
      </trkpt>
      <trkpt lat="43.82617" lon="5.40103">
        <ele>582.7</ele>
        <time>2018-03-22T12:29:45Z</time>
      </trkpt>
      <trkpt lat="43.82624" lon="5.40119">
        <ele>582.7</ele>
        <time>2018-03-22T12:29:58Z</time>
      </trkpt>
      <trkpt lat="43.82628" lon="5.40133">
        <ele>582.7</ele>
        <time>2018-03-22T12:30:10Z</time>
      </trkpt>
      <trkpt lat="43.8263" lon="5.40136">
        <ele>581.73</ele>
        <time>2018-03-22T12:30:14Z</time>
      </trkpt>
      <trkpt lat="43.8263" lon="5.40138">
        <ele>581.73</ele>
        <time>2018-03-22T12:30:15Z</time>
      </trkpt>
      <trkpt lat="43.82638" lon="5.40155">
        <ele>581.25</ele>
        <time>2018-03-22T12:30:28Z</time>
      </trkpt>
      <trkpt lat="43.82641" lon="5.4016">
        <ele>581.25</ele>
        <time>2018-03-22T12:30:33Z</time>
      </trkpt>
      <trkpt lat="43.82642" lon="5.40161">
        <ele>581.25</ele>
        <time>2018-03-22T12:30:34Z</time>
      </trkpt>
      <trkpt lat="43.82651" lon="5.40174">
        <ele>581.25</ele>
        <time>2018-03-22T12:30:47Z</time>
      </trkpt>
      <trkpt lat="43.8266" lon="5.40192">
        <ele>580.77</ele>
        <time>2018-03-22T12:31:02Z</time>
      </trkpt>
      <trkpt lat="43.82665" lon="5.40213">
        <ele>579.81</ele>
        <time>2018-03-22T12:31:17Z</time>
      </trkpt>
      <trkpt lat="43.82663" lon="5.40228">
        <ele>578.85</ele>
        <time>2018-03-22T12:31:29Z</time>
      </trkpt>
      <trkpt lat="43.82659" lon="5.40243">
        <ele>578.37</ele>
        <time>2018-03-22T12:31:42Z</time>
      </trkpt>
      <trkpt lat="43.82652" lon="5.40261">
        <ele>577.41</ele>
        <time>2018-03-22T12:31:56Z</time>
      </trkpt>
      <trkpt lat="43.8265" lon="5.4027">
        <ele>575.97</ele>
        <time>2018-03-22T12:32:03Z</time>
      </trkpt>
      <trkpt lat="43.8265" lon="5.40272">
        <ele>575.97</ele>
        <time>2018-03-22T12:32:04Z</time>
      </trkpt>
      <trkpt lat="43.82649" lon="5.40274">
        <ele>575.97</ele>
        <time>2018-03-22T12:32:05Z</time>
      </trkpt>
      <trkpt lat="43.82647" lon="5.40281">
        <ele>575.01</ele>
        <time>2018-03-22T12:32:11Z</time>
      </trkpt>
      <trkpt lat="43.82647" lon="5.40283">
        <ele>575.01</ele>
        <time>2018-03-22T12:32:12Z</time>
      </trkpt>
      <trkpt lat="43.82647" lon="5.40285">
        <ele>575.01</ele>
        <time>2018-03-22T12:32:13Z</time>
      </trkpt>
      <trkpt lat="43.82646" lon="5.4029">
        <ele>574.53</ele>
        <time>2018-03-22T12:32:18Z</time>
      </trkpt>
      <trkpt lat="43.82646" lon="5.40292">
        <ele>574.53</ele>
        <time>2018-03-22T12:32:19Z</time>
      </trkpt>
      <trkpt lat="43.82646" lon="5.40294">
        <ele>574.53</ele>
        <time>2018-03-22T12:32:20Z</time>
      </trkpt>
      <trkpt lat="43.82647" lon="5.4031">
        <ele>572.12</ele>
        <time>2018-03-22T12:32:31Z</time>
      </trkpt>
      <trkpt lat="43.82648" lon="5.40326">
        <ele>570.68</ele>
        <time>2018-03-22T12:32:44Z</time>
      </trkpt>
      <trkpt lat="43.82649" lon="5.40334">
        <ele>570.2</ele>
        <time>2018-03-22T12:32:50Z</time>
      </trkpt>
      <trkpt lat="43.8265" lon="5.40336">
        <ele>569.72</ele>
        <time>2018-03-22T12:32:51Z</time>
      </trkpt>
      <trkpt lat="43.8265" lon="5.40338">
        <ele>569.72</ele>
        <time>2018-03-22T12:32:52Z</time>
      </trkpt>
      <trkpt lat="43.8265" lon="5.4034">
        <ele>569.72</ele>
        <time>2018-03-22T12:32:53Z</time>
      </trkpt>
      <trkpt lat="43.8265" lon="5.40342">
        <ele>569.72</ele>
        <time>2018-03-22T12:32:54Z</time>
      </trkpt>
      <trkpt lat="43.8265" lon="5.40347">
        <ele>568.76</ele>
        <time>2018-03-22T12:33:00Z</time>
      </trkpt>
      <trkpt lat="43.8265" lon="5.40349">
        <ele>568.76</ele>
        <time>2018-03-22T12:33:01Z</time>
      </trkpt>
      <trkpt lat="43.82648" lon="5.40362">
        <ele>567.32</ele>
        <time>2018-03-22T12:33:13Z</time>
      </trkpt>
      <trkpt lat="43.82647" lon="5.40375">
        <ele>565.87</ele>
        <time>2018-03-22T12:33:22Z</time>
      </trkpt>
      <trkpt lat="43.82646" lon="5.40376">
        <ele>565.87</ele>
        <time>2018-03-22T12:33:23Z</time>
      </trkpt>
      <trkpt lat="43.82642" lon="5.40391">
        <ele>564.43</ele>
        <time>2018-03-22T12:33:34Z</time>
      </trkpt>
      <trkpt lat="43.82641" lon="5.40392">
        <ele>564.43</ele>
        <time>2018-03-22T12:33:35Z</time>
      </trkpt>
      <trkpt lat="43.82641" lon="5.40394">
        <ele>563.95</ele>
        <time>2018-03-22T12:33:36Z</time>
      </trkpt>
      <trkpt lat="43.82639" lon="5.40409">
        <ele>563.95</ele>
        <time>2018-03-22T12:33:48Z</time>
      </trkpt>
      <trkpt lat="43.82636" lon="5.40426">
        <ele>563.47</ele>
        <time>2018-03-22T12:34:01Z</time>
      </trkpt>
      <trkpt lat="43.82636" lon="5.40428">
        <ele>563.47</ele>
        <time>2018-03-22T12:34:02Z</time>
      </trkpt>
      <trkpt lat="43.82637" lon="5.40435">
        <ele>563.47</ele>
        <time>2018-03-22T12:34:08Z</time>
      </trkpt>
      <trkpt lat="43.82641" lon="5.4044">
        <ele>563.47</ele>
        <time>2018-03-22T12:34:14Z</time>
      </trkpt>
      <trkpt lat="43.82642" lon="5.4044">
        <ele>563.47</ele>
        <time>2018-03-22T12:34:15Z</time>
      </trkpt>
      <trkpt lat="43.82643" lon="5.40441">
        <ele>563.47</ele>
        <time>2018-03-22T12:34:16Z</time>
      </trkpt>
      <trkpt lat="43.82652" lon="5.40442">
        <ele>562.99</ele>
        <time>2018-03-22T12:34:27Z</time>
      </trkpt>
      <trkpt lat="43.82654" lon="5.40441">
        <ele>562.99</ele>
        <time>2018-03-22T12:34:30Z</time>
      </trkpt>
      <trkpt lat="43.82668" lon="5.40431">
        <ele>562.03</ele>
        <time>2018-03-22T12:34:45Z</time>
      </trkpt>
      <trkpt lat="43.82672" lon="5.4043">
        <ele>562.03</ele>
        <time>2018-03-22T12:34:50Z</time>
      </trkpt>
      <trkpt lat="43.82674" lon="5.40428">
        <ele>562.03</ele>
        <time>2018-03-22T12:34:51Z</time>
      </trkpt>
      <trkpt lat="43.82685" lon="5.40421">
        <ele>561.55</ele>
        <time>2018-03-22T12:35:04Z</time>
      </trkpt>
      <trkpt lat="43.82694" lon="5.40412">
        <ele>561.07</ele>
        <time>2018-03-22T12:35:15Z</time>
      </trkpt>
      <trkpt lat="43.82691" lon="5.40412">
        <ele>561.07</ele>
        <time>2018-03-22T12:35:26Z</time>
      </trkpt>
      <trkpt lat="43.82692" lon="5.40411">
        <ele>561.07</ele>
        <time>2018-03-22T12:35:27Z</time>
      </trkpt>
      <trkpt lat="43.82703" lon="5.40407">
        <ele>561.07</ele>
        <time>2018-03-22T12:35:39Z</time>
      </trkpt>
      <trkpt lat="43.82716" lon="5.40401">
        <ele>561.07</ele>
        <time>2018-03-22T12:35:51Z</time>
      </trkpt>
      <trkpt lat="43.82725" lon="5.40398">
        <ele>560.11</ele>
        <time>2018-03-22T12:36:01Z</time>
      </trkpt>
      <trkpt lat="43.82738" lon="5.40386">
        <ele>558.66</ele>
        <time>2018-03-22T12:36:14Z</time>
      </trkpt>
      <trkpt lat="43.8274" lon="5.40384">
        <ele>558.66</ele>
        <time>2018-03-22T12:36:18Z</time>
      </trkpt>
      <trkpt lat="43.82741" lon="5.40382">
        <ele>558.66</ele>
        <time>2018-03-22T12:36:19Z</time>
      </trkpt>
      <trkpt lat="43.82752" lon="5.40365">
        <ele>558.66</ele>
        <time>2018-03-22T12:36:31Z</time>
      </trkpt>
      <trkpt lat="43.82762" lon="5.40355">
        <ele>558.66</ele>
        <time>2018-03-22T12:36:43Z</time>
      </trkpt>
      <trkpt lat="43.82773" lon="5.40343">
        <ele>560.59</ele>
        <time>2018-03-22T12:36:57Z</time>
      </trkpt>
      <trkpt lat="43.8278" lon="5.40331">
        <ele>559.14</ele>
        <time>2018-03-22T12:37:08Z</time>
      </trkpt>
      <trkpt lat="43.82789" lon="5.40322">
        <ele>558.18</ele>
        <time>2018-03-22T12:37:19Z</time>
      </trkpt>
      <trkpt lat="43.82804" lon="5.4031">
        <ele>558.18</ele>
        <time>2018-03-22T12:37:36Z</time>
      </trkpt>
      <trkpt lat="43.82819" lon="5.40305">
        <ele>559.62</ele>
        <time>2018-03-22T12:37:49Z</time>
      </trkpt>
      <trkpt lat="43.8282" lon="5.40304">
        <ele>559.62</ele>
        <time>2018-03-22T12:37:50Z</time>
      </trkpt>
      <trkpt lat="43.82824" lon="5.40303">
        <ele>558.18</ele>
        <time>2018-03-22T12:37:55Z</time>
      </trkpt>
      <trkpt lat="43.82825" lon="5.40302">
        <ele>558.18</ele>
        <time>2018-03-22T12:37:56Z</time>
      </trkpt>
      <trkpt lat="43.82829" lon="5.40299">
        <ele>558.18</ele>
        <time>2018-03-22T12:38:02Z</time>
      </trkpt>
      <trkpt lat="43.82831" lon="5.40298">
        <ele>558.18</ele>
        <time>2018-03-22T12:38:03Z</time>
      </trkpt>
      <trkpt lat="43.82832" lon="5.40298">
        <ele>558.18</ele>
        <time>2018-03-22T12:38:04Z</time>
      </trkpt>
      <trkpt lat="43.82834" lon="5.40296">
        <ele>558.18</ele>
        <time>2018-03-22T12:38:09Z</time>
      </trkpt>
      <trkpt lat="43.82842" lon="5.40296">
        <ele>560.11</ele>
        <time>2018-03-22T12:38:21Z</time>
      </trkpt>
      <trkpt lat="43.82845" lon="5.40299">
        <ele>562.03</ele>
        <time>2018-03-22T12:38:34Z</time>
      </trkpt>
      <trkpt lat="43.8284" lon="5.40309">
        <ele>564.91</ele>
        <time>2018-03-22T12:38:47Z</time>
      </trkpt>
      <trkpt lat="43.82838" lon="5.40322">
        <ele>566.35</ele>
        <time>2018-03-22T12:39:05Z</time>
      </trkpt>
      <trkpt lat="43.82844" lon="5.40318">
        <ele>567.32</ele>
        <time>2018-03-22T12:39:22Z</time>
      </trkpt>
      <trkpt lat="43.82847" lon="5.40314">
        <ele>568.76</ele>
        <time>2018-03-22T12:39:34Z</time>
      </trkpt>
      <trkpt lat="43.82852" lon="5.40312">
        <ele>569.24</ele>
        <time>2018-03-22T12:39:48Z</time>
      </trkpt>
      <trkpt lat="43.82859" lon="5.40311">
        <ele>570.68</ele>
        <time>2018-03-22T12:39:56Z</time>
      </trkpt>
      <trkpt lat="43.82868" lon="5.40312">
        <ele>572.6</ele>
        <time>2018-03-22T12:40:06Z</time>
      </trkpt>
      <trkpt lat="43.82875" lon="5.4032">
        <ele>573.08</ele>
        <time>2018-03-22T12:40:18Z</time>
      </trkpt>
      <trkpt lat="43.82883" lon="5.40326">
        <ele>571.64</ele>
        <time>2018-03-22T12:40:29Z</time>
      </trkpt>
      <trkpt lat="43.82885" lon="5.40327">
        <ele>571.64</ele>
        <time>2018-03-22T12:40:30Z</time>
      </trkpt>
      <trkpt lat="43.82886" lon="5.40329">
        <ele>571.64</ele>
        <time>2018-03-22T12:40:33Z</time>
      </trkpt>
      <trkpt lat="43.82887" lon="5.40329">
        <ele>571.64</ele>
        <time>2018-03-22T12:40:34Z</time>
      </trkpt>
      <trkpt lat="43.8289" lon="5.40333">
        <ele>571.64</ele>
        <time>2018-03-22T12:40:43Z</time>
      </trkpt>
      <trkpt lat="43.82893" lon="5.40338">
        <ele>571.64</ele>
        <time>2018-03-22T12:40:48Z</time>
      </trkpt>
      <trkpt lat="43.82896" lon="5.40339">
        <ele>571.64</ele>
        <time>2018-03-22T12:40:51Z</time>
      </trkpt>
      <trkpt lat="43.82897" lon="5.40339">
        <ele>571.64</ele>
        <time>2018-03-22T12:40:52Z</time>
      </trkpt>
      <trkpt lat="43.82904" lon="5.40348">
        <ele>572.6</ele>
        <time>2018-03-22T12:41:03Z</time>
      </trkpt>
      <trkpt lat="43.82904" lon="5.4035">
        <ele>572.6</ele>
        <time>2018-03-22T12:41:09Z</time>
      </trkpt>
      <trkpt lat="43.8291" lon="5.40352">
        <ele>572.6</ele>
        <time>2018-03-22T12:41:18Z</time>
      </trkpt>
      <trkpt lat="43.82911" lon="5.40355">
        <ele>572.6</ele>
        <time>2018-03-22T12:41:24Z</time>
      </trkpt>
      <trkpt lat="43.8291" lon="5.40354">
        <ele>572.6</ele>
        <time>2018-03-22T12:41:39Z</time>
      </trkpt>
      <trkpt lat="43.82908" lon="5.40357">
        <ele>573.56</ele>
        <time>2018-03-22T12:41:59Z</time>
      </trkpt>
      <trkpt lat="43.82909" lon="5.40359">
        <ele>573.56</ele>
        <time>2018-03-22T12:42:12Z</time>
      </trkpt>
      <trkpt lat="43.82912" lon="5.40359">
        <ele>573.56</ele>
        <time>2018-03-22T12:42:41Z</time>
      </trkpt>
      <trkpt lat="43.82912" lon="5.40359">
        <ele>573.56</ele>
        <time>2018-03-22T12:43:05Z</time>
      </trkpt>
      <trkpt lat="43.82913" lon="5.40358">
        <ele>573.56</ele>
        <time>2018-03-22T12:43:16Z</time>
      </trkpt>
      <trkpt lat="43.82916" lon="5.40353">
        <ele>574.04</ele>
        <time>2018-03-22T12:43:22Z</time>
      </trkpt>
      <trkpt lat="43.82916" lon="5.40353">
        <ele>572.6</ele>
        <time>2018-03-22T12:43:35Z</time>
      </trkpt>
      <trkpt lat="43.82924" lon="5.40342">
        <ele>572.12</ele>
        <time>2018-03-22T12:43:47Z</time>
      </trkpt>
      <trkpt lat="43.82934" lon="5.40334">
        <ele>571.16</ele>
        <time>2018-03-22T12:43:57Z</time>
      </trkpt>
      <trkpt lat="43.82945" lon="5.40327">
        <ele>570.68</ele>
        <time>2018-03-22T12:44:09Z</time>
      </trkpt>
      <trkpt lat="43.82951" lon="5.40323">
        <ele>570.2</ele>
        <time>2018-03-22T12:44:16Z</time>
      </trkpt>
      <trkpt lat="43.8296" lon="5.40314">
        <ele>569.24</ele>
        <time>2018-03-22T12:44:27Z</time>
      </trkpt>
      <trkpt lat="43.82961" lon="5.40313">
        <ele>569.24</ele>
        <time>2018-03-22T12:44:28Z</time>
      </trkpt>
      <trkpt lat="43.82962" lon="5.40312">
        <ele>569.24</ele>
        <time>2018-03-22T12:44:29Z</time>
      </trkpt>
      <trkpt lat="43.82977" lon="5.403">
        <ele>568.76</ele>
        <time>2018-03-22T12:44:44Z</time>
      </trkpt>
      <trkpt lat="43.82986" lon="5.40292">
        <ele>568.28</ele>
        <time>2018-03-22T12:44:57Z</time>
      </trkpt>
      <trkpt lat="43.82991" lon="5.40285">
        <ele>568.28</ele>
        <time>2018-03-22T12:45:06Z</time>
      </trkpt>
      <trkpt lat="43.82998" lon="5.40281">
        <ele>567.32</ele>
        <time>2018-03-22T12:45:15Z</time>
      </trkpt>
      <trkpt lat="43.82999" lon="5.4028">
        <ele>566.83</ele>
        <time>2018-03-22T12:45:16Z</time>
      </trkpt>
      <trkpt lat="43.83" lon="5.40279">
        <ele>566.83</ele>
        <time>2018-03-22T12:45:17Z</time>
      </trkpt>
      <trkpt lat="43.83008" lon="5.40273">
        <ele>566.35</ele>
        <time>2018-03-22T12:45:25Z</time>
      </trkpt>
      <trkpt lat="43.8302" lon="5.40259">
        <ele>565.87</ele>
        <time>2018-03-22T12:45:41Z</time>
      </trkpt>
      <trkpt lat="43.8303" lon="5.40248">
        <ele>564.91</ele>
        <time>2018-03-22T12:45:56Z</time>
      </trkpt>
      <trkpt lat="43.83038" lon="5.4024">
        <ele>562.99</ele>
        <time>2018-03-22T12:46:10Z</time>
      </trkpt>
      <trkpt lat="43.83045" lon="5.40239">
        <ele>562.03</ele>
        <time>2018-03-22T12:46:22Z</time>
      </trkpt>
      <trkpt lat="43.83048" lon="5.40245">
        <ele>561.07</ele>
        <time>2018-03-22T12:46:35Z</time>
      </trkpt>
      <trkpt lat="43.83048" lon="5.40248">
        <ele>560.11</ele>
        <time>2018-03-22T12:46:41Z</time>
      </trkpt>
      <trkpt lat="43.83048" lon="5.40249">
        <ele>560.11</ele>
        <time>2018-03-22T12:46:42Z</time>
      </trkpt>
      <trkpt lat="43.83048" lon="5.40261">
        <ele>559.62</ele>
        <time>2018-03-22T12:46:54Z</time>
      </trkpt>
      <trkpt lat="43.83047" lon="5.40263">
        <ele>559.62</ele>
        <time>2018-03-22T12:46:55Z</time>
      </trkpt>
      <trkpt lat="43.83045" lon="5.40279">
        <ele>559.14</ele>
        <time>2018-03-22T12:47:09Z</time>
      </trkpt>
      <trkpt lat="43.83044" lon="5.40295">
        <ele>558.18</ele>
        <time>2018-03-22T12:47:22Z</time>
      </trkpt>
      <trkpt lat="43.83044" lon="5.40297">
        <ele>557.7</ele>
        <time>2018-03-22T12:47:23Z</time>
      </trkpt>
      <trkpt lat="43.83042" lon="5.40318">
        <ele>556.74</ele>
        <time>2018-03-22T12:47:40Z</time>
      </trkpt>
      <trkpt lat="43.83043" lon="5.40341">
        <ele>555.78</ele>
        <time>2018-03-22T12:47:56Z</time>
      </trkpt>
      <trkpt lat="43.83043" lon="5.4035">
        <ele>555.3</ele>
        <time>2018-03-22T12:48:08Z</time>
      </trkpt>
      <trkpt lat="43.83042" lon="5.40358">
        <ele>553.86</ele>
        <time>2018-03-22T12:48:24Z</time>
      </trkpt>
      <trkpt lat="43.83042" lon="5.40361">
        <ele>553.38</ele>
        <time>2018-03-22T12:48:26Z</time>
      </trkpt>
      <trkpt lat="43.83042" lon="5.40363">
        <ele>553.38</ele>
        <time>2018-03-22T12:48:27Z</time>
      </trkpt>
      <trkpt lat="43.8304" lon="5.40378">
        <ele>552.41</ele>
        <time>2018-03-22T12:48:40Z</time>
      </trkpt>
      <trkpt lat="43.83039" lon="5.4039">
        <ele>550.97</ele>
        <time>2018-03-22T12:48:51Z</time>
      </trkpt>
      <trkpt lat="43.8304" lon="5.40399">
        <ele>550.01</ele>
        <time>2018-03-22T12:48:59Z</time>
      </trkpt>
      <trkpt lat="43.83043" lon="5.40411">
        <ele>548.57</ele>
        <time>2018-03-22T12:49:11Z</time>
      </trkpt>
      <trkpt lat="43.83047" lon="5.40416">
        <ele>547.61</ele>
        <time>2018-03-22T12:49:15Z</time>
      </trkpt>
      <trkpt lat="43.83048" lon="5.40415">
        <ele>547.13</ele>
        <time>2018-03-22T12:49:16Z</time>
      </trkpt>
      <trkpt lat="43.83055" lon="5.40407">
        <ele>545.69</ele>
        <time>2018-03-22T12:49:28Z</time>
      </trkpt>
      <trkpt lat="43.83058" lon="5.40403">
        <ele>544.72</ele>
        <time>2018-03-22T12:49:33Z</time>
      </trkpt>
      <trkpt lat="43.83063" lon="5.40396">
        <ele>543.28</ele>
        <time>2018-03-22T12:49:44Z</time>
      </trkpt>
      <trkpt lat="43.8307" lon="5.40386">
        <ele>541.84</ele>
        <time>2018-03-22T12:49:55Z</time>
      </trkpt>
      <trkpt lat="43.83077" lon="5.40376">
        <ele>539.44</ele>
        <time>2018-03-22T12:50:08Z</time>
      </trkpt>
      <trkpt lat="43.83083" lon="5.40368">
        <ele>538.48</ele>
        <time>2018-03-22T12:50:18Z</time>
      </trkpt>
      <trkpt lat="43.83089" lon="5.40353">
        <ele>537.03</ele>
        <time>2018-03-22T12:50:31Z</time>
      </trkpt>
      <trkpt lat="43.83091" lon="5.40348">
        <ele>535.59</ele>
        <time>2018-03-22T12:50:37Z</time>
      </trkpt>
      <trkpt lat="43.83097" lon="5.40337">
        <ele>535.11</ele>
        <time>2018-03-22T12:50:50Z</time>
      </trkpt>
      <trkpt lat="43.83099" lon="5.40334">
        <ele>534.63</ele>
        <time>2018-03-22T12:51:05Z</time>
      </trkpt>
      <trkpt lat="43.831" lon="5.40334">
        <ele>534.15</ele>
        <time>2018-03-22T12:51:28Z</time>
      </trkpt>
      <trkpt lat="43.831" lon="5.40334">
        <ele>535.11</ele>
        <time>2018-03-22T12:51:49Z</time>
      </trkpt>
      <trkpt lat="43.831" lon="5.40334">
        <ele>535.11</ele>
        <time>2018-03-22T12:52:05Z</time>
      </trkpt>
      <trkpt lat="43.83101" lon="5.40336">
        <ele>535.59</ele>
        <time>2018-03-22T12:52:22Z</time>
      </trkpt>
      <trkpt lat="43.83102" lon="5.40335">
        <ele>535.11</ele>
        <time>2018-03-22T12:52:35Z</time>
      </trkpt>
      <trkpt lat="43.831" lon="5.40334">
        <ele>535.11</ele>
        <time>2018-03-22T12:52:46Z</time>
      </trkpt>
      <trkpt lat="43.83102" lon="5.40335">
        <ele>535.11</ele>
        <time>2018-03-22T12:52:54Z</time>
      </trkpt>
      <trkpt lat="43.83103" lon="5.40335">
        <ele>535.11</ele>
        <time>2018-03-22T12:52:55Z</time>
      </trkpt>
      <trkpt lat="43.8311" lon="5.40337">
        <ele>533.67</ele>
        <time>2018-03-22T12:53:00Z</time>
      </trkpt>
      <trkpt lat="43.83123" lon="5.40344">
        <ele>532.71</ele>
        <time>2018-03-22T12:53:12Z</time>
      </trkpt>
      <trkpt lat="43.83125" lon="5.40342">
        <ele>532.71</ele>
        <time>2018-03-22T12:53:14Z</time>
      </trkpt>
      <trkpt lat="43.83139" lon="5.40329">
        <ele>532.23</ele>
        <time>2018-03-22T12:53:26Z</time>
      </trkpt>
      <trkpt lat="43.8315" lon="5.40315">
        <ele>530.79</ele>
        <time>2018-03-22T12:53:41Z</time>
      </trkpt>
      <trkpt lat="43.83159" lon="5.40307">
        <ele>529.82</ele>
        <time>2018-03-22T12:53:47Z</time>
      </trkpt>
      <trkpt lat="43.83169" lon="5.40302">
        <ele>528.86</ele>
        <time>2018-03-22T12:53:58Z</time>
      </trkpt>
      <trkpt lat="43.83172" lon="5.40298">
        <ele>528.38</ele>
        <time>2018-03-22T12:54:00Z</time>
      </trkpt>
      <trkpt lat="43.83174" lon="5.40297">
        <ele>528.38</ele>
        <time>2018-03-22T12:54:01Z</time>
      </trkpt>
      <trkpt lat="43.83175" lon="5.40297">
        <ele>528.38</ele>
        <time>2018-03-22T12:54:02Z</time>
      </trkpt>
      <trkpt lat="43.83182" lon="5.40297">
        <ele>527.42</ele>
        <time>2018-03-22T12:54:10Z</time>
      </trkpt>
      <trkpt lat="43.83191" lon="5.40291">
        <ele>526.94</ele>
        <time>2018-03-22T12:54:15Z</time>
      </trkpt>
      <trkpt lat="43.83205" lon="5.40288">
        <ele>525.98</ele>
        <time>2018-03-22T12:54:27Z</time>
      </trkpt>
      <trkpt lat="43.83207" lon="5.40287">
        <ele>525.5</ele>
        <time>2018-03-22T12:54:28Z</time>
      </trkpt>
      <trkpt lat="43.83209" lon="5.40286">
        <ele>525.5</ele>
        <time>2018-03-22T12:54:29Z</time>
      </trkpt>
      <trkpt lat="43.83211" lon="5.40286">
        <ele>525.5</ele>
        <time>2018-03-22T12:54:30Z</time>
      </trkpt>
      <trkpt lat="43.83212" lon="5.40286">
        <ele>525.5</ele>
        <time>2018-03-22T12:54:31Z</time>
      </trkpt>
      <trkpt lat="43.83213" lon="5.40286">
        <ele>525.5</ele>
        <time>2018-03-22T12:54:32Z</time>
      </trkpt>
      <trkpt lat="43.83218" lon="5.40287">
        <ele>525.02</ele>
        <time>2018-03-22T12:54:38Z</time>
      </trkpt>
      <trkpt lat="43.83219" lon="5.40287">
        <ele>525.02</ele>
        <time>2018-03-22T12:54:39Z</time>
      </trkpt>
      <trkpt lat="43.83221" lon="5.40287">
        <ele>525.02</ele>
        <time>2018-03-22T12:54:40Z</time>
      </trkpt>
      <trkpt lat="43.83222" lon="5.40287">
        <ele>525.02</ele>
        <time>2018-03-22T12:54:41Z</time>
      </trkpt>
      <trkpt lat="43.83224" lon="5.40288">
        <ele>524.06</ele>
        <time>2018-03-22T12:54:42Z</time>
      </trkpt>
      <trkpt lat="43.83227" lon="5.40289">
        <ele>524.06</ele>
        <time>2018-03-22T12:54:43Z</time>
      </trkpt>
      <trkpt lat="43.83238" lon="5.40296">
        <ele>523.58</ele>
        <time>2018-03-22T12:54:54Z</time>
      </trkpt>
      <trkpt lat="43.83239" lon="5.40297">
        <ele>524.06</ele>
        <time>2018-03-22T12:54:55Z</time>
      </trkpt>
      <trkpt lat="43.83241" lon="5.40299">
        <ele>524.06</ele>
        <time>2018-03-22T12:54:56Z</time>
      </trkpt>
      <trkpt lat="43.83242" lon="5.403">
        <ele>523.58</ele>
        <time>2018-03-22T12:54:57Z</time>
      </trkpt>
      <trkpt lat="43.83252" lon="5.40311">
        <ele>523.09</ele>
        <time>2018-03-22T12:55:08Z</time>
      </trkpt>
      <trkpt lat="43.83257" lon="5.4032">
        <ele>523.09</ele>
        <time>2018-03-22T12:55:16Z</time>
      </trkpt>
      <trkpt lat="43.83259" lon="5.40321">
        <ele>523.09</ele>
        <time>2018-03-22T12:55:17Z</time>
      </trkpt>
      <trkpt lat="43.8326" lon="5.40323">
        <ele>523.09</ele>
        <time>2018-03-22T12:55:18Z</time>
      </trkpt>
      <trkpt lat="43.83262" lon="5.40324">
        <ele>523.09</ele>
        <time>2018-03-22T12:55:19Z</time>
      </trkpt>
      <trkpt lat="43.83263" lon="5.40326">
        <ele>523.09</ele>
        <time>2018-03-22T12:55:20Z</time>
      </trkpt>
      <trkpt lat="43.83264" lon="5.40327">
        <ele>523.09</ele>
        <time>2018-03-22T12:55:21Z</time>
      </trkpt>
      <trkpt lat="43.83275" lon="5.40341">
        <ele>522.13</ele>
        <time>2018-03-22T12:55:33Z</time>
      </trkpt>
      <trkpt lat="43.83283" lon="5.40352">
        <ele>521.17</ele>
        <time>2018-03-22T12:55:43Z</time>
      </trkpt>
      <trkpt lat="43.83284" lon="5.40353">
        <ele>521.17</ele>
        <time>2018-03-22T12:55:44Z</time>
      </trkpt>
      <trkpt lat="43.83285" lon="5.40354">
        <ele>520.69</ele>
        <time>2018-03-22T12:55:45Z</time>
      </trkpt>
      <trkpt lat="43.83292" lon="5.4037">
        <ele>520.21</ele>
        <time>2018-03-22T12:55:56Z</time>
      </trkpt>
      <trkpt lat="43.83303" lon="5.40387">
        <ele>519.73</ele>
        <time>2018-03-22T12:56:09Z</time>
      </trkpt>
      <trkpt lat="43.83316" lon="5.40404">
        <ele>518.29</ele>
        <time>2018-03-22T12:56:20Z</time>
      </trkpt>
      <trkpt lat="43.83328" lon="5.40416">
        <ele>517.81</ele>
        <time>2018-03-22T12:56:32Z</time>
      </trkpt>
      <trkpt lat="43.83333" lon="5.4042">
        <ele>517.33</ele>
        <time>2018-03-22T12:56:39Z</time>
      </trkpt>
      <trkpt lat="43.83334" lon="5.40422">
        <ele>517.33</ele>
        <time>2018-03-22T12:56:40Z</time>
      </trkpt>
      <trkpt lat="43.83347" lon="5.40437">
        <ele>516.85</ele>
        <time>2018-03-22T12:56:53Z</time>
      </trkpt>
      <trkpt lat="43.83356" lon="5.40459">
        <ele>515.4</ele>
        <time>2018-03-22T12:57:05Z</time>
      </trkpt>
      <trkpt lat="43.83361" lon="5.40481">
        <ele>514.92</ele>
        <time>2018-03-22T12:57:18Z</time>
      </trkpt>
      <trkpt lat="43.83364" lon="5.40487">
        <ele>514.44</ele>
        <time>2018-03-22T12:57:24Z</time>
      </trkpt>
      <trkpt lat="43.83365" lon="5.40489">
        <ele>513.96</ele>
        <time>2018-03-22T12:57:25Z</time>
      </trkpt>
      <trkpt lat="43.83365" lon="5.40491">
        <ele>513.96</ele>
        <time>2018-03-22T12:57:26Z</time>
      </trkpt>
      <trkpt lat="43.83379" lon="5.40506">
        <ele>513.48</ele>
        <time>2018-03-22T12:57:38Z</time>
      </trkpt>
      <trkpt lat="43.8338" lon="5.40507">
        <ele>513.48</ele>
        <time>2018-03-22T12:57:39Z</time>
      </trkpt>
      <trkpt lat="43.83381" lon="5.40507">
        <ele>513.48</ele>
        <time>2018-03-22T12:57:40Z</time>
      </trkpt>
      <trkpt lat="43.83382" lon="5.40508">
        <ele>513.48</ele>
        <time>2018-03-22T12:57:41Z</time>
      </trkpt>
      <trkpt lat="43.83384" lon="5.40508">
        <ele>513.48</ele>
        <time>2018-03-22T12:57:42Z</time>
      </trkpt>
      <trkpt lat="43.83386" lon="5.40509">
        <ele>513.48</ele>
        <time>2018-03-22T12:57:43Z</time>
      </trkpt>
      <trkpt lat="43.83398" lon="5.40518">
        <ele>513</ele>
        <time>2018-03-22T12:57:55Z</time>
      </trkpt>
      <trkpt lat="43.8341" lon="5.40532">
        <ele>511.56</ele>
        <time>2018-03-22T12:58:07Z</time>
      </trkpt>
      <trkpt lat="43.83421" lon="5.4056">
        <ele>510.6</ele>
        <time>2018-03-22T12:58:24Z</time>
      </trkpt>
      <trkpt lat="43.83421" lon="5.40579">
        <ele>509.64</ele>
        <time>2018-03-22T12:58:38Z</time>
      </trkpt>
      <trkpt lat="43.83416" lon="5.406">
        <ele>508.19</ele>
        <time>2018-03-22T12:58:51Z</time>
      </trkpt>
      <trkpt lat="43.83416" lon="5.40606">
        <ele>507.23</ele>
        <time>2018-03-22T12:58:55Z</time>
      </trkpt>
      <trkpt lat="43.83416" lon="5.40608">
        <ele>507.71</ele>
        <time>2018-03-22T12:58:56Z</time>
      </trkpt>
      <trkpt lat="43.83415" lon="5.40617">
        <ele>506.75</ele>
        <time>2018-03-22T12:58:59Z</time>
      </trkpt>
      <trkpt lat="43.83415" lon="5.40619">
        <ele>506.75</ele>
        <time>2018-03-22T12:59:00Z</time>
      </trkpt>
      <trkpt lat="43.83415" lon="5.40622">
        <ele>506.75</ele>
        <time>2018-03-22T12:59:01Z</time>
      </trkpt>
      <trkpt lat="43.83415" lon="5.40624">
        <ele>506.75</ele>
        <time>2018-03-22T12:59:02Z</time>
      </trkpt>
      <trkpt lat="43.83415" lon="5.40627">
        <ele>506.75</ele>
        <time>2018-03-22T12:59:03Z</time>
      </trkpt>
      <trkpt lat="43.83411" lon="5.40641">
        <ele>506.27</ele>
        <time>2018-03-22T12:59:16Z</time>
      </trkpt>
      <trkpt lat="43.83411" lon="5.40643">
        <ele>506.27</ele>
        <time>2018-03-22T12:59:17Z</time>
      </trkpt>
      <trkpt lat="43.83411" lon="5.40645">
        <ele>505.79</ele>
        <time>2018-03-22T12:59:18Z</time>
      </trkpt>
      <trkpt lat="43.83411" lon="5.40648">
        <ele>505.79</ele>
        <time>2018-03-22T12:59:19Z</time>
      </trkpt>
      <trkpt lat="43.83411" lon="5.40651">
        <ele>505.79</ele>
        <time>2018-03-22T12:59:20Z</time>
      </trkpt>
      <trkpt lat="43.83412" lon="5.40654">
        <ele>505.79</ele>
        <time>2018-03-22T12:59:21Z</time>
      </trkpt>
      <trkpt lat="43.83412" lon="5.40657">
        <ele>505.79</ele>
        <time>2018-03-22T12:59:22Z</time>
      </trkpt>
      <trkpt lat="43.83411" lon="5.4066">
        <ele>505.79</ele>
        <time>2018-03-22T12:59:23Z</time>
      </trkpt>
      <trkpt lat="43.83411" lon="5.40662">
        <ele>505.79</ele>
        <time>2018-03-22T12:59:24Z</time>
      </trkpt>
      <trkpt lat="43.83409" lon="5.40677">
        <ele>504.83</ele>
        <time>2018-03-22T12:59:36Z</time>
      </trkpt>
      <trkpt lat="43.83407" lon="5.40706">
        <ele>503.87</ele>
        <time>2018-03-22T12:59:50Z</time>
      </trkpt>
      <trkpt lat="43.83402" lon="5.40728">
        <ele>502.91</ele>
        <time>2018-03-22T13:00:05Z</time>
      </trkpt>
      <trkpt lat="43.83401" lon="5.40738">
        <ele>502.43</ele>
        <time>2018-03-22T13:00:09Z</time>
      </trkpt>
      <trkpt lat="43.834" lon="5.4074">
        <ele>501.95</ele>
        <time>2018-03-22T13:00:10Z</time>
      </trkpt>
      <trkpt lat="43.83399" lon="5.40742">
        <ele>501.95</ele>
        <time>2018-03-22T13:00:11Z</time>
      </trkpt>
      <trkpt lat="43.83398" lon="5.40744">
        <ele>501.95</ele>
        <time>2018-03-22T13:00:12Z</time>
      </trkpt>
      <trkpt lat="43.83397" lon="5.40753">
        <ele>501.46</ele>
        <time>2018-03-22T13:00:19Z</time>
      </trkpt>
      <trkpt lat="43.83396" lon="5.40758">
        <ele>501.46</ele>
        <time>2018-03-22T13:00:22Z</time>
      </trkpt>
      <trkpt lat="43.83398" lon="5.40782">
        <ele>500.5</ele>
        <time>2018-03-22T13:00:37Z</time>
      </trkpt>
      <trkpt lat="43.83398" lon="5.40798">
        <ele>500.02</ele>
        <time>2018-03-22T13:00:45Z</time>
      </trkpt>
      <trkpt lat="43.83398" lon="5.40801">
        <ele>500.02</ele>
        <time>2018-03-22T13:00:46Z</time>
      </trkpt>
      <trkpt lat="43.83398" lon="5.40804">
        <ele>499.54</ele>
        <time>2018-03-22T13:00:47Z</time>
      </trkpt>
      <trkpt lat="43.83397" lon="5.40827">
        <ele>499.06</ele>
        <time>2018-03-22T13:01:01Z</time>
      </trkpt>
      <trkpt lat="43.83397" lon="5.40829">
        <ele>499.06</ele>
        <time>2018-03-22T13:01:02Z</time>
      </trkpt>
      <trkpt lat="43.83397" lon="5.40832">
        <ele>499.06</ele>
        <time>2018-03-22T13:01:03Z</time>
      </trkpt>
      <trkpt lat="43.83397" lon="5.4084">
        <ele>499.06</ele>
        <time>2018-03-22T13:01:07Z</time>
      </trkpt>
      <trkpt lat="43.83396" lon="5.40842">
        <ele>499.06</ele>
        <time>2018-03-22T13:01:08Z</time>
      </trkpt>
      <trkpt lat="43.83396" lon="5.40844">
        <ele>498.58</ele>
        <time>2018-03-22T13:01:09Z</time>
      </trkpt>
      <trkpt lat="43.83395" lon="5.40845">
        <ele>498.1</ele>
        <time>2018-03-22T13:01:10Z</time>
      </trkpt>
      <trkpt lat="43.83395" lon="5.40847">
        <ele>498.1</ele>
        <time>2018-03-22T13:01:11Z</time>
      </trkpt>
      <trkpt lat="43.83394" lon="5.4085">
        <ele>497.62</ele>
        <time>2018-03-22T13:01:12Z</time>
      </trkpt>
      <trkpt lat="43.8339" lon="5.40865">
        <ele>497.14</ele>
        <time>2018-03-22T13:01:25Z</time>
      </trkpt>
      <trkpt lat="43.8339" lon="5.40871">
        <ele>497.14</ele>
        <time>2018-03-22T13:01:29Z</time>
      </trkpt>
      <trkpt lat="43.83389" lon="5.40874">
        <ele>497.14</ele>
        <time>2018-03-22T13:01:30Z</time>
      </trkpt>
      <trkpt lat="43.83388" lon="5.40885">
        <ele>496.18</ele>
        <time>2018-03-22T13:01:36Z</time>
      </trkpt>
      <trkpt lat="43.83387" lon="5.40887">
        <ele>496.18</ele>
        <time>2018-03-22T13:01:37Z</time>
      </trkpt>
      <trkpt lat="43.83386" lon="5.40889">
        <ele>496.18</ele>
        <time>2018-03-22T13:01:38Z</time>
      </trkpt>
      <trkpt lat="43.83386" lon="5.40891">
        <ele>495.7</ele>
        <time>2018-03-22T13:01:39Z</time>
      </trkpt>
      <trkpt lat="43.83386" lon="5.40893">
        <ele>495.7</ele>
        <time>2018-03-22T13:01:40Z</time>
      </trkpt>
      <trkpt lat="43.83385" lon="5.40895">
        <ele>495.22</ele>
        <time>2018-03-22T13:01:41Z</time>
      </trkpt>
      <trkpt lat="43.83384" lon="5.40897">
        <ele>495.22</ele>
        <time>2018-03-22T13:01:42Z</time>
      </trkpt>
      <trkpt lat="43.83383" lon="5.40899">
        <ele>495.22</ele>
        <time>2018-03-22T13:01:43Z</time>
      </trkpt>
      <trkpt lat="43.83382" lon="5.40902">
        <ele>494.74</ele>
        <time>2018-03-22T13:01:44Z</time>
      </trkpt>
      <trkpt lat="43.83381" lon="5.40905">
        <ele>494.74</ele>
        <time>2018-03-22T13:01:45Z</time>
      </trkpt>
      <trkpt lat="43.83381" lon="5.40908">
        <ele>494.74</ele>
        <time>2018-03-22T13:01:46Z</time>
      </trkpt>
      <trkpt lat="43.8338" lon="5.4091">
        <ele>494.26</ele>
        <time>2018-03-22T13:01:47Z</time>
      </trkpt>
      <trkpt lat="43.83379" lon="5.40912">
        <ele>494.26</ele>
        <time>2018-03-22T13:01:48Z</time>
      </trkpt>
      <trkpt lat="43.83376" lon="5.40923">
        <ele>492.33</ele>
        <time>2018-03-22T13:01:59Z</time>
      </trkpt>
      <trkpt lat="43.83376" lon="5.40936">
        <ele>491.37</ele>
        <time>2018-03-22T13:02:05Z</time>
      </trkpt>
      <trkpt lat="43.83377" lon="5.40939">
        <ele>490.89</ele>
        <time>2018-03-22T13:02:06Z</time>
      </trkpt>
      <trkpt lat="43.83379" lon="5.40941">
        <ele>490.89</ele>
        <time>2018-03-22T13:02:07Z</time>
      </trkpt>
      <trkpt lat="43.83381" lon="5.40943">
        <ele>490.41</ele>
        <time>2018-03-22T13:02:08Z</time>
      </trkpt>
      <trkpt lat="43.83383" lon="5.40944">
        <ele>490.41</ele>
        <time>2018-03-22T13:02:09Z</time>
      </trkpt>
      <trkpt lat="43.83385" lon="5.40944">
        <ele>489.93</ele>
        <time>2018-03-22T13:02:10Z</time>
      </trkpt>
      <trkpt lat="43.83386" lon="5.40943">
        <ele>489.93</ele>
        <time>2018-03-22T13:02:11Z</time>
      </trkpt>
      <trkpt lat="43.83394" lon="5.40935">
        <ele>488.97</ele>
        <time>2018-03-22T13:02:21Z</time>
      </trkpt>
      <trkpt lat="43.83396" lon="5.40934">
        <ele>488.97</ele>
        <time>2018-03-22T13:02:25Z</time>
      </trkpt>
      <trkpt lat="43.83397" lon="5.40933">
        <ele>488.97</ele>
        <time>2018-03-22T13:02:26Z</time>
      </trkpt>
      <trkpt lat="43.83398" lon="5.40931">
        <ele>488.97</ele>
        <time>2018-03-22T13:02:27Z</time>
      </trkpt>
      <trkpt lat="43.834" lon="5.40928">
        <ele>488.49</ele>
        <time>2018-03-22T13:02:33Z</time>
      </trkpt>
      <trkpt lat="43.834" lon="5.40927">
        <ele>488.49</ele>
        <time>2018-03-22T13:02:34Z</time>
      </trkpt>
      <trkpt lat="43.83399" lon="5.40919">
        <ele>488.01</ele>
        <time>2018-03-22T13:02:40Z</time>
      </trkpt>
      <trkpt lat="43.834" lon="5.40917">
        <ele>488.01</ele>
        <time>2018-03-22T13:02:41Z</time>
      </trkpt>
      <trkpt lat="43.83401" lon="5.40915">
        <ele>488.01</ele>
        <time>2018-03-22T13:02:42Z</time>
      </trkpt>
      <trkpt lat="43.83402" lon="5.40912">
        <ele>488.01</ele>
        <time>2018-03-22T13:02:43Z</time>
      </trkpt>
      <trkpt lat="43.83403" lon="5.40911">
        <ele>488.01</ele>
        <time>2018-03-22T13:02:44Z</time>
      </trkpt>
      <trkpt lat="43.83403" lon="5.40909">
        <ele>487.53</ele>
        <time>2018-03-22T13:02:45Z</time>
      </trkpt>
      <trkpt lat="43.83403" lon="5.40908">
        <ele>487.53</ele>
        <time>2018-03-22T13:02:46Z</time>
      </trkpt>
      <trkpt lat="43.83404" lon="5.40907">
        <ele>487.53</ele>
        <time>2018-03-22T13:02:47Z</time>
      </trkpt>
      <trkpt lat="43.83405" lon="5.40906">
        <ele>487.53</ele>
        <time>2018-03-22T13:02:48Z</time>
      </trkpt>
      <trkpt lat="43.83412" lon="5.40893">
        <ele>487.53</ele>
        <time>2018-03-22T13:03:00Z</time>
      </trkpt>
      <trkpt lat="43.83413" lon="5.4089">
        <ele>487.53</ele>
        <time>2018-03-22T13:03:02Z</time>
      </trkpt>
      <trkpt lat="43.83414" lon="5.40889">
        <ele>487.53</ele>
        <time>2018-03-22T13:03:03Z</time>
      </trkpt>
      <trkpt lat="43.83414" lon="5.40887">
        <ele>487.53</ele>
        <time>2018-03-22T13:03:04Z</time>
      </trkpt>
      <trkpt lat="43.83415" lon="5.40886">
        <ele>487.53</ele>
        <time>2018-03-22T13:03:05Z</time>
      </trkpt>
      <trkpt lat="43.83417" lon="5.4088">
        <ele>487.53</ele>
        <time>2018-03-22T13:03:10Z</time>
      </trkpt>
      <trkpt lat="43.83417" lon="5.40878">
        <ele>487.53</ele>
        <time>2018-03-22T13:03:11Z</time>
      </trkpt>
      <trkpt lat="43.83421" lon="5.40861">
        <ele>486.08</ele>
        <time>2018-03-22T13:03:22Z</time>
      </trkpt>
      <trkpt lat="43.83422" lon="5.40859">
        <ele>486.08</ele>
        <time>2018-03-22T13:03:23Z</time>
      </trkpt>
      <trkpt lat="43.83422" lon="5.40858">
        <ele>486.08</ele>
        <time>2018-03-22T13:03:24Z</time>
      </trkpt>
      <trkpt lat="43.83423" lon="5.40856">
        <ele>486.08</ele>
        <time>2018-03-22T13:03:25Z</time>
      </trkpt>
      <trkpt lat="43.83424" lon="5.40853">
        <ele>486.08</ele>
        <time>2018-03-22T13:03:26Z</time>
      </trkpt>
      <trkpt lat="43.83425" lon="5.40851">
        <ele>486.08</ele>
        <time>2018-03-22T13:03:27Z</time>
      </trkpt>
      <trkpt lat="43.83426" lon="5.40849">
        <ele>486.08</ele>
        <time>2018-03-22T13:03:28Z</time>
      </trkpt>
      <trkpt lat="43.83432" lon="5.40834">
        <ele>485.6</ele>
        <time>2018-03-22T13:03:42Z</time>
      </trkpt>
      <trkpt lat="43.83437" lon="5.40818">
        <ele>485.12</ele>
        <time>2018-03-22T13:03:49Z</time>
      </trkpt>
      <trkpt lat="43.83445" lon="5.40796">
        <ele>484.16</ele>
        <time>2018-03-22T13:04:01Z</time>
      </trkpt>
      <trkpt lat="43.83452" lon="5.40773">
        <ele>482.24</ele>
        <time>2018-03-22T13:04:16Z</time>
      </trkpt>
      <trkpt lat="43.83454" lon="5.40768">
        <ele>482.24</ele>
        <time>2018-03-22T13:04:19Z</time>
      </trkpt>
      <trkpt lat="43.83455" lon="5.40768">
        <ele>482.24</ele>
        <time>2018-03-22T13:04:21Z</time>
      </trkpt>
      <trkpt lat="43.8346" lon="5.40765">
        <ele>483.68</ele>
        <time>2018-03-22T13:04:28Z</time>
      </trkpt>
      <trkpt lat="43.83468" lon="5.40752">
        <ele>484.64</ele>
        <time>2018-03-22T13:04:45Z</time>
      </trkpt>
      <trkpt lat="43.83475" lon="5.40732">
        <ele>485.12</ele>
        <time>2018-03-22T13:05:00Z</time>
      </trkpt>
      <trkpt lat="43.83476" lon="5.40725">
        <ele>485.12</ele>
        <time>2018-03-22T13:05:03Z</time>
      </trkpt>
      <trkpt lat="43.83476" lon="5.40722">
        <ele>485.12</ele>
        <time>2018-03-22T13:05:04Z</time>
      </trkpt>
      <trkpt lat="43.83476" lon="5.40719">
        <ele>485.12</ele>
        <time>2018-03-22T13:05:05Z</time>
      </trkpt>
      <trkpt lat="43.8348" lon="5.40711">
        <ele>486.56</ele>
        <time>2018-03-22T13:05:15Z</time>
      </trkpt>
      <trkpt lat="43.83481" lon="5.40688">
        <ele>488.01</ele>
        <time>2018-03-22T13:05:29Z</time>
      </trkpt>
      <trkpt lat="43.83481" lon="5.40681">
        <ele>486.56</ele>
        <time>2018-03-22T13:05:40Z</time>
      </trkpt>
      <trkpt lat="43.83485" lon="5.40677">
        <ele>488.01</ele>
        <time>2018-03-22T13:05:50Z</time>
      </trkpt>
      <trkpt lat="43.83489" lon="5.40674">
        <ele>488.01</ele>
        <time>2018-03-22T13:06:01Z</time>
      </trkpt>
      <trkpt lat="43.83489" lon="5.40666">
        <ele>486.56</ele>
        <time>2018-03-22T13:06:08Z</time>
      </trkpt>
      <trkpt lat="43.83488" lon="5.40659">
        <ele>485.12</ele>
        <time>2018-03-22T13:06:23Z</time>
      </trkpt>
      <trkpt lat="43.8349" lon="5.40645">
        <ele>484.64</ele>
        <time>2018-03-22T13:06:37Z</time>
      </trkpt>
      <trkpt lat="43.83497" lon="5.40639">
        <ele>484.64</ele>
        <time>2018-03-22T13:06:49Z</time>
      </trkpt>
      <trkpt lat="43.83499" lon="5.4064">
        <ele>484.64</ele>
        <time>2018-03-22T13:06:51Z</time>
      </trkpt>
      <trkpt lat="43.83503" lon="5.40638">
        <ele>486.08</ele>
        <time>2018-03-22T13:06:55Z</time>
      </trkpt>
      <trkpt lat="43.83514" lon="5.40627">
        <ele>488.49</ele>
        <time>2018-03-22T13:07:10Z</time>
      </trkpt>
      <trkpt lat="43.83524" lon="5.40622">
        <ele>489.93</ele>
        <time>2018-03-22T13:07:22Z</time>
      </trkpt>
      <trkpt lat="43.83528" lon="5.40616">
        <ele>490.89</ele>
        <time>2018-03-22T13:07:33Z</time>
      </trkpt>
      <trkpt lat="43.8353" lon="5.40609">
        <ele>491.37</ele>
        <time>2018-03-22T13:07:39Z</time>
      </trkpt>
      <trkpt lat="43.83531" lon="5.40608">
        <ele>491.37</ele>
        <time>2018-03-22T13:07:40Z</time>
      </trkpt>
      <trkpt lat="43.83541" lon="5.40596">
        <ele>493.29</ele>
        <time>2018-03-22T13:07:54Z</time>
      </trkpt>
      <trkpt lat="43.83549" lon="5.40589">
        <ele>494.26</ele>
        <time>2018-03-22T13:08:04Z</time>
      </trkpt>
      <trkpt lat="43.83552" lon="5.4059">
        <ele>494.74</ele>
        <time>2018-03-22T13:08:09Z</time>
      </trkpt>
      <trkpt lat="43.83567" lon="5.40601">
        <ele>495.22</ele>
        <time>2018-03-22T13:08:25Z</time>
      </trkpt>
      <trkpt lat="43.83575" lon="5.4061">
        <ele>496.18</ele>
        <time>2018-03-22T13:08:38Z</time>
      </trkpt>
      <trkpt lat="43.83584" lon="5.40619">
        <ele>495.7</ele>
        <time>2018-03-22T13:08:49Z</time>
      </trkpt>
      <trkpt lat="43.83586" lon="5.40621">
        <ele>495.7</ele>
        <time>2018-03-22T13:08:51Z</time>
      </trkpt>
      <trkpt lat="43.83587" lon="5.40629">
        <ele>495.7</ele>
        <time>2018-03-22T13:08:57Z</time>
      </trkpt>
      <trkpt lat="43.83591" lon="5.40641">
        <ele>496.66</ele>
        <time>2018-03-22T13:09:06Z</time>
      </trkpt>
      <trkpt lat="43.83597" lon="5.4065">
        <ele>495.22</ele>
        <time>2018-03-22T13:09:14Z</time>
      </trkpt>
      <trkpt lat="43.83598" lon="5.40651">
        <ele>499.06</ele>
        <time>2018-03-22T13:09:15Z</time>
      </trkpt>
      <trkpt lat="43.83598" lon="5.40653">
        <ele>498.1</ele>
        <time>2018-03-22T13:09:16Z</time>
      </trkpt>
      <trkpt lat="43.83599" lon="5.40654">
        <ele>497.14</ele>
        <time>2018-03-22T13:09:18Z</time>
      </trkpt>
      <trkpt lat="43.83606" lon="5.40662">
        <ele>495.22</ele>
        <time>2018-03-22T13:09:33Z</time>
      </trkpt>
      <trkpt lat="43.83608" lon="5.40665">
        <ele>495.22</ele>
        <time>2018-03-22T13:09:37Z</time>
      </trkpt>
      <trkpt lat="43.83617" lon="5.40671">
        <ele>492.33</ele>
        <time>2018-03-22T13:09:50Z</time>
      </trkpt>
      <trkpt lat="43.83617" lon="5.40672">
        <ele>492.33</ele>
        <time>2018-03-22T13:09:51Z</time>
      </trkpt>
      <trkpt lat="43.8362" lon="5.40681">
        <ele>493.77</ele>
        <time>2018-03-22T13:09:58Z</time>
      </trkpt>
      <trkpt lat="43.8362" lon="5.40684">
        <ele>492.33</ele>
        <time>2018-03-22T13:10:12Z</time>
      </trkpt>
      <trkpt lat="43.8362" lon="5.4069">
        <ele>494.26</ele>
        <time>2018-03-22T13:10:46Z</time>
      </trkpt>
      <trkpt lat="43.8362" lon="5.40706">
        <ele>496.18</ele>
        <time>2018-03-22T13:10:58Z</time>
      </trkpt>
      <trkpt lat="43.8362" lon="5.40724">
        <ele>498.58</ele>
        <time>2018-03-22T13:11:14Z</time>
      </trkpt>
      <trkpt lat="43.8362" lon="5.40736">
        <ele>499.54</ele>
        <time>2018-03-22T13:11:23Z</time>
      </trkpt>
      <trkpt lat="43.83621" lon="5.40747">
        <ele>500.02</ele>
        <time>2018-03-22T13:11:29Z</time>
      </trkpt>
      <trkpt lat="43.83624" lon="5.40762">
        <ele>503.39</ele>
        <time>2018-03-22T13:11:39Z</time>
      </trkpt>
      <trkpt lat="43.83627" lon="5.40776">
        <ele>504.35</ele>
        <time>2018-03-22T13:11:53Z</time>
      </trkpt>
      <trkpt lat="43.8363" lon="5.40786">
        <ele>504.83</ele>
        <time>2018-03-22T13:12:01Z</time>
      </trkpt>
      <trkpt lat="43.83631" lon="5.40791">
        <ele>505.31</ele>
        <time>2018-03-22T13:12:04Z</time>
      </trkpt>
      <trkpt lat="43.83631" lon="5.40792">
        <ele>506.27</ele>
        <time>2018-03-22T13:12:21Z</time>
      </trkpt>
      <trkpt lat="43.83631" lon="5.40792">
        <ele>506.27</ele>
        <time>2018-03-22T13:13:01Z</time>
      </trkpt>
      <trkpt lat="43.83631" lon="5.40791">
        <ele>506.75</ele>
        <time>2018-03-22T13:13:37Z</time>
      </trkpt>
      <trkpt lat="43.83629" lon="5.40795">
        <ele>505.79</ele>
        <time>2018-03-22T13:14:01Z</time>
      </trkpt>
      <trkpt lat="43.83631" lon="5.40796">
        <ele>505.79</ele>
        <time>2018-03-22T13:14:06Z</time>
      </trkpt>
      <trkpt lat="43.83634" lon="5.408">
        <ele>505.31</ele>
        <time>2018-03-22T13:14:09Z</time>
      </trkpt>
      <trkpt lat="43.83636" lon="5.40804">
        <ele>504.35</ele>
        <time>2018-03-22T13:14:11Z</time>
      </trkpt>
      <trkpt lat="43.83637" lon="5.40806">
        <ele>504.35</ele>
        <time>2018-03-22T13:14:12Z</time>
      </trkpt>
      <trkpt lat="43.83647" lon="5.40818">
        <ele>503.39</ele>
        <time>2018-03-22T13:14:23Z</time>
      </trkpt>
      <trkpt lat="43.83655" lon="5.40833">
        <ele>502.43</ele>
        <time>2018-03-22T13:14:36Z</time>
      </trkpt>
      <trkpt lat="43.83657" lon="5.40834">
        <ele>502.43</ele>
        <time>2018-03-22T13:14:37Z</time>
      </trkpt>
      <trkpt lat="43.83659" lon="5.40836">
        <ele>501.46</ele>
        <time>2018-03-22T13:14:38Z</time>
      </trkpt>
      <trkpt lat="43.8366" lon="5.40838">
        <ele>501.46</ele>
        <time>2018-03-22T13:14:39Z</time>
      </trkpt>
      <trkpt lat="43.83662" lon="5.40839">
        <ele>501.46</ele>
        <time>2018-03-22T13:14:40Z</time>
      </trkpt>
      <trkpt lat="43.83664" lon="5.40841">
        <ele>501.46</ele>
        <time>2018-03-22T13:14:41Z</time>
      </trkpt>
      <trkpt lat="43.83665" lon="5.40843">
        <ele>501.46</ele>
        <time>2018-03-22T13:14:42Z</time>
      </trkpt>
      <trkpt lat="43.83667" lon="5.40845">
        <ele>500.98</ele>
        <time>2018-03-22T13:14:43Z</time>
      </trkpt>
      <trkpt lat="43.83679" lon="5.40865">
        <ele>499.54</ele>
        <time>2018-03-22T13:14:55Z</time>
      </trkpt>
      <trkpt lat="43.83686" lon="5.40877">
        <ele>498.1</ele>
        <time>2018-03-22T13:15:09Z</time>
      </trkpt>
      <trkpt lat="43.83691" lon="5.40893">
        <ele>496.66</ele>
        <time>2018-03-22T13:15:20Z</time>
      </trkpt>
      <trkpt lat="43.83692" lon="5.40899">
        <ele>496.18</ele>
        <time>2018-03-22T13:15:22Z</time>
      </trkpt>
      <trkpt lat="43.83693" lon="5.40901">
        <ele>496.18</ele>
        <time>2018-03-22T13:15:23Z</time>
      </trkpt>
      <trkpt lat="43.83693" lon="5.40904">
        <ele>495.7</ele>
        <time>2018-03-22T13:15:24Z</time>
      </trkpt>
      <trkpt lat="43.83703" lon="5.40932">
        <ele>493.77</ele>
        <time>2018-03-22T13:15:35Z</time>
      </trkpt>
      <trkpt lat="43.83707" lon="5.40945">
        <ele>492.81</ele>
        <time>2018-03-22T13:15:46Z</time>
      </trkpt>
      <trkpt lat="43.83708" lon="5.40953">
        <ele>491.37</ele>
        <time>2018-03-22T13:15:54Z</time>
      </trkpt>
      <trkpt lat="43.8371" lon="5.40955">
        <ele>491.37</ele>
        <time>2018-03-22T13:15:55Z</time>
      </trkpt>
      <trkpt lat="43.83711" lon="5.40957">
        <ele>491.37</ele>
        <time>2018-03-22T13:15:56Z</time>
      </trkpt>
      <trkpt lat="43.83712" lon="5.40958">
        <ele>491.37</ele>
        <time>2018-03-22T13:15:57Z</time>
      </trkpt>
      <trkpt lat="43.83714" lon="5.40959">
        <ele>491.37</ele>
        <time>2018-03-22T13:15:58Z</time>
      </trkpt>
      <trkpt lat="43.83715" lon="5.4096">
        <ele>491.37</ele>
        <time>2018-03-22T13:15:59Z</time>
      </trkpt>
      <trkpt lat="43.83716" lon="5.40962">
        <ele>491.37</ele>
        <time>2018-03-22T13:16:00Z</time>
      </trkpt>
      <trkpt lat="43.83715" lon="5.40974">
        <ele>490.89</ele>
        <time>2018-03-22T13:16:08Z</time>
      </trkpt>
      <trkpt lat="43.83713" lon="5.4099">
        <ele>490.89</ele>
        <time>2018-03-22T13:16:19Z</time>
      </trkpt>
      <trkpt lat="43.83712" lon="5.41016">
        <ele>492.81</ele>
        <time>2018-03-22T13:16:33Z</time>
      </trkpt>
      <trkpt lat="43.83709" lon="5.41042">
        <ele>492.33</ele>
        <time>2018-03-22T13:16:47Z</time>
      </trkpt>
      <trkpt lat="43.83709" lon="5.41062">
        <ele>492.33</ele>
        <time>2018-03-22T13:17:02Z</time>
      </trkpt>
      <trkpt lat="43.83708" lon="5.41076">
        <ele>492.33</ele>
        <time>2018-03-22T13:17:08Z</time>
      </trkpt>
      <trkpt lat="43.83702" lon="5.41093">
        <ele>492.33</ele>
        <time>2018-03-22T13:17:20Z</time>
      </trkpt>
      <trkpt lat="43.83697" lon="5.41107">
        <ele>494.74</ele>
        <time>2018-03-22T13:17:30Z</time>
      </trkpt>
      <trkpt lat="43.83697" lon="5.41115">
        <ele>495.22</ele>
        <time>2018-03-22T13:17:35Z</time>
      </trkpt>
      <trkpt lat="43.83697" lon="5.41116">
        <ele>495.22</ele>
        <time>2018-03-22T13:17:36Z</time>
      </trkpt>
      <trkpt lat="43.83698" lon="5.41135">
        <ele>495.7</ele>
        <time>2018-03-22T13:17:47Z</time>
      </trkpt>
      <trkpt lat="43.83696" lon="5.41156">
        <ele>497.62</ele>
        <time>2018-03-22T13:17:59Z</time>
      </trkpt>
      <trkpt lat="43.83697" lon="5.41159">
        <ele>497.62</ele>
        <time>2018-03-22T13:18:01Z</time>
      </trkpt>
      <trkpt lat="43.83697" lon="5.41161">
        <ele>497.62</ele>
        <time>2018-03-22T13:18:02Z</time>
      </trkpt>
      <trkpt lat="43.83697" lon="5.41163">
        <ele>497.62</ele>
        <time>2018-03-22T13:18:03Z</time>
      </trkpt>
      <trkpt lat="43.83697" lon="5.41165">
        <ele>497.62</ele>
        <time>2018-03-22T13:18:04Z</time>
      </trkpt>
      <trkpt lat="43.83703" lon="5.4119">
        <ele>497.62</ele>
        <time>2018-03-22T13:18:20Z</time>
      </trkpt>
      <trkpt lat="43.83706" lon="5.41218">
        <ele>497.62</ele>
        <time>2018-03-22T13:18:35Z</time>
      </trkpt>
      <trkpt lat="43.83702" lon="5.41235">
        <ele>498.1</ele>
        <time>2018-03-22T13:18:48Z</time>
      </trkpt>
      <trkpt lat="43.83698" lon="5.41249">
        <ele>499.06</ele>
        <time>2018-03-22T13:18:59Z</time>
      </trkpt>
      <trkpt lat="43.83698" lon="5.41251">
        <ele>499.06</ele>
        <time>2018-03-22T13:19:00Z</time>
      </trkpt>
      <trkpt lat="43.83698" lon="5.41253">
        <ele>499.06</ele>
        <time>2018-03-22T13:19:01Z</time>
      </trkpt>
      <trkpt lat="43.83692" lon="5.41278">
        <ele>499.54</ele>
        <time>2018-03-22T13:19:18Z</time>
      </trkpt>
      <trkpt lat="43.83686" lon="5.41298">
        <ele>499.54</ele>
        <time>2018-03-22T13:19:32Z</time>
      </trkpt>
      <trkpt lat="43.83686" lon="5.41309">
        <ele>500.02</ele>
        <time>2018-03-22T13:19:40Z</time>
      </trkpt>
      <trkpt lat="43.83686" lon="5.41311">
        <ele>500.02</ele>
        <time>2018-03-22T13:19:41Z</time>
      </trkpt>
      <trkpt lat="43.83686" lon="5.41312">
        <ele>500.02</ele>
        <time>2018-03-22T13:19:42Z</time>
      </trkpt>
      <trkpt lat="43.83686" lon="5.41314">
        <ele>500.02</ele>
        <time>2018-03-22T13:19:43Z</time>
      </trkpt>
      <trkpt lat="43.83686" lon="5.41316">
        <ele>500.02</ele>
        <time>2018-03-22T13:19:44Z</time>
      </trkpt>
      <trkpt lat="43.83684" lon="5.41335">
        <ele>497.62</ele>
        <time>2018-03-22T13:19:59Z</time>
      </trkpt>
      <trkpt lat="43.83683" lon="5.41341">
        <ele>496.66</ele>
        <time>2018-03-22T13:20:02Z</time>
      </trkpt>
      <trkpt lat="43.83683" lon="5.41344">
        <ele>496.66</ele>
        <time>2018-03-22T13:20:03Z</time>
      </trkpt>
      <trkpt lat="43.83688" lon="5.41358">
        <ele>493.29</ele>
        <time>2018-03-22T13:20:16Z</time>
      </trkpt>
      <trkpt lat="43.83691" lon="5.41361">
        <ele>492.33</ele>
        <time>2018-03-22T13:20:20Z</time>
      </trkpt>
      <trkpt lat="43.83696" lon="5.41365">
        <ele>490.41</ele>
        <time>2018-03-22T13:20:25Z</time>
      </trkpt>
      <trkpt lat="43.83705" lon="5.41375">
        <ele>488.01</ele>
        <time>2018-03-22T13:20:40Z</time>
      </trkpt>
      <trkpt lat="43.83707" lon="5.41377">
        <ele>487.53</ele>
        <time>2018-03-22T13:20:42Z</time>
      </trkpt>
      <trkpt lat="43.83708" lon="5.41381">
        <ele>487.53</ele>
        <time>2018-03-22T13:20:45Z</time>
      </trkpt>
      <trkpt lat="43.83707" lon="5.41389">
        <ele>487.53</ele>
        <time>2018-03-22T13:20:50Z</time>
      </trkpt>
      <trkpt lat="43.83702" lon="5.41403">
        <ele>487.53</ele>
        <time>2018-03-22T13:21:03Z</time>
      </trkpt>
      <trkpt lat="43.83692" lon="5.41421">
        <ele>489.93</ele>
        <time>2018-03-22T13:21:16Z</time>
      </trkpt>
      <trkpt lat="43.83689" lon="5.41437">
        <ele>490.41</ele>
        <time>2018-03-22T13:21:26Z</time>
      </trkpt>
      <trkpt lat="43.83688" lon="5.41445">
        <ele>490.89</ele>
        <time>2018-03-22T13:21:30Z</time>
      </trkpt>
      <trkpt lat="43.83687" lon="5.41458">
        <ele>490.89</ele>
        <time>2018-03-22T13:21:42Z</time>
      </trkpt>
      <trkpt lat="43.83688" lon="5.41471">
        <ele>490.89</ele>
        <time>2018-03-22T13:21:47Z</time>
      </trkpt>
      <trkpt lat="43.83689" lon="5.41486">
        <ele>490.89</ele>
        <time>2018-03-22T13:21:54Z</time>
      </trkpt>
      <trkpt lat="43.83688" lon="5.41498">
        <ele>490.89</ele>
        <time>2018-03-22T13:22:00Z</time>
      </trkpt>
      <trkpt lat="43.83682" lon="5.41516">
        <ele>491.85</ele>
        <time>2018-03-22T13:22:14Z</time>
      </trkpt>
      <trkpt lat="43.83681" lon="5.41521">
        <ele>492.33</ele>
        <time>2018-03-22T13:22:20Z</time>
      </trkpt>
      <trkpt lat="43.83678" lon="5.4154">
        <ele>493.29</ele>
        <time>2018-03-22T13:22:32Z</time>
      </trkpt>
      <trkpt lat="43.83677" lon="5.41557">
        <ele>493.29</ele>
        <time>2018-03-22T13:22:44Z</time>
      </trkpt>
      <trkpt lat="43.83676" lon="5.41567">
        <ele>493.77</ele>
        <time>2018-03-22T13:22:50Z</time>
      </trkpt>
      <trkpt lat="43.83674" lon="5.41587">
        <ele>493.77</ele>
        <time>2018-03-22T13:23:03Z</time>
      </trkpt>
      <trkpt lat="43.83684" lon="5.41617">
        <ele>493.77</ele>
        <time>2018-03-22T13:23:16Z</time>
      </trkpt>
      <trkpt lat="43.83686" lon="5.41625">
        <ele>493.77</ele>
        <time>2018-03-22T13:23:19Z</time>
      </trkpt>
      <trkpt lat="43.83686" lon="5.41627">
        <ele>494.26</ele>
        <time>2018-03-22T13:23:20Z</time>
      </trkpt>
      <trkpt lat="43.83688" lon="5.41634">
        <ele>494.26</ele>
        <time>2018-03-22T13:23:29Z</time>
      </trkpt>
      <trkpt lat="43.83689" lon="5.41637">
        <ele>494.26</ele>
        <time>2018-03-22T13:23:30Z</time>
      </trkpt>
      <trkpt lat="43.8369" lon="5.41639">
        <ele>494.74</ele>
        <time>2018-03-22T13:23:31Z</time>
      </trkpt>
      <trkpt lat="43.83691" lon="5.41641">
        <ele>494.74</ele>
        <time>2018-03-22T13:23:32Z</time>
      </trkpt>
      <trkpt lat="43.83692" lon="5.41642">
        <ele>495.22</ele>
        <time>2018-03-22T13:23:33Z</time>
      </trkpt>
      <trkpt lat="43.83695" lon="5.41646">
        <ele>495.22</ele>
        <time>2018-03-22T13:23:35Z</time>
      </trkpt>
      <trkpt lat="43.83696" lon="5.41648">
        <ele>495.22</ele>
        <time>2018-03-22T13:23:36Z</time>
      </trkpt>
      <trkpt lat="43.83698" lon="5.41656">
        <ele>495.22</ele>
        <time>2018-03-22T13:23:43Z</time>
      </trkpt>
      <trkpt lat="43.83698" lon="5.4166">
        <ele>495.7</ele>
        <time>2018-03-22T13:23:45Z</time>
      </trkpt>
      <trkpt lat="43.83703" lon="5.41682">
        <ele>496.18</ele>
        <time>2018-03-22T13:23:58Z</time>
      </trkpt>
      <trkpt lat="43.83709" lon="5.41707">
        <ele>497.14</ele>
        <time>2018-03-22T13:24:13Z</time>
      </trkpt>
      <trkpt lat="43.83714" lon="5.41723">
        <ele>497.14</ele>
        <time>2018-03-22T13:24:23Z</time>
      </trkpt>
      <trkpt lat="43.83714" lon="5.41737">
        <ele>497.14</ele>
        <time>2018-03-22T13:24:35Z</time>
      </trkpt>
      <trkpt lat="43.83715" lon="5.41741">
        <ele>497.14</ele>
        <time>2018-03-22T13:24:37Z</time>
      </trkpt>
      <trkpt lat="43.83715" lon="5.41743">
        <ele>497.62</ele>
        <time>2018-03-22T13:24:38Z</time>
      </trkpt>
      <trkpt lat="43.83715" lon="5.41745">
        <ele>497.62</ele>
        <time>2018-03-22T13:24:39Z</time>
      </trkpt>
      <trkpt lat="43.83715" lon="5.41747">
        <ele>497.62</ele>
        <time>2018-03-22T13:24:40Z</time>
      </trkpt>
      <trkpt lat="43.83715" lon="5.41748">
        <ele>497.62</ele>
        <time>2018-03-22T13:24:41Z</time>
      </trkpt>
      <trkpt lat="43.83714" lon="5.4175">
        <ele>497.62</ele>
        <time>2018-03-22T13:24:42Z</time>
      </trkpt>
      <trkpt lat="43.83713" lon="5.41751">
        <ele>497.62</ele>
        <time>2018-03-22T13:24:43Z</time>
      </trkpt>
      <trkpt lat="43.83712" lon="5.41753">
        <ele>497.62</ele>
        <time>2018-03-22T13:24:44Z</time>
      </trkpt>
      <trkpt lat="43.83709" lon="5.4176">
        <ele>497.62</ele>
        <time>2018-03-22T13:24:51Z</time>
      </trkpt>
      <trkpt lat="43.83709" lon="5.41786">
        <ele>497.62</ele>
        <time>2018-03-22T13:25:03Z</time>
      </trkpt>
      <trkpt lat="43.83712" lon="5.41796">
        <ele>498.1</ele>
        <time>2018-03-22T13:25:12Z</time>
      </trkpt>
      <trkpt lat="43.83713" lon="5.41798">
        <ele>498.1</ele>
        <time>2018-03-22T13:25:13Z</time>
      </trkpt>
      <trkpt lat="43.83713" lon="5.418">
        <ele>498.1</ele>
        <time>2018-03-22T13:25:14Z</time>
      </trkpt>
      <trkpt lat="43.83714" lon="5.41803">
        <ele>498.1</ele>
        <time>2018-03-22T13:25:15Z</time>
      </trkpt>
      <trkpt lat="43.83715" lon="5.41804">
        <ele>498.1</ele>
        <time>2018-03-22T13:25:16Z</time>
      </trkpt>
      <trkpt lat="43.83716" lon="5.41806">
        <ele>498.58</ele>
        <time>2018-03-22T13:25:17Z</time>
      </trkpt>
      <trkpt lat="43.83717" lon="5.41809">
        <ele>498.58</ele>
        <time>2018-03-22T13:25:18Z</time>
      </trkpt>
      <trkpt lat="43.83718" lon="5.41811">
        <ele>498.58</ele>
        <time>2018-03-22T13:25:19Z</time>
      </trkpt>
      <trkpt lat="43.83725" lon="5.41829">
        <ele>499.06</ele>
        <time>2018-03-22T13:25:33Z</time>
      </trkpt>
      <trkpt lat="43.8374" lon="5.4185">
        <ele>499.54</ele>
        <time>2018-03-22T13:25:46Z</time>
      </trkpt>
      <trkpt lat="43.83749" lon="5.4186">
        <ele>500.5</ele>
        <time>2018-03-22T13:25:58Z</time>
      </trkpt>
      <trkpt lat="43.83749" lon="5.41862">
        <ele>500.5</ele>
        <time>2018-03-22T13:25:59Z</time>
      </trkpt>
      <trkpt lat="43.8375" lon="5.41864">
        <ele>500.5</ele>
        <time>2018-03-22T13:26:00Z</time>
      </trkpt>
      <trkpt lat="43.83751" lon="5.41866">
        <ele>500.5</ele>
        <time>2018-03-22T13:26:01Z</time>
      </trkpt>
      <trkpt lat="43.83752" lon="5.41867">
        <ele>500.5</ele>
        <time>2018-03-22T13:26:02Z</time>
      </trkpt>
      <trkpt lat="43.83753" lon="5.41869">
        <ele>500.5</ele>
        <time>2018-03-22T13:26:03Z</time>
      </trkpt>
      <trkpt lat="43.83755" lon="5.41871">
        <ele>500.5</ele>
        <time>2018-03-22T13:26:04Z</time>
      </trkpt>
      <trkpt lat="43.83764" lon="5.41885">
        <ele>500.98</ele>
        <time>2018-03-22T13:26:18Z</time>
      </trkpt>
      <trkpt lat="43.83779" lon="5.41909">
        <ele>500.98</ele>
        <time>2018-03-22T13:26:32Z</time>
      </trkpt>
      <trkpt lat="43.83784" lon="5.41915">
        <ele>501.95</ele>
        <time>2018-03-22T13:26:39Z</time>
      </trkpt>
      <trkpt lat="43.83786" lon="5.41916">
        <ele>502.91</ele>
        <time>2018-03-22T13:26:40Z</time>
      </trkpt>
      <trkpt lat="43.83787" lon="5.41917">
        <ele>502.91</ele>
        <time>2018-03-22T13:26:41Z</time>
      </trkpt>
      <trkpt lat="43.83788" lon="5.41918">
        <ele>502.91</ele>
        <time>2018-03-22T13:26:42Z</time>
      </trkpt>
      <trkpt lat="43.8379" lon="5.41919">
        <ele>502.91</ele>
        <time>2018-03-22T13:26:43Z</time>
      </trkpt>
      <trkpt lat="43.83792" lon="5.41921">
        <ele>502.91</ele>
        <time>2018-03-22T13:26:44Z</time>
      </trkpt>
      <trkpt lat="43.83793" lon="5.41923">
        <ele>502.91</ele>
        <time>2018-03-22T13:26:45Z</time>
      </trkpt>
      <trkpt lat="43.83794" lon="5.41924">
        <ele>502.91</ele>
        <time>2018-03-22T13:26:46Z</time>
      </trkpt>
      <trkpt lat="43.83796" lon="5.41925">
        <ele>502.91</ele>
        <time>2018-03-22T13:26:47Z</time>
      </trkpt>
      <trkpt lat="43.83797" lon="5.41927">
        <ele>502.91</ele>
        <time>2018-03-22T13:26:48Z</time>
      </trkpt>
      <trkpt lat="43.83798" lon="5.41928">
        <ele>502.91</ele>
        <time>2018-03-22T13:26:49Z</time>
      </trkpt>
      <trkpt lat="43.83799" lon="5.4193">
        <ele>502.91</ele>
        <time>2018-03-22T13:26:50Z</time>
      </trkpt>
      <trkpt lat="43.83799" lon="5.41931">
        <ele>502.91</ele>
        <time>2018-03-22T13:26:51Z</time>
      </trkpt>
      <trkpt lat="43.83798" lon="5.41932">
        <ele>502.91</ele>
        <time>2018-03-22T13:26:54Z</time>
      </trkpt>
      <trkpt lat="43.83794" lon="5.41931">
        <ele>503.39</ele>
        <time>2018-03-22T13:27:08Z</time>
      </trkpt>
      <trkpt lat="43.83794" lon="5.4193">
        <ele>503.39</ele>
        <time>2018-03-22T13:27:10Z</time>
      </trkpt>
      <trkpt lat="43.83804" lon="5.41937">
        <ele>503.39</ele>
        <time>2018-03-22T13:27:21Z</time>
      </trkpt>
      <trkpt lat="43.83812" lon="5.41953">
        <ele>503.87</ele>
        <time>2018-03-22T13:27:32Z</time>
      </trkpt>
      <trkpt lat="43.83819" lon="5.41967">
        <ele>504.83</ele>
        <time>2018-03-22T13:27:43Z</time>
      </trkpt>
      <trkpt lat="43.83823" lon="5.41972">
        <ele>504.83</ele>
        <time>2018-03-22T13:27:48Z</time>
      </trkpt>
      <trkpt lat="43.83833" lon="5.41985">
        <ele>505.79</ele>
        <time>2018-03-22T13:28:00Z</time>
      </trkpt>
      <trkpt lat="43.83842" lon="5.41996">
        <ele>505.79</ele>
        <time>2018-03-22T13:28:11Z</time>
      </trkpt>
      <trkpt lat="43.83843" lon="5.41998">
        <ele>505.79</ele>
        <time>2018-03-22T13:28:12Z</time>
      </trkpt>
      <trkpt lat="43.83852" lon="5.42016">
        <ele>507.71</ele>
        <time>2018-03-22T13:28:25Z</time>
      </trkpt>
      <trkpt lat="43.83852" lon="5.42017">
        <ele>508.19</ele>
        <time>2018-03-22T13:28:26Z</time>
      </trkpt>
      <trkpt lat="43.83855" lon="5.4203">
        <ele>510.12</ele>
        <time>2018-03-22T13:28:38Z</time>
      </trkpt>
      <trkpt lat="43.8386" lon="5.42028">
        <ele>510.12</ele>
        <time>2018-03-22T13:28:45Z</time>
      </trkpt>
      <trkpt lat="43.83864" lon="5.42025">
        <ele>508.67</ele>
        <time>2018-03-22T13:28:49Z</time>
      </trkpt>
      <trkpt lat="43.8387" lon="5.42021">
        <ele>508.19</ele>
        <time>2018-03-22T13:28:58Z</time>
      </trkpt>
      <trkpt lat="43.83871" lon="5.4202">
        <ele>508.19</ele>
        <time>2018-03-22T13:28:59Z</time>
      </trkpt>
      <trkpt lat="43.83872" lon="5.42019">
        <ele>508.19</ele>
        <time>2018-03-22T13:29:00Z</time>
      </trkpt>
      <trkpt lat="43.83873" lon="5.42018">
        <ele>507.71</ele>
        <time>2018-03-22T13:29:01Z</time>
      </trkpt>
      <trkpt lat="43.8388" lon="5.42009">
        <ele>507.23</ele>
        <time>2018-03-22T13:29:15Z</time>
      </trkpt>
      <trkpt lat="43.8388" lon="5.42006">
        <ele>507.23</ele>
        <time>2018-03-22T13:29:17Z</time>
      </trkpt>
      <trkpt lat="43.8388" lon="5.42004">
        <ele>507.23</ele>
        <time>2018-03-22T13:29:18Z</time>
      </trkpt>
      <trkpt lat="43.8388" lon="5.42002">
        <ele>507.23</ele>
        <time>2018-03-22T13:29:19Z</time>
      </trkpt>
      <trkpt lat="43.83881" lon="5.42">
        <ele>506.75</ele>
        <time>2018-03-22T13:29:20Z</time>
      </trkpt>
      <trkpt lat="43.83882" lon="5.41998">
        <ele>506.75</ele>
        <time>2018-03-22T13:29:21Z</time>
      </trkpt>
      <trkpt lat="43.83894" lon="5.41984">
        <ele>506.75</ele>
        <time>2018-03-22T13:29:32Z</time>
      </trkpt>
      <trkpt lat="43.83897" lon="5.41983">
        <ele>508.19</ele>
        <time>2018-03-22T13:29:34Z</time>
      </trkpt>
      <trkpt lat="43.83909" lon="5.41983">
        <ele>509.16</ele>
        <time>2018-03-22T13:29:46Z</time>
      </trkpt>
      <trkpt lat="43.83921" lon="5.4198">
        <ele>510.6</ele>
        <time>2018-03-22T13:29:56Z</time>
      </trkpt>
      <trkpt lat="43.83932" lon="5.41981">
        <ele>512.04</ele>
        <time>2018-03-22T13:30:08Z</time>
      </trkpt>
      <trkpt lat="43.83934" lon="5.4198">
        <ele>513</ele>
        <time>2018-03-22T13:30:11Z</time>
      </trkpt>
      <trkpt lat="43.83933" lon="5.41979">
        <ele>513.48</ele>
        <time>2018-03-22T13:30:13Z</time>
      </trkpt>
      <trkpt lat="43.83932" lon="5.41978">
        <ele>513</ele>
        <time>2018-03-22T13:30:14Z</time>
      </trkpt>
      <trkpt lat="43.83931" lon="5.41977">
        <ele>513.48</ele>
        <time>2018-03-22T13:30:15Z</time>
      </trkpt>
      <trkpt lat="43.8393" lon="5.41977">
        <ele>513.96</ele>
        <time>2018-03-22T13:30:16Z</time>
      </trkpt>
      <trkpt lat="43.8392" lon="5.41969">
        <ele>514.44</ele>
        <time>2018-03-22T13:30:28Z</time>
      </trkpt>
      <trkpt lat="43.83906" lon="5.41957">
        <ele>514.44</ele>
        <time>2018-03-22T13:30:43Z</time>
      </trkpt>
      <trkpt lat="43.83894" lon="5.41941">
        <ele>514.44</ele>
        <time>2018-03-22T13:30:54Z</time>
      </trkpt>
      <trkpt lat="43.83886" lon="5.41932">
        <ele>514.44</ele>
        <time>2018-03-22T13:31:06Z</time>
      </trkpt>
      <trkpt lat="43.83873" lon="5.41917">
        <ele>514.44</ele>
        <time>2018-03-22T13:31:17Z</time>
      </trkpt>
      <trkpt lat="43.83864" lon="5.419">
        <ele>514.44</ele>
        <time>2018-03-22T13:31:31Z</time>
      </trkpt>
      <trkpt lat="43.83851" lon="5.41886">
        <ele>515.4</ele>
        <time>2018-03-22T13:31:45Z</time>
      </trkpt>
      <trkpt lat="43.83842" lon="5.41873">
        <ele>517.33</ele>
        <time>2018-03-22T13:31:55Z</time>
      </trkpt>
      <trkpt lat="43.8383" lon="5.41854">
        <ele>517.33</ele>
        <time>2018-03-22T13:32:08Z</time>
      </trkpt>
      <trkpt lat="43.83818" lon="5.4184">
        <ele>517.33</ele>
        <time>2018-03-22T13:32:23Z</time>
      </trkpt>
      <trkpt lat="43.8381" lon="5.41826">
        <ele>517.33</ele>
        <time>2018-03-22T13:32:35Z</time>
      </trkpt>
      <trkpt lat="43.83805" lon="5.41811">
        <ele>518.29</ele>
        <time>2018-03-22T13:32:45Z</time>
      </trkpt>
      <trkpt lat="43.83803" lon="5.41809">
        <ele>518.29</ele>
        <time>2018-03-22T13:32:47Z</time>
      </trkpt>
      <trkpt lat="43.83802" lon="5.41808">
        <ele>518.77</ele>
        <time>2018-03-22T13:32:48Z</time>
      </trkpt>
      <trkpt lat="43.83801" lon="5.41806">
        <ele>518.77</ele>
        <time>2018-03-22T13:32:49Z</time>
      </trkpt>
      <trkpt lat="43.83799" lon="5.41805">
        <ele>518.77</ele>
        <time>2018-03-22T13:32:50Z</time>
      </trkpt>
      <trkpt lat="43.83798" lon="5.41804">
        <ele>518.77</ele>
        <time>2018-03-22T13:32:51Z</time>
      </trkpt>
      <trkpt lat="43.83797" lon="5.41802">
        <ele>518.77</ele>
        <time>2018-03-22T13:32:52Z</time>
      </trkpt>
      <trkpt lat="43.83795" lon="5.41798">
        <ele>518.77</ele>
        <time>2018-03-22T13:32:55Z</time>
      </trkpt>
      <trkpt lat="43.83794" lon="5.41796">
        <ele>518.77</ele>
        <time>2018-03-22T13:32:56Z</time>
      </trkpt>
      <trkpt lat="43.83786" lon="5.41775">
        <ele>519.25</ele>
        <time>2018-03-22T13:33:10Z</time>
      </trkpt>
      <trkpt lat="43.83779" lon="5.41743">
        <ele>519.25</ele>
        <time>2018-03-22T13:33:28Z</time>
      </trkpt>
      <trkpt lat="43.83773" lon="5.41719">
        <ele>519.25</ele>
        <time>2018-03-22T13:33:43Z</time>
      </trkpt>
      <trkpt lat="43.83766" lon="5.41696">
        <ele>520.21</ele>
        <time>2018-03-22T13:33:58Z</time>
      </trkpt>
      <trkpt lat="43.83766" lon="5.41692">
        <ele>520.69</ele>
        <time>2018-03-22T13:34:00Z</time>
      </trkpt>
      <trkpt lat="43.83763" lon="5.41679">
        <ele>520.69</ele>
        <time>2018-03-22T13:34:12Z</time>
      </trkpt>
      <trkpt lat="43.83763" lon="5.41677">
        <ele>520.69</ele>
        <time>2018-03-22T13:34:14Z</time>
      </trkpt>
      <trkpt lat="43.83762" lon="5.41675">
        <ele>520.69</ele>
        <time>2018-03-22T13:34:15Z</time>
      </trkpt>
      <trkpt lat="43.83762" lon="5.41673">
        <ele>520.69</ele>
        <time>2018-03-22T13:34:16Z</time>
      </trkpt>
      <trkpt lat="43.83761" lon="5.41671">
        <ele>520.69</ele>
        <time>2018-03-22T13:34:17Z</time>
      </trkpt>
      <trkpt lat="43.8376" lon="5.41668">
        <ele>520.69</ele>
        <time>2018-03-22T13:34:18Z</time>
      </trkpt>
      <trkpt lat="43.83759" lon="5.41666">
        <ele>521.17</ele>
        <time>2018-03-22T13:34:19Z</time>
      </trkpt>
      <trkpt lat="43.83753" lon="5.41645">
        <ele>521.17</ele>
        <time>2018-03-22T13:34:30Z</time>
      </trkpt>
      <trkpt lat="43.83752" lon="5.4163">
        <ele>521.65</ele>
        <time>2018-03-22T13:34:42Z</time>
      </trkpt>
      <trkpt lat="43.83752" lon="5.41626">
        <ele>521.65</ele>
        <time>2018-03-22T13:34:46Z</time>
      </trkpt>
      <trkpt lat="43.83751" lon="5.41624">
        <ele>521.65</ele>
        <time>2018-03-22T13:34:47Z</time>
      </trkpt>
      <trkpt lat="43.8375" lon="5.41605">
        <ele>520.21</ele>
        <time>2018-03-22T13:34:56Z</time>
      </trkpt>
      <trkpt lat="43.83752" lon="5.41585">
        <ele>520.21</ele>
        <time>2018-03-22T13:35:10Z</time>
      </trkpt>
      <trkpt lat="43.83752" lon="5.41574">
        <ele>519.73</ele>
        <time>2018-03-22T13:35:15Z</time>
      </trkpt>
      <trkpt lat="43.83752" lon="5.41572">
        <ele>519.73</ele>
        <time>2018-03-22T13:35:16Z</time>
      </trkpt>
      <trkpt lat="43.83752" lon="5.41569">
        <ele>519.73</ele>
        <time>2018-03-22T13:35:17Z</time>
      </trkpt>
      <trkpt lat="43.83755" lon="5.41554">
        <ele>519.25</ele>
        <time>2018-03-22T13:35:29Z</time>
      </trkpt>
      <trkpt lat="43.83755" lon="5.41549">
        <ele>518.77</ele>
        <time>2018-03-22T13:35:32Z</time>
      </trkpt>
      <trkpt lat="43.83755" lon="5.41547">
        <ele>518.77</ele>
        <time>2018-03-22T13:35:33Z</time>
      </trkpt>
      <trkpt lat="43.83756" lon="5.4153">
        <ele>518.29</ele>
        <time>2018-03-22T13:35:45Z</time>
      </trkpt>
      <trkpt lat="43.83758" lon="5.41509">
        <ele>517.81</ele>
        <time>2018-03-22T13:35:57Z</time>
      </trkpt>
      <trkpt lat="43.83759" lon="5.41492">
        <ele>517.81</ele>
        <time>2018-03-22T13:36:09Z</time>
      </trkpt>
      <trkpt lat="43.83759" lon="5.4147">
        <ele>517.81</ele>
        <time>2018-03-22T13:36:19Z</time>
      </trkpt>
      <trkpt lat="43.83765" lon="5.41446">
        <ele>518.77</ele>
        <time>2018-03-22T13:36:37Z</time>
      </trkpt>
      <trkpt lat="43.83765" lon="5.41445">
        <ele>518.77</ele>
        <time>2018-03-22T13:36:38Z</time>
      </trkpt>
      <trkpt lat="43.83766" lon="5.41429">
        <ele>518.77</ele>
        <time>2018-03-22T13:36:48Z</time>
      </trkpt>
      <trkpt lat="43.83766" lon="5.41428">
        <ele>518.77</ele>
        <time>2018-03-22T13:36:49Z</time>
      </trkpt>
      <trkpt lat="43.83766" lon="5.41425">
        <ele>517.33</ele>
        <time>2018-03-22T13:36:51Z</time>
      </trkpt>
      <trkpt lat="43.83767" lon="5.41416">
        <ele>516.37</ele>
        <time>2018-03-22T13:36:58Z</time>
      </trkpt>
      <trkpt lat="43.83768" lon="5.41414">
        <ele>516.37</ele>
        <time>2018-03-22T13:36:59Z</time>
      </trkpt>
      <trkpt lat="43.83768" lon="5.41412">
        <ele>516.37</ele>
        <time>2018-03-22T13:37:00Z</time>
      </trkpt>
      <trkpt lat="43.83766" lon="5.41396">
        <ele>513.96</ele>
        <time>2018-03-22T13:37:11Z</time>
      </trkpt>
      <trkpt lat="43.8377" lon="5.41388">
        <ele>513.96</ele>
        <time>2018-03-22T13:37:18Z</time>
      </trkpt>
      <trkpt lat="43.83772" lon="5.41386">
        <ele>513.96</ele>
        <time>2018-03-22T13:37:22Z</time>
      </trkpt>
      <trkpt lat="43.83773" lon="5.41384">
        <ele>513.96</ele>
        <time>2018-03-22T13:37:23Z</time>
      </trkpt>
      <trkpt lat="43.83777" lon="5.41374">
        <ele>515.88</ele>
        <time>2018-03-22T13:37:32Z</time>
      </trkpt>
      <trkpt lat="43.83781" lon="5.41362">
        <ele>516.37</ele>
        <time>2018-03-22T13:37:43Z</time>
      </trkpt>
      <trkpt lat="43.83785" lon="5.41344">
        <ele>516.37</ele>
        <time>2018-03-22T13:37:54Z</time>
      </trkpt>
      <trkpt lat="43.83792" lon="5.41329">
        <ele>516.37</ele>
        <time>2018-03-22T13:38:05Z</time>
      </trkpt>
      <trkpt lat="43.83792" lon="5.41328">
        <ele>516.37</ele>
        <time>2018-03-22T13:38:06Z</time>
      </trkpt>
      <trkpt lat="43.83791" lon="5.41326">
        <ele>516.37</ele>
        <time>2018-03-22T13:38:07Z</time>
      </trkpt>
      <trkpt lat="43.83791" lon="5.41324">
        <ele>516.37</ele>
        <time>2018-03-22T13:38:08Z</time>
      </trkpt>
      <trkpt lat="43.83791" lon="5.41322">
        <ele>516.37</ele>
        <time>2018-03-22T13:38:09Z</time>
      </trkpt>
      <trkpt lat="43.83791" lon="5.4132">
        <ele>514.92</ele>
        <time>2018-03-22T13:38:10Z</time>
      </trkpt>
      <trkpt lat="43.83792" lon="5.41318">
        <ele>514.44</ele>
        <time>2018-03-22T13:38:12Z</time>
      </trkpt>
      <trkpt lat="43.83796" lon="5.41314">
        <ele>514.44</ele>
        <time>2018-03-22T13:38:17Z</time>
      </trkpt>
      <trkpt lat="43.83797" lon="5.41312">
        <ele>514.44</ele>
        <time>2018-03-22T13:38:18Z</time>
      </trkpt>
      <trkpt lat="43.83798" lon="5.41311">
        <ele>514.44</ele>
        <time>2018-03-22T13:38:19Z</time>
      </trkpt>
      <trkpt lat="43.83798" lon="5.4131">
        <ele>513.96</ele>
        <time>2018-03-22T13:38:20Z</time>
      </trkpt>
      <trkpt lat="43.838" lon="5.41309">
        <ele>513.96</ele>
        <time>2018-03-22T13:38:21Z</time>
      </trkpt>
      <trkpt lat="43.83801" lon="5.41308">
        <ele>513.96</ele>
        <time>2018-03-22T13:38:22Z</time>
      </trkpt>
      <trkpt lat="43.83802" lon="5.41306">
        <ele>515.88</ele>
        <time>2018-03-22T13:38:23Z</time>
      </trkpt>
      <trkpt lat="43.83803" lon="5.41305">
        <ele>515.88</ele>
        <time>2018-03-22T13:38:24Z</time>
      </trkpt>
      <trkpt lat="43.83803" lon="5.41304">
        <ele>515.88</ele>
        <time>2018-03-22T13:38:25Z</time>
      </trkpt>
      <trkpt lat="43.83804" lon="5.41303">
        <ele>515.88</ele>
        <time>2018-03-22T13:38:26Z</time>
      </trkpt>
      <trkpt lat="43.83811" lon="5.41297">
        <ele>514.44</ele>
        <time>2018-03-22T13:38:34Z</time>
      </trkpt>
      <trkpt lat="43.83819" lon="5.41293">
        <ele>513.96</ele>
        <time>2018-03-22T13:38:41Z</time>
      </trkpt>
      <trkpt lat="43.83838" lon="5.4129">
        <ele>513</ele>
        <time>2018-03-22T13:38:54Z</time>
      </trkpt>
      <trkpt lat="43.83839" lon="5.4129">
        <ele>513</ele>
        <time>2018-03-22T13:38:55Z</time>
      </trkpt>
      <trkpt lat="43.83856" lon="5.41287">
        <ele>513</ele>
        <time>2018-03-22T13:39:06Z</time>
      </trkpt>
      <trkpt lat="43.8386" lon="5.41288">
        <ele>513</ele>
        <time>2018-03-22T13:39:12Z</time>
      </trkpt>
      <trkpt lat="43.83877" lon="5.41287">
        <ele>513</ele>
        <time>2018-03-22T13:39:25Z</time>
      </trkpt>
      <trkpt lat="43.83894" lon="5.41287">
        <ele>513</ele>
        <time>2018-03-22T13:39:39Z</time>
      </trkpt>
      <trkpt lat="43.83899" lon="5.41285">
        <ele>513</ele>
        <time>2018-03-22T13:39:43Z</time>
      </trkpt>
      <trkpt lat="43.83901" lon="5.41286">
        <ele>513</ele>
        <time>2018-03-22T13:39:44Z</time>
      </trkpt>
      <trkpt lat="43.83902" lon="5.41286">
        <ele>513</ele>
        <time>2018-03-22T13:39:45Z</time>
      </trkpt>
      <trkpt lat="43.83904" lon="5.41287">
        <ele>512.52</ele>
        <time>2018-03-22T13:39:46Z</time>
      </trkpt>
      <trkpt lat="43.83905" lon="5.41287">
        <ele>513</ele>
        <time>2018-03-22T13:39:47Z</time>
      </trkpt>
      <trkpt lat="43.83906" lon="5.41287">
        <ele>513</ele>
        <time>2018-03-22T13:39:48Z</time>
      </trkpt>
      <trkpt lat="43.8392" lon="5.41287">
        <ele>513.96</ele>
        <time>2018-03-22T13:40:01Z</time>
      </trkpt>
      <trkpt lat="43.83922" lon="5.41287">
        <ele>514.44</ele>
        <time>2018-03-22T13:40:03Z</time>
      </trkpt>
      <trkpt lat="43.83931" lon="5.41273">
        <ele>514.92</ele>
        <time>2018-03-22T13:40:18Z</time>
      </trkpt>
      <trkpt lat="43.83933" lon="5.41271">
        <ele>515.4</ele>
        <time>2018-03-22T13:40:32Z</time>
      </trkpt>
      <trkpt lat="43.83935" lon="5.4127">
        <ele>516.37</ele>
        <time>2018-03-22T13:40:33Z</time>
      </trkpt>
      <trkpt lat="43.83944" lon="5.41268">
        <ele>516.37</ele>
        <time>2018-03-22T13:40:42Z</time>
      </trkpt>
      <trkpt lat="43.83953" lon="5.41269">
        <ele>517.33</ele>
        <time>2018-03-22T13:40:52Z</time>
      </trkpt>
      <trkpt lat="43.83955" lon="5.41268">
        <ele>517.81</ele>
        <time>2018-03-22T13:40:53Z</time>
      </trkpt>
      <trkpt lat="43.83968" lon="5.41266">
        <ele>519.73</ele>
        <time>2018-03-22T13:41:05Z</time>
      </trkpt>
      <trkpt lat="43.83985" lon="5.4127">
        <ele>520.69</ele>
        <time>2018-03-22T13:41:21Z</time>
      </trkpt>
      <trkpt lat="43.83999" lon="5.41273">
        <ele>523.58</ele>
        <time>2018-03-22T13:41:36Z</time>
      </trkpt>
      <trkpt lat="43.84013" lon="5.41274">
        <ele>525.5</ele>
        <time>2018-03-22T13:41:51Z</time>
      </trkpt>
      <trkpt lat="43.84024" lon="5.41265">
        <ele>527.9</ele>
        <time>2018-03-22T13:42:02Z</time>
      </trkpt>
      <trkpt lat="43.84032" lon="5.41259">
        <ele>529.34</ele>
        <time>2018-03-22T13:42:12Z</time>
      </trkpt>
      <trkpt lat="43.84032" lon="5.41258">
        <ele>529.34</ele>
        <time>2018-03-22T13:42:13Z</time>
      </trkpt>
      <trkpt lat="43.84038" lon="5.41251">
        <ele>531.27</ele>
        <time>2018-03-22T13:42:23Z</time>
      </trkpt>
      <trkpt lat="43.8403" lon="5.41244">
        <ele>533.67</ele>
        <time>2018-03-22T13:42:35Z</time>
      </trkpt>
      <trkpt lat="43.84025" lon="5.41239">
        <ele>535.11</ele>
        <time>2018-03-22T13:42:43Z</time>
      </trkpt>
      <trkpt lat="43.84014" lon="5.41228">
        <ele>535.278259</ele>
        <time>2018-03-22T13:42:58Z</time>
      </trkpt>
      <trkpt lat="43.84005" lon="5.41221">
        <ele>539.44</ele>
        <time>2018-03-22T13:43:10Z</time>
      </trkpt>
      <trkpt lat="43.83994" lon="5.41212">
        <ele>540.4</ele>
        <time>2018-03-22T13:43:24Z</time>
      </trkpt>
      <trkpt lat="43.83994" lon="5.41212">
        <ele>540.4</ele>
        <time>2018-03-22T13:43:31Z</time>
      </trkpt>
      <trkpt lat="43.83991" lon="5.41206">
        <ele>541.36</ele>
        <time>2018-03-22T13:43:36Z</time>
      </trkpt>
      <trkpt lat="43.83983" lon="5.412">
        <ele>541.84</ele>
        <time>2018-03-22T13:43:46Z</time>
      </trkpt>
      <trkpt lat="43.83975" lon="5.41196">
        <ele>540.4</ele>
        <time>2018-03-22T13:43:51Z</time>
      </trkpt>
      <trkpt lat="43.83968" lon="5.41195">
        <ele>535.475281</ele>
        <time>2018-03-22T13:43:52Z</time>
      </trkpt>
      <trkpt lat="43.83964" lon="5.41193">
        <ele>538.48</ele>
        <time>2018-03-22T13:44:04Z</time>
      </trkpt>
      <trkpt lat="43.83951" lon="5.41181">
        <ele>537.99</ele>
        <time>2018-03-22T13:44:18Z</time>
      </trkpt>
      <trkpt lat="43.83941" lon="5.4117">
        <ele>537.99</ele>
        <time>2018-03-22T13:44:28Z</time>
      </trkpt>
      <trkpt lat="43.83928" lon="5.41163">
        <ele>537.99</ele>
        <time>2018-03-22T13:44:42Z</time>
      </trkpt>
      <trkpt lat="43.83923" lon="5.41163">
        <ele>537.99</ele>
        <time>2018-03-22T13:44:45Z</time>
      </trkpt>
      <trkpt lat="43.8392" lon="5.41159">
        <ele>537.51</ele>
        <time>2018-03-22T13:45:08Z</time>
      </trkpt>
      <trkpt lat="43.83908" lon="5.41157">
        <ele>537.51</ele>
        <time>2018-03-22T13:45:19Z</time>
      </trkpt>
      <trkpt lat="43.83902" lon="5.41154">
        <ele>537.51</ele>
        <time>2018-03-22T13:45:26Z</time>
      </trkpt>
      <trkpt lat="43.83898" lon="5.41154">
        <ele>537.51</ele>
        <time>2018-03-22T13:45:29Z</time>
      </trkpt>
      <trkpt lat="43.83885" lon="5.41147">
        <ele>536.55</ele>
        <time>2018-03-22T13:45:42Z</time>
      </trkpt>
      <trkpt lat="43.83882" lon="5.41139">
        <ele>536.55</ele>
        <time>2018-03-22T13:45:52Z</time>
      </trkpt>
      <trkpt lat="43.83872" lon="5.41128">
        <ele>536.07</ele>
        <time>2018-03-22T13:46:01Z</time>
      </trkpt>
      <trkpt lat="43.83867" lon="5.41126">
        <ele>535.59</ele>
        <time>2018-03-22T13:46:20Z</time>
      </trkpt>
      <trkpt lat="43.83864" lon="5.41122">
        <ele>535.59</ele>
        <time>2018-03-22T13:51:39Z</time>
      </trkpt>
      <trkpt lat="43.83853" lon="5.41098">
        <ele>534.63</ele>
        <time>2018-03-22T13:51:52Z</time>
      </trkpt>
      <trkpt lat="43.83846" lon="5.41093">
        <ele>532.71</ele>
        <time>2018-03-22T13:52:01Z</time>
      </trkpt>
      <trkpt lat="43.83844" lon="5.41085">
        <ele>531.27</ele>
        <time>2018-03-22T13:52:09Z</time>
      </trkpt>
      <trkpt lat="43.83841" lon="5.41079">
        <ele>530.3</ele>
        <time>2018-03-22T13:52:14Z</time>
      </trkpt>
      <trkpt lat="43.83837" lon="5.41058">
        <ele>527.9</ele>
        <time>2018-03-22T13:52:28Z</time>
      </trkpt>
      <trkpt lat="43.8383" lon="5.41036">
        <ele>525.5</ele>
        <time>2018-03-22T13:52:44Z</time>
      </trkpt>
      <trkpt lat="43.8383" lon="5.41032">
        <ele>525.5</ele>
        <time>2018-03-22T13:52:47Z</time>
      </trkpt>
      <trkpt lat="43.83836" lon="5.41015">
        <ele>525.5</ele>
        <time>2018-03-22T13:52:55Z</time>
      </trkpt>
      <trkpt lat="43.83833" lon="5.40996">
        <ele>525.5</ele>
        <time>2018-03-22T13:53:06Z</time>
      </trkpt>
      <trkpt lat="43.83835" lon="5.40979">
        <ele>525.5</ele>
        <time>2018-03-22T13:53:21Z</time>
      </trkpt>
      <trkpt lat="43.83836" lon="5.40976">
        <ele>525.5</ele>
        <time>2018-03-22T13:53:23Z</time>
      </trkpt>
      <trkpt lat="43.83838" lon="5.40954">
        <ele>525.5</ele>
        <time>2018-03-22T13:53:36Z</time>
      </trkpt>
      <trkpt lat="43.83838" lon="5.40953">
        <ele>525.5</ele>
        <time>2018-03-22T13:53:37Z</time>
      </trkpt>
      <trkpt lat="43.8384" lon="5.40942">
        <ele>525.5</ele>
        <time>2018-03-22T13:53:43Z</time>
      </trkpt>
      <trkpt lat="43.83838" lon="5.40911">
        <ele>522.61</ele>
        <time>2018-03-22T13:53:59Z</time>
      </trkpt>
      <trkpt lat="43.8384" lon="5.40882">
        <ele>523.58</ele>
        <time>2018-03-22T13:54:16Z</time>
      </trkpt>
      <trkpt lat="43.8384" lon="5.4088">
        <ele>523.58</ele>
        <time>2018-03-22T13:54:17Z</time>
      </trkpt>
      <trkpt lat="43.83843" lon="5.40854">
        <ele>524.06</ele>
        <time>2018-03-22T13:54:32Z</time>
      </trkpt>
      <trkpt lat="43.83846" lon="5.40834">
        <ele>525.5</ele>
        <time>2018-03-22T13:54:45Z</time>
      </trkpt>
      <trkpt lat="43.83844" lon="5.40815">
        <ele>524.54</ele>
        <time>2018-03-22T13:54:54Z</time>
      </trkpt>
      <trkpt lat="43.83843" lon="5.40812">
        <ele>524.54</ele>
        <time>2018-03-22T13:54:56Z</time>
      </trkpt>
      <trkpt lat="43.83841" lon="5.40807">
        <ele>526.351746</ele>
        <time>2018-03-22T13:55:01Z</time>
      </trkpt>
      <trkpt lat="43.83837" lon="5.408">
        <ele>524.762756</ele>
        <time>2018-03-22T13:55:50Z</time>
      </trkpt>
      <trkpt lat="43.83836" lon="5.40795">
        <ele>523.09</ele>
        <time>2018-03-22T13:55:53Z</time>
      </trkpt>
      <trkpt lat="43.83838" lon="5.40792">
        <ele>522.13</ele>
        <time>2018-03-22T13:56:24Z</time>
      </trkpt>
      <trkpt lat="43.83844" lon="5.40798">
        <ele>525.5</ele>
        <time>2018-03-22T13:56:35Z</time>
      </trkpt>
      <trkpt lat="43.83846" lon="5.40801">
        <ele>526.46</ele>
        <time>2018-03-22T13:56:39Z</time>
      </trkpt>
      <trkpt lat="43.8385" lon="5.408">
        <ele>526.46</ele>
        <time>2018-03-22T13:56:44Z</time>
      </trkpt>
      <trkpt lat="43.83856" lon="5.4079">
        <ele>528.38</ele>
        <time>2018-03-22T13:56:55Z</time>
      </trkpt>
      <trkpt lat="43.83857" lon="5.40788">
        <ele>529.34</ele>
        <time>2018-03-22T13:56:57Z</time>
      </trkpt>
      <trkpt lat="43.83864" lon="5.40766">
        <ele>531.27</ele>
        <time>2018-03-22T13:57:14Z</time>
      </trkpt>
      <trkpt lat="43.83873" lon="5.40755">
        <ele>531.75</ele>
        <time>2018-03-22T13:57:24Z</time>
      </trkpt>
      <trkpt lat="43.83878" lon="5.4075">
        <ele>533.67</ele>
        <time>2018-03-22T13:57:32Z</time>
      </trkpt>
      <trkpt lat="43.83879" lon="5.40749">
        <ele>533.67</ele>
        <time>2018-03-22T13:57:34Z</time>
      </trkpt>
      <trkpt lat="43.83887" lon="5.40736">
        <ele>536.07</ele>
        <time>2018-03-22T13:57:47Z</time>
      </trkpt>
      <trkpt lat="43.83892" lon="5.40731">
        <ele>536.55</ele>
        <time>2018-03-22T13:57:53Z</time>
      </trkpt>
      <trkpt lat="43.83896" lon="5.40726">
        <ele>537.99</ele>
        <time>2018-03-22T13:58:00Z</time>
      </trkpt>
      <trkpt lat="43.83899" lon="5.40722">
        <ele>538.48</ele>
        <time>2018-03-22T13:58:03Z</time>
      </trkpt>
      <trkpt lat="43.83905" lon="5.40713">
        <ele>539.44</ele>
        <time>2018-03-22T13:58:13Z</time>
      </trkpt>
      <trkpt lat="43.8391" lon="5.40705">
        <ele>540.88</ele>
        <time>2018-03-22T13:58:21Z</time>
      </trkpt>
      <trkpt lat="43.83918" lon="5.40695">
        <ele>542.32</ele>
        <time>2018-03-22T13:58:36Z</time>
      </trkpt>
      <trkpt lat="43.83918" lon="5.40694">
        <ele>542.32</ele>
        <time>2018-03-22T13:58:37Z</time>
      </trkpt>
      <trkpt lat="43.83926" lon="5.40683">
        <ele>543.76</ele>
        <time>2018-03-22T13:58:49Z</time>
      </trkpt>
      <trkpt lat="43.83935" lon="5.40669">
        <ele>545.69</ele>
        <time>2018-03-22T13:59:04Z</time>
      </trkpt>
      <trkpt lat="43.83943" lon="5.40658">
        <ele>546.65</ele>
        <time>2018-03-22T13:59:15Z</time>
      </trkpt>
      <trkpt lat="43.83944" lon="5.40656">
        <ele>547.61</ele>
        <time>2018-03-22T13:59:18Z</time>
      </trkpt>
      <trkpt lat="43.83956" lon="5.40644">
        <ele>550.49</ele>
        <time>2018-03-22T13:59:35Z</time>
      </trkpt>
      <trkpt lat="43.83964" lon="5.4064">
        <ele>551.93</ele>
        <time>2018-03-22T13:59:47Z</time>
      </trkpt>
      <trkpt lat="43.83981" lon="5.40635">
        <ele>554.34</ele>
        <time>2018-03-22T14:00:05Z</time>
      </trkpt>
      <trkpt lat="43.83997" lon="5.40632">
        <ele>555.78</ele>
        <time>2018-03-22T14:00:23Z</time>
      </trkpt>
      <trkpt lat="43.84018" lon="5.40629">
        <ele>557.7</ele>
        <time>2018-03-22T14:00:44Z</time>
      </trkpt>
      <trkpt lat="43.84038" lon="5.40621">
        <ele>559.14</ele>
        <time>2018-03-22T14:01:01Z</time>
      </trkpt>
      <trkpt lat="43.84039" lon="5.40622">
        <ele>559.14</ele>
        <time>2018-03-22T14:01:02Z</time>
      </trkpt>
      <trkpt lat="43.84056" lon="5.40623">
        <ele>561.55</ele>
        <time>2018-03-22T14:01:17Z</time>
      </trkpt>
      <trkpt lat="43.84068" lon="5.40625">
        <ele>562.51</ele>
        <time>2018-03-22T14:01:28Z</time>
      </trkpt>
      <trkpt lat="43.84081" lon="5.40617">
        <ele>563.47</ele>
        <time>2018-03-22T14:01:40Z</time>
      </trkpt>
      <trkpt lat="43.841" lon="5.40613">
        <ele>563.95</ele>
        <time>2018-03-22T14:01:58Z</time>
      </trkpt>
      <trkpt lat="43.84118" lon="5.40606">
        <ele>563.95</ele>
        <time>2018-03-22T14:02:14Z</time>
      </trkpt>
      <trkpt lat="43.84139" lon="5.40599">
        <ele>563.95</ele>
        <time>2018-03-22T14:02:32Z</time>
      </trkpt>
      <trkpt lat="43.8416" lon="5.40599">
        <ele>563.95</ele>
        <time>2018-03-22T14:02:48Z</time>
      </trkpt>
      <trkpt lat="43.84171" lon="5.40596">
        <ele>563.95</ele>
        <time>2018-03-22T14:02:57Z</time>
      </trkpt>
      <trkpt lat="43.84187" lon="5.4059">
        <ele>563.95</ele>
        <time>2018-03-22T14:03:12Z</time>
      </trkpt>
      <trkpt lat="43.84204" lon="5.40586">
        <ele>563.95</ele>
        <time>2018-03-22T14:03:26Z</time>
      </trkpt>
      <trkpt lat="43.84224" lon="5.40582">
        <ele>563.95</ele>
        <time>2018-03-22T14:03:42Z</time>
      </trkpt>
      <trkpt lat="43.84239" lon="5.40576">
        <ele>563.95</ele>
        <time>2018-03-22T14:03:56Z</time>
      </trkpt>
      <trkpt lat="43.8425" lon="5.40573">
        <ele>562.51</ele>
        <time>2018-03-22T14:04:04Z</time>
      </trkpt>
      <trkpt lat="43.84266" lon="5.40567">
        <ele>562.51</ele>
        <time>2018-03-22T14:04:19Z</time>
      </trkpt>
      <trkpt lat="43.84281" lon="5.40561">
        <ele>562.51</ele>
        <time>2018-03-22T14:04:32Z</time>
      </trkpt>
      <trkpt lat="43.84299" lon="5.40553">
        <ele>562.51</ele>
        <time>2018-03-22T14:04:47Z</time>
      </trkpt>
      <trkpt lat="43.84305" lon="5.4055">
        <ele>562.51</ele>
        <time>2018-03-22T14:04:54Z</time>
      </trkpt>
      <trkpt lat="43.84323" lon="5.40536">
        <ele>562.03</ele>
        <time>2018-03-22T14:05:10Z</time>
      </trkpt>
      <trkpt lat="43.84343" lon="5.40526">
        <ele>561.07</ele>
        <time>2018-03-22T14:05:28Z</time>
      </trkpt>
      <trkpt lat="43.84365" lon="5.40517">
        <ele>561.07</ele>
        <time>2018-03-22T14:05:47Z</time>
      </trkpt>
      <trkpt lat="43.84385" lon="5.40516">
        <ele>561.07</ele>
        <time>2018-03-22T14:06:02Z</time>
      </trkpt>
      <trkpt lat="43.84395" lon="5.40515">
        <ele>561.07</ele>
        <time>2018-03-22T14:06:13Z</time>
      </trkpt>
      <trkpt lat="43.8442" lon="5.40511">
        <ele>561.07</ele>
        <time>2018-03-22T14:06:29Z</time>
      </trkpt>
      <trkpt lat="43.84434" lon="5.4051">
        <ele>561.07</ele>
        <time>2018-03-22T14:06:43Z</time>
      </trkpt>
      <trkpt lat="43.8445" lon="5.40503">
        <ele>561.07</ele>
        <time>2018-03-22T14:06:57Z</time>
      </trkpt>
      <trkpt lat="43.84455" lon="5.40497">
        <ele>560.59</ele>
        <time>2018-03-22T14:07:03Z</time>
      </trkpt>
      <trkpt lat="43.84478" lon="5.40476">
        <ele>560.59</ele>
        <time>2018-03-22T14:07:18Z</time>
      </trkpt>
      <trkpt lat="43.84488" lon="5.40443">
        <ele>558.07666</ele>
        <time>2018-03-22T14:08:12Z</time>
      </trkpt>
      <trkpt lat="43.84504" lon="5.4043">
        <ele>558.66</ele>
        <time>2018-03-22T14:08:28Z</time>
      </trkpt>
      <trkpt lat="43.8451" lon="5.40428">
        <ele>557.009094</ele>
        <time>2018-03-22T14:08:41Z</time>
      </trkpt>
      <trkpt lat="43.84511" lon="5.40429">
        <ele>557.03302</ele>
        <time>2018-03-22T14:09:16Z</time>
      </trkpt>
      <trkpt lat="43.84514" lon="5.40426">
        <ele>556.911255</ele>
        <time>2018-03-22T14:09:50Z</time>
      </trkpt>
      <trkpt lat="43.84517" lon="5.40426">
        <ele>556.857605</ele>
        <time>2018-03-22T14:10:12Z</time>
      </trkpt>
      <trkpt lat="43.84521" lon="5.40421">
        <ele>556.610535</ele>
        <time>2018-03-22T14:10:21Z</time>
      </trkpt>
      <trkpt lat="43.84528" lon="5.40409">
        <ele>559.14</ele>
        <time>2018-03-22T14:10:38Z</time>
      </trkpt>
      <trkpt lat="43.84531" lon="5.40402">
        <ele>555.861877</ele>
        <time>2018-03-22T14:10:46Z</time>
      </trkpt>
      <trkpt lat="43.84534" lon="5.40396">
        <ele>555.674622</ele>
        <time>2018-03-22T14:11:05Z</time>
      </trkpt>
      <trkpt lat="43.84536" lon="5.40392">
        <ele>557.7</ele>
        <time>2018-03-22T14:11:19Z</time>
      </trkpt>
      <trkpt lat="43.84534" lon="5.40391">
        <ele>557.22</ele>
        <time>2018-03-22T14:11:36Z</time>
      </trkpt>
      <trkpt lat="43.84534" lon="5.40392">
        <ele>558.66</ele>
        <time>2018-03-22T14:11:55Z</time>
      </trkpt>
      <trkpt lat="43.84535" lon="5.40391">
        <ele>558.66</ele>
        <time>2018-03-22T14:12:09Z</time>
      </trkpt>
      <trkpt lat="43.84534" lon="5.4039">
        <ele>557.7</ele>
        <time>2018-03-22T14:12:30Z</time>
      </trkpt>
      <trkpt lat="43.84534" lon="5.4039">
        <ele>559.14</ele>
        <time>2018-03-22T14:12:34Z</time>
      </trkpt>
      <trkpt lat="43.84535" lon="5.40389">
        <ele>557.7</ele>
        <time>2018-03-22T14:12:54Z</time>
      </trkpt>
      <trkpt lat="43.84535" lon="5.40389">
        <ele>559.14</ele>
        <time>2018-03-22T14:13:07Z</time>
      </trkpt>
      <trkpt lat="43.84535" lon="5.40389">
        <ele>557.7</ele>
        <time>2018-03-22T14:13:09Z</time>
      </trkpt>
      <trkpt lat="43.84535" lon="5.40391">
        <ele>557.7</ele>
        <time>2018-03-22T14:13:30Z</time>
      </trkpt>
    </trkseg>
  </trk>
</gpx>